<?xml version="1.0" encoding="UTF-8" standalone="no" ?>
<gpx xmlns="http://www.topografix.com/GPX/1/1" xmlns:xsi="http://www.w3.org/2001/XMLSchema-instance" xsi:schemaLocation="http://www.topografix.com/GPX/1/1 http://www.topografix.com/GPX/1/1/gpx.xsd" version="1.1" creator="VisuGPX - https://www.visugpx.com">
  <metadata>
    <name>Beaux dimanche Virignin 2012</name>
    <desc><![CDATA[Virignin 2012]]></desc>
  </metadata>
  <trk>
    <name><![CDATA[Parcours 2012-05-13 09:40]]></name>
    <trkseg>
      <trkpt lat="45.73066" lon="5.70454">
        <ele>303.40002441406</ele>
        <time>2012-05-13T07:41:34Z</time>
      </trkpt>
      <trkpt lat="45.73068" lon="5.70441">
        <ele>294.29998779297</ele>
        <time>2012-05-13T07:52:04Z</time>
      </trkpt>
      <trkpt lat="45.73075" lon="5.70432">
        <ele>294</ele>
        <time>2012-05-13T07:52:13Z</time>
      </trkpt>
      <trkpt lat="45.73082" lon="5.7044">
        <ele>293.5</ele>
        <time>2012-05-13T07:52:19Z</time>
      </trkpt>
      <trkpt lat="45.73089" lon="5.7045">
        <ele>293.20001220703</ele>
        <time>2012-05-13T07:52:26Z</time>
      </trkpt>
      <trkpt lat="45.73096" lon="5.7046">
        <ele>293</ele>
        <time>2012-05-13T07:52:33Z</time>
      </trkpt>
      <trkpt lat="45.73102" lon="5.7047">
        <ele>293.59997558594</ele>
        <time>2012-05-13T07:52:41Z</time>
      </trkpt>
      <trkpt lat="45.73109" lon="5.70479">
        <ele>293.09997558594</ele>
        <time>2012-05-13T07:52:49Z</time>
      </trkpt>
      <trkpt lat="45.73115" lon="5.70491">
        <ele>292.5</ele>
        <time>2012-05-13T07:52:57Z</time>
      </trkpt>
      <trkpt lat="45.73122" lon="5.705">
        <ele>292.90002441406</ele>
        <time>2012-05-13T07:53:06Z</time>
      </trkpt>
      <trkpt lat="45.73129" lon="5.70509">
        <ele>293.70001220703</ele>
        <time>2012-05-13T07:53:17Z</time>
      </trkpt>
      <trkpt lat="45.73137" lon="5.70519">
        <ele>294.40002441406</ele>
        <time>2012-05-13T07:53:25Z</time>
      </trkpt>
      <trkpt lat="45.73147" lon="5.70522">
        <ele>294.90002441406</ele>
        <time>2012-05-13T07:53:34Z</time>
      </trkpt>
      <trkpt lat="45.73156" lon="5.70527">
        <ele>296.09997558594</ele>
        <time>2012-05-13T07:53:43Z</time>
      </trkpt>
      <trkpt lat="45.73169" lon="5.70547">
        <ele>297.79998779297</ele>
        <time>2012-05-13T07:53:58Z</time>
      </trkpt>
      <trkpt lat="45.73175" lon="5.70557">
        <ele>298.79998779297</ele>
        <time>2012-05-13T07:54:05Z</time>
      </trkpt>
      <trkpt lat="45.73182" lon="5.70566">
        <ele>299.59997558594</ele>
        <time>2012-05-13T07:54:13Z</time>
      </trkpt>
      <trkpt lat="45.7319" lon="5.70575">
        <ele>300.90002441406</ele>
        <time>2012-05-13T07:54:21Z</time>
      </trkpt>
      <trkpt lat="45.73198" lon="5.70581">
        <ele>301.29998779297</ele>
        <time>2012-05-13T07:54:27Z</time>
      </trkpt>
      <trkpt lat="45.73212" lon="5.70596">
        <ele>302.59997558594</ele>
        <time>2012-05-13T07:54:40Z</time>
      </trkpt>
      <trkpt lat="45.7322" lon="5.70603">
        <ele>303.20001220703</ele>
        <time>2012-05-13T07:54:46Z</time>
      </trkpt>
      <trkpt lat="45.73227" lon="5.70611">
        <ele>303.70001220703</ele>
        <time>2012-05-13T07:54:53Z</time>
      </trkpt>
      <trkpt lat="45.73234" lon="5.70621">
        <ele>304.29998779297</ele>
        <time>2012-05-13T07:55:01Z</time>
      </trkpt>
      <trkpt lat="45.73242" lon="5.7063">
        <ele>304.90002441406</ele>
        <time>2012-05-13T07:55:10Z</time>
      </trkpt>
      <trkpt lat="45.73248" lon="5.70639">
        <ele>305.5</ele>
        <time>2012-05-13T07:55:21Z</time>
      </trkpt>
      <trkpt lat="45.73255" lon="5.70649">
        <ele>305.90002441406</ele>
        <time>2012-05-13T07:55:29Z</time>
      </trkpt>
      <trkpt lat="45.73262" lon="5.70659">
        <ele>306.29998779297</ele>
        <time>2012-05-13T07:55:37Z</time>
      </trkpt>
      <trkpt lat="45.73271" lon="5.70665">
        <ele>307.29998779297</ele>
        <time>2012-05-13T07:55:43Z</time>
      </trkpt>
      <trkpt lat="45.7328" lon="5.70669">
        <ele>309</ele>
        <time>2012-05-13T07:55:50Z</time>
      </trkpt>
      <trkpt lat="45.7329" lon="5.70669">
        <ele>309.70001220703</ele>
        <time>2012-05-13T07:58:09Z</time>
      </trkpt>
      <trkpt lat="45.73299" lon="5.70665">
        <ele>311.20001220703</ele>
        <time>2012-05-13T07:58:36Z</time>
      </trkpt>
      <trkpt lat="45.73309" lon="5.70664">
        <ele>313.79998779297</ele>
        <time>2012-05-13T07:59:22Z</time>
      </trkpt>
      <trkpt lat="45.73318" lon="5.70661">
        <ele>314.20001220703</ele>
        <time>2012-05-13T08:00:04Z</time>
      </trkpt>
      <trkpt lat="45.73327" lon="5.70656">
        <ele>315.09997558594</ele>
        <time>2012-05-13T08:00:12Z</time>
      </trkpt>
      <trkpt lat="45.73335" lon="5.70651">
        <ele>315.79998779297</ele>
        <time>2012-05-13T08:00:19Z</time>
      </trkpt>
      <trkpt lat="45.73344" lon="5.70647">
        <ele>316.09997558594</ele>
        <time>2012-05-13T08:00:25Z</time>
      </trkpt>
      <trkpt lat="45.73354" lon="5.70644">
        <ele>317.29998779297</ele>
        <time>2012-05-13T08:00:32Z</time>
      </trkpt>
      <trkpt lat="45.73363" lon="5.70641">
        <ele>317.40002441406</ele>
        <time>2012-05-13T08:00:39Z</time>
      </trkpt>
      <trkpt lat="45.73373" lon="5.70637">
        <ele>318.29998779297</ele>
        <time>2012-05-13T08:00:46Z</time>
      </trkpt>
      <trkpt lat="45.73383" lon="5.70636">
        <ele>317.70001220703</ele>
        <time>2012-05-13T08:00:54Z</time>
      </trkpt>
      <trkpt lat="45.73392" lon="5.70637">
        <ele>317.59997558594</ele>
        <time>2012-05-13T08:01:01Z</time>
      </trkpt>
      <trkpt lat="45.73402" lon="5.70637">
        <ele>317.5</ele>
        <time>2012-05-13T08:01:07Z</time>
      </trkpt>
      <trkpt lat="45.73411" lon="5.70638">
        <ele>317.29998779297</ele>
        <time>2012-05-13T08:01:17Z</time>
      </trkpt>
      <trkpt lat="45.73421" lon="5.7064">
        <ele>317.29998779297</ele>
        <time>2012-05-13T08:01:23Z</time>
      </trkpt>
      <trkpt lat="45.73431" lon="5.70641">
        <ele>318.09997558594</ele>
        <time>2012-05-13T08:01:29Z</time>
      </trkpt>
      <trkpt lat="45.7344" lon="5.7064">
        <ele>318.90002441406</ele>
        <time>2012-05-13T08:01:35Z</time>
      </trkpt>
      <trkpt lat="45.73448" lon="5.70632">
        <ele>319.70001220703</ele>
        <time>2012-05-13T08:01:42Z</time>
      </trkpt>
      <trkpt lat="45.73454" lon="5.70622">
        <ele>320.29998779297</ele>
        <time>2012-05-13T08:01:49Z</time>
      </trkpt>
      <trkpt lat="45.7346" lon="5.70612">
        <ele>320.70001220703</ele>
        <time>2012-05-13T08:01:56Z</time>
      </trkpt>
      <trkpt lat="45.73468" lon="5.70604">
        <ele>321.29998779297</ele>
        <time>2012-05-13T08:02:03Z</time>
      </trkpt>
      <trkpt lat="45.73477" lon="5.70599">
        <ele>321.70001220703</ele>
        <time>2012-05-13T08:02:10Z</time>
      </trkpt>
      <trkpt lat="45.73486" lon="5.70595">
        <ele>321.79998779297</ele>
        <time>2012-05-13T08:02:18Z</time>
      </trkpt>
      <trkpt lat="45.73496" lon="5.70594">
        <ele>322.20001220703</ele>
        <time>2012-05-13T08:02:28Z</time>
      </trkpt>
      <trkpt lat="45.73503" lon="5.70602">
        <ele>321.79998779297</ele>
        <time>2012-05-13T08:02:39Z</time>
      </trkpt>
      <trkpt lat="45.7351" lon="5.70611">
        <ele>320.09997558594</ele>
        <time>2012-05-13T08:02:48Z</time>
      </trkpt>
      <trkpt lat="45.73517" lon="5.70621">
        <ele>319.59997558594</ele>
        <time>2012-05-13T08:02:55Z</time>
      </trkpt>
      <trkpt lat="45.73523" lon="5.70632">
        <ele>318.90002441406</ele>
        <time>2012-05-13T08:03:02Z</time>
      </trkpt>
      <trkpt lat="45.73527" lon="5.70644">
        <ele>317.59997558594</ele>
        <time>2012-05-13T08:03:09Z</time>
      </trkpt>
      <trkpt lat="45.73531" lon="5.70657">
        <ele>316.29998779297</ele>
        <time>2012-05-13T08:03:16Z</time>
      </trkpt>
      <trkpt lat="45.73537" lon="5.70668">
        <ele>315.20001220703</ele>
        <time>2012-05-13T08:03:24Z</time>
      </trkpt>
      <trkpt lat="45.73545" lon="5.70677">
        <ele>313.90002441406</ele>
        <time>2012-05-13T08:03:32Z</time>
      </trkpt>
      <trkpt lat="45.73554" lon="5.70682">
        <ele>314.20001220703</ele>
        <time>2012-05-13T08:03:40Z</time>
      </trkpt>
      <trkpt lat="45.73563" lon="5.70684">
        <ele>314.20001220703</ele>
        <time>2012-05-13T08:03:47Z</time>
      </trkpt>
      <trkpt lat="45.73573" lon="5.70685">
        <ele>314.40002441406</ele>
        <time>2012-05-13T08:03:55Z</time>
      </trkpt>
      <trkpt lat="45.73583" lon="5.70685">
        <ele>315</ele>
        <time>2012-05-13T08:04:03Z</time>
      </trkpt>
      <trkpt lat="45.73593" lon="5.70681">
        <ele>317.09997558594</ele>
        <time>2012-05-13T08:04:12Z</time>
      </trkpt>
      <trkpt lat="45.73602" lon="5.7068">
        <ele>319.59997558594</ele>
        <time>2012-05-13T08:04:19Z</time>
      </trkpt>
      <trkpt lat="45.73612" lon="5.7068">
        <ele>320.5</ele>
        <time>2012-05-13T08:04:28Z</time>
      </trkpt>
      <trkpt lat="45.73621" lon="5.70682">
        <ele>321.5</ele>
        <time>2012-05-13T08:04:37Z</time>
      </trkpt>
      <trkpt lat="45.73631" lon="5.70684">
        <ele>318.40002441406</ele>
        <time>2012-05-13T08:04:47Z</time>
      </trkpt>
      <trkpt lat="45.7364" lon="5.70685">
        <ele>314.59997558594</ele>
        <time>2012-05-13T08:04:54Z</time>
      </trkpt>
      <trkpt lat="45.73649" lon="5.70684">
        <ele>312</ele>
        <time>2012-05-13T08:05:00Z</time>
      </trkpt>
      <trkpt lat="45.73658" lon="5.70679">
        <ele>311.29998779297</ele>
        <time>2012-05-13T08:05:07Z</time>
      </trkpt>
      <trkpt lat="45.73667" lon="5.70672">
        <ele>311</ele>
        <time>2012-05-13T08:05:15Z</time>
      </trkpt>
      <trkpt lat="45.73674" lon="5.70663">
        <ele>309.79998779297</ele>
        <time>2012-05-13T08:05:22Z</time>
      </trkpt>
      <trkpt lat="45.73682" lon="5.70654">
        <ele>308.40002441406</ele>
        <time>2012-05-13T08:05:29Z</time>
      </trkpt>
      <trkpt lat="45.73688" lon="5.70644">
        <ele>308.20001220703</ele>
        <time>2012-05-13T08:05:35Z</time>
      </trkpt>
      <trkpt lat="45.73694" lon="5.70633">
        <ele>308.59997558594</ele>
        <time>2012-05-13T08:05:43Z</time>
      </trkpt>
      <trkpt lat="45.73699" lon="5.70622">
        <ele>308.59997558594</ele>
        <time>2012-05-13T08:05:51Z</time>
      </trkpt>
      <trkpt lat="45.73705" lon="5.70611">
        <ele>307.70001220703</ele>
        <time>2012-05-13T08:05:59Z</time>
      </trkpt>
      <trkpt lat="45.7371" lon="5.706">
        <ele>306.20001220703</ele>
        <time>2012-05-13T08:06:03Z</time>
      </trkpt>
      <trkpt lat="45.73715" lon="5.70588">
        <ele>306.20001220703</ele>
        <time>2012-05-13T08:06:08Z</time>
      </trkpt>
      <trkpt lat="45.73721" lon="5.70576">
        <ele>307.79998779297</ele>
        <time>2012-05-13T08:06:16Z</time>
      </trkpt>
      <trkpt lat="45.73726" lon="5.70565">
        <ele>308.40002441406</ele>
        <time>2012-05-13T08:06:23Z</time>
      </trkpt>
      <trkpt lat="45.7373" lon="5.70553">
        <ele>308.90002441406</ele>
        <time>2012-05-13T08:06:30Z</time>
      </trkpt>
      <trkpt lat="45.73735" lon="5.70542">
        <ele>309.20001220703</ele>
        <time>2012-05-13T08:06:37Z</time>
      </trkpt>
      <trkpt lat="45.7374" lon="5.7053">
        <ele>307.5</ele>
        <time>2012-05-13T08:06:43Z</time>
      </trkpt>
      <trkpt lat="45.73744" lon="5.70518">
        <ele>308.09997558594</ele>
        <time>2012-05-13T08:06:50Z</time>
      </trkpt>
      <trkpt lat="45.73749" lon="5.70505">
        <ele>307.5</ele>
        <time>2012-05-13T08:06:57Z</time>
      </trkpt>
      <trkpt lat="45.73753" lon="5.70493">
        <ele>307.59997558594</ele>
        <time>2012-05-13T08:07:04Z</time>
      </trkpt>
      <trkpt lat="45.73757" lon="5.70481">
        <ele>308.20001220703</ele>
        <time>2012-05-13T08:07:11Z</time>
      </trkpt>
      <trkpt lat="45.73762" lon="5.70469">
        <ele>307.5</ele>
        <time>2012-05-13T08:07:18Z</time>
      </trkpt>
      <trkpt lat="45.73766" lon="5.70458">
        <ele>307.5</ele>
        <time>2012-05-13T08:07:25Z</time>
      </trkpt>
      <trkpt lat="45.7377" lon="5.70446">
        <ele>306.79998779297</ele>
        <time>2012-05-13T08:07:32Z</time>
      </trkpt>
      <trkpt lat="45.73775" lon="5.70434">
        <ele>306.70001220703</ele>
        <time>2012-05-13T08:07:39Z</time>
      </trkpt>
      <trkpt lat="45.73779" lon="5.70421">
        <ele>306.59997558594</ele>
        <time>2012-05-13T08:07:47Z</time>
      </trkpt>
      <trkpt lat="45.73784" lon="5.7041">
        <ele>306</ele>
        <time>2012-05-13T08:07:54Z</time>
      </trkpt>
      <trkpt lat="45.73788" lon="5.70399">
        <ele>306.09997558594</ele>
        <time>2012-05-13T08:08:01Z</time>
      </trkpt>
      <trkpt lat="45.73793" lon="5.70386">
        <ele>306</ele>
        <time>2012-05-13T08:08:09Z</time>
      </trkpt>
      <trkpt lat="45.73797" lon="5.70374">
        <ele>305.79998779297</ele>
        <time>2012-05-13T08:08:16Z</time>
      </trkpt>
      <trkpt lat="45.73802" lon="5.70363">
        <ele>305.40002441406</ele>
        <time>2012-05-13T08:08:23Z</time>
      </trkpt>
      <trkpt lat="45.73809" lon="5.70354">
        <ele>305.20001220703</ele>
        <time>2012-05-13T08:08:30Z</time>
      </trkpt>
      <trkpt lat="45.73816" lon="5.70345">
        <ele>304.90002441406</ele>
        <time>2012-05-13T08:08:37Z</time>
      </trkpt>
      <trkpt lat="45.73807" lon="5.70346">
        <ele>300.90002441406</ele>
        <time>2012-05-13T08:09:01Z</time>
      </trkpt>
      <trkpt lat="45.73799" lon="5.70354">
        <ele>300.09997558594</ele>
        <time>2012-05-13T08:09:09Z</time>
      </trkpt>
      <trkpt lat="45.73793" lon="5.70364">
        <ele>298.70001220703</ele>
        <time>2012-05-13T08:09:18Z</time>
      </trkpt>
      <trkpt lat="45.73785" lon="5.70375">
        <ele>296.79998779297</ele>
        <time>2012-05-13T08:09:47Z</time>
      </trkpt>
      <trkpt lat="45.73779" lon="5.70385">
        <ele>296.59997558594</ele>
        <time>2012-05-13T08:09:51Z</time>
      </trkpt>
      <trkpt lat="45.73772" lon="5.70395">
        <ele>296.29998779297</ele>
        <time>2012-05-13T08:09:55Z</time>
      </trkpt>
      <trkpt lat="45.73767" lon="5.70406">
        <ele>295.70001220703</ele>
        <time>2012-05-13T08:10:01Z</time>
      </trkpt>
      <trkpt lat="45.73764" lon="5.7042">
        <ele>295.40002441406</ele>
        <time>2012-05-13T08:10:09Z</time>
      </trkpt>
      <trkpt lat="45.73769" lon="5.70431">
        <ele>296.20001220703</ele>
        <time>2012-05-13T08:10:17Z</time>
      </trkpt>
      <trkpt lat="45.73778" lon="5.70437">
        <ele>296.40002441406</ele>
        <time>2012-05-13T08:10:25Z</time>
      </trkpt>
      <trkpt lat="45.73788" lon="5.70439">
        <ele>297.09997558594</ele>
        <time>2012-05-13T08:10:35Z</time>
      </trkpt>
      <trkpt lat="45.73796" lon="5.70429">
        <ele>298</ele>
        <time>2012-05-13T08:10:49Z</time>
      </trkpt>
      <trkpt lat="45.73802" lon="5.70418">
        <ele>296.70001220703</ele>
        <time>2012-05-13T08:10:58Z</time>
      </trkpt>
      <trkpt lat="45.73808" lon="5.70407">
        <ele>295.09997558594</ele>
        <time>2012-05-13T08:11:07Z</time>
      </trkpt>
      <trkpt lat="45.73814" lon="5.70397">
        <ele>294.40002441406</ele>
        <time>2012-05-13T08:11:15Z</time>
      </trkpt>
      <trkpt lat="45.73821" lon="5.70387">
        <ele>293.59997558594</ele>
        <time>2012-05-13T08:11:22Z</time>
      </trkpt>
      <trkpt lat="45.73829" lon="5.70381">
        <ele>293</ele>
        <time>2012-05-13T08:11:28Z</time>
      </trkpt>
      <trkpt lat="45.73839" lon="5.70384">
        <ele>293.40002441406</ele>
        <time>2012-05-13T08:11:32Z</time>
      </trkpt>
      <trkpt lat="45.7385" lon="5.70392">
        <ele>293.90002441406</ele>
        <time>2012-05-13T08:11:35Z</time>
      </trkpt>
      <trkpt lat="45.73859" lon="5.70399">
        <ele>293.79998779297</ele>
        <time>2012-05-13T08:11:37Z</time>
      </trkpt>
      <trkpt lat="45.73871" lon="5.70406">
        <ele>292.90002441406</ele>
        <time>2012-05-13T08:11:40Z</time>
      </trkpt>
      <trkpt lat="45.73881" lon="5.7041">
        <ele>293.09997558594</ele>
        <time>2012-05-13T08:11:43Z</time>
      </trkpt>
      <trkpt lat="45.7389" lon="5.70415">
        <ele>293.59997558594</ele>
        <time>2012-05-13T08:11:51Z</time>
      </trkpt>
      <trkpt lat="45.739" lon="5.70416">
        <ele>293.5</ele>
        <time>2012-05-13T08:11:59Z</time>
      </trkpt>
      <trkpt lat="45.73909" lon="5.70413">
        <ele>294.09997558594</ele>
        <time>2012-05-13T08:12:06Z</time>
      </trkpt>
      <trkpt lat="45.73918" lon="5.70409">
        <ele>293.40002441406</ele>
        <time>2012-05-13T08:12:13Z</time>
      </trkpt>
      <trkpt lat="45.73927" lon="5.70407">
        <ele>291.29998779297</ele>
        <time>2012-05-13T08:12:19Z</time>
      </trkpt>
      <trkpt lat="45.73936" lon="5.70407">
        <ele>290.20001220703</ele>
        <time>2012-05-13T08:12:25Z</time>
      </trkpt>
      <trkpt lat="45.73946" lon="5.70403">
        <ele>289.59997558594</ele>
        <time>2012-05-13T08:12:32Z</time>
      </trkpt>
      <trkpt lat="45.73954" lon="5.70396">
        <ele>289.20001220703</ele>
        <time>2012-05-13T08:12:39Z</time>
      </trkpt>
      <trkpt lat="45.73961" lon="5.70387">
        <ele>288.59997558594</ele>
        <time>2012-05-13T08:12:44Z</time>
      </trkpt>
      <trkpt lat="45.7397" lon="5.70377">
        <ele>288.59997558594</ele>
        <time>2012-05-13T08:12:48Z</time>
      </trkpt>
      <trkpt lat="45.73978" lon="5.70369">
        <ele>289.29998779297</ele>
        <time>2012-05-13T08:12:55Z</time>
      </trkpt>
      <trkpt lat="45.73987" lon="5.70362">
        <ele>289.90002441406</ele>
        <time>2012-05-13T08:13:03Z</time>
      </trkpt>
      <trkpt lat="45.73996" lon="5.70354">
        <ele>289.70001220703</ele>
        <time>2012-05-13T08:13:10Z</time>
      </trkpt>
      <trkpt lat="45.74004" lon="5.70348">
        <ele>290.09997558594</ele>
        <time>2012-05-13T08:13:17Z</time>
      </trkpt>
      <trkpt lat="45.74012" lon="5.70341">
        <ele>290.70001220703</ele>
        <time>2012-05-13T08:13:24Z</time>
      </trkpt>
      <trkpt lat="45.7402" lon="5.70333">
        <ele>290</ele>
        <time>2012-05-13T08:13:30Z</time>
      </trkpt>
      <trkpt lat="45.7403" lon="5.70325">
        <ele>289.79998779297</ele>
        <time>2012-05-13T08:13:37Z</time>
      </trkpt>
      <trkpt lat="45.74037" lon="5.70316">
        <ele>291.29998779297</ele>
        <time>2012-05-13T08:13:48Z</time>
      </trkpt>
      <trkpt lat="45.74038" lon="5.70303">
        <ele>290.29998779297</ele>
        <time>2012-05-13T08:14:00Z</time>
      </trkpt>
      <trkpt lat="45.74042" lon="5.70292">
        <ele>290</ele>
        <time>2012-05-13T08:14:09Z</time>
      </trkpt>
      <trkpt lat="45.7405" lon="5.70285">
        <ele>289.29998779297</ele>
        <time>2012-05-13T08:14:15Z</time>
      </trkpt>
      <trkpt lat="45.74059" lon="5.70279">
        <ele>290.5</ele>
        <time>2012-05-13T08:14:22Z</time>
      </trkpt>
      <trkpt lat="45.74068" lon="5.70272">
        <ele>291.90002441406</ele>
        <time>2012-05-13T08:14:28Z</time>
      </trkpt>
      <trkpt lat="45.74077" lon="5.70266">
        <ele>292</ele>
        <time>2012-05-13T08:14:31Z</time>
      </trkpt>
      <trkpt lat="45.7409" lon="5.70259">
        <ele>292.5</ele>
        <time>2012-05-13T08:14:34Z</time>
      </trkpt>
      <trkpt lat="45.74099" lon="5.70255">
        <ele>292.59997558594</ele>
        <time>2012-05-13T08:14:36Z</time>
      </trkpt>
      <trkpt lat="45.74118" lon="5.70246">
        <ele>292</ele>
        <time>2012-05-13T08:14:40Z</time>
      </trkpt>
      <trkpt lat="45.74128" lon="5.70242">
        <ele>291.20001220703</ele>
        <time>2012-05-13T08:14:42Z</time>
      </trkpt>
      <trkpt lat="45.74138" lon="5.70239">
        <ele>290.79998779297</ele>
        <time>2012-05-13T08:14:44Z</time>
      </trkpt>
      <trkpt lat="45.74158" lon="5.70235">
        <ele>290.20001220703</ele>
        <time>2012-05-13T08:14:48Z</time>
      </trkpt>
      <trkpt lat="45.74168" lon="5.70235">
        <ele>290.09997558594</ele>
        <time>2012-05-13T08:14:50Z</time>
      </trkpt>
      <trkpt lat="45.74178" lon="5.70233">
        <ele>289.59997558594</ele>
        <time>2012-05-13T08:14:52Z</time>
      </trkpt>
      <trkpt lat="45.74188" lon="5.70232">
        <ele>289.90002441406</ele>
        <time>2012-05-13T08:14:54Z</time>
      </trkpt>
      <trkpt lat="45.74198" lon="5.70231">
        <ele>289.70001220703</ele>
        <time>2012-05-13T08:14:56Z</time>
      </trkpt>
      <trkpt lat="45.74207" lon="5.70231">
        <ele>289.79998779297</ele>
        <time>2012-05-13T08:14:58Z</time>
      </trkpt>
      <trkpt lat="45.74217" lon="5.70232">
        <ele>289.70001220703</ele>
        <time>2012-05-13T08:15:01Z</time>
      </trkpt>
      <trkpt lat="45.74226" lon="5.70233">
        <ele>290.90002441406</ele>
        <time>2012-05-13T08:15:09Z</time>
      </trkpt>
      <trkpt lat="45.74235" lon="5.70233">
        <ele>291.70001220703</ele>
        <time>2012-05-13T08:15:16Z</time>
      </trkpt>
      <trkpt lat="45.74246" lon="5.70233">
        <ele>292</ele>
        <time>2012-05-13T08:15:24Z</time>
      </trkpt>
      <trkpt lat="45.74255" lon="5.70233">
        <ele>292.5</ele>
        <time>2012-05-13T08:15:32Z</time>
      </trkpt>
      <trkpt lat="45.74265" lon="5.70234">
        <ele>293</ele>
        <time>2012-05-13T08:15:39Z</time>
      </trkpt>
      <trkpt lat="45.74274" lon="5.70235">
        <ele>291.90002441406</ele>
        <time>2012-05-13T08:15:45Z</time>
      </trkpt>
      <trkpt lat="45.74284" lon="5.70236">
        <ele>291.90002441406</ele>
        <time>2012-05-13T08:15:51Z</time>
      </trkpt>
      <trkpt lat="45.74293" lon="5.70237">
        <ele>292.09997558594</ele>
        <time>2012-05-13T08:15:57Z</time>
      </trkpt>
      <trkpt lat="45.74303" lon="5.7024">
        <ele>292</ele>
        <time>2012-05-13T08:16:03Z</time>
      </trkpt>
      <trkpt lat="45.74312" lon="5.7024">
        <ele>293</ele>
        <time>2012-05-13T08:16:10Z</time>
      </trkpt>
      <trkpt lat="45.74322" lon="5.70241">
        <ele>293.29998779297</ele>
        <time>2012-05-13T08:16:17Z</time>
      </trkpt>
      <trkpt lat="45.74333" lon="5.70241">
        <ele>292.70001220703</ele>
        <time>2012-05-13T08:16:24Z</time>
      </trkpt>
      <trkpt lat="45.74342" lon="5.70241">
        <ele>293.29998779297</ele>
        <time>2012-05-13T08:16:31Z</time>
      </trkpt>
      <trkpt lat="45.74352" lon="5.70242">
        <ele>293.29998779297</ele>
        <time>2012-05-13T08:16:37Z</time>
      </trkpt>
      <trkpt lat="45.74362" lon="5.70242">
        <ele>293.40002441406</ele>
        <time>2012-05-13T08:16:44Z</time>
      </trkpt>
      <trkpt lat="45.74371" lon="5.70244">
        <ele>293.79998779297</ele>
        <time>2012-05-13T08:16:50Z</time>
      </trkpt>
      <trkpt lat="45.74381" lon="5.70246">
        <ele>293.20001220703</ele>
        <time>2012-05-13T08:16:56Z</time>
      </trkpt>
      <trkpt lat="45.74391" lon="5.70246">
        <ele>293.59997558594</ele>
        <time>2012-05-13T08:17:03Z</time>
      </trkpt>
      <trkpt lat="45.74401" lon="5.70246">
        <ele>293.79998779297</ele>
        <time>2012-05-13T08:17:10Z</time>
      </trkpt>
      <trkpt lat="45.7441" lon="5.70247">
        <ele>293.90002441406</ele>
        <time>2012-05-13T08:17:16Z</time>
      </trkpt>
      <trkpt lat="45.7442" lon="5.70248">
        <ele>293.40002441406</ele>
        <time>2012-05-13T08:17:23Z</time>
      </trkpt>
      <trkpt lat="45.7443" lon="5.70252">
        <ele>293.90002441406</ele>
        <time>2012-05-13T08:17:30Z</time>
      </trkpt>
      <trkpt lat="45.74437" lon="5.70261">
        <ele>293</ele>
        <time>2012-05-13T08:17:36Z</time>
      </trkpt>
      <trkpt lat="45.74445" lon="5.70269">
        <ele>291.90002441406</ele>
        <time>2012-05-13T08:17:41Z</time>
      </trkpt>
      <trkpt lat="45.74456" lon="5.70272">
        <ele>292.09997558594</ele>
        <time>2012-05-13T08:17:44Z</time>
      </trkpt>
      <trkpt lat="45.74466" lon="5.70272">
        <ele>292.70001220703</ele>
        <time>2012-05-13T08:17:48Z</time>
      </trkpt>
      <trkpt lat="45.74475" lon="5.70272">
        <ele>292.40002441406</ele>
        <time>2012-05-13T08:17:54Z</time>
      </trkpt>
      <trkpt lat="45.74484" lon="5.70274">
        <ele>292.20001220703</ele>
        <time>2012-05-13T08:18:00Z</time>
      </trkpt>
      <trkpt lat="45.74493" lon="5.70279">
        <ele>290.90002441406</ele>
        <time>2012-05-13T08:18:06Z</time>
      </trkpt>
      <trkpt lat="45.74502" lon="5.70281">
        <ele>290.70001220703</ele>
        <time>2012-05-13T08:18:13Z</time>
      </trkpt>
      <trkpt lat="45.74512" lon="5.70281">
        <ele>291.09997558594</ele>
        <time>2012-05-13T08:18:20Z</time>
      </trkpt>
      <trkpt lat="45.74532" lon="5.70283">
        <ele>293.5</ele>
        <time>2012-05-13T08:18:35Z</time>
      </trkpt>
      <trkpt lat="45.74552" lon="5.7028">
        <ele>291.20001220703</ele>
        <time>2012-05-13T08:18:49Z</time>
      </trkpt>
      <trkpt lat="45.74561" lon="5.70275">
        <ele>290.40002441406</ele>
        <time>2012-05-13T08:18:53Z</time>
      </trkpt>
      <trkpt lat="45.74571" lon="5.70275">
        <ele>291.79998779297</ele>
        <time>2012-05-13T08:18:58Z</time>
      </trkpt>
      <trkpt lat="45.74582" lon="5.70275">
        <ele>292.29998779297</ele>
        <time>2012-05-13T08:19:05Z</time>
      </trkpt>
      <trkpt lat="45.74592" lon="5.70274">
        <ele>293.90002441406</ele>
        <time>2012-05-13T08:19:12Z</time>
      </trkpt>
      <trkpt lat="45.74602" lon="5.70271">
        <ele>295</ele>
        <time>2012-05-13T08:19:19Z</time>
      </trkpt>
      <trkpt lat="45.74611" lon="5.7027">
        <ele>294.90002441406</ele>
        <time>2012-05-13T08:19:25Z</time>
      </trkpt>
      <trkpt lat="45.7462" lon="5.70268">
        <ele>295.40002441406</ele>
        <time>2012-05-13T08:19:31Z</time>
      </trkpt>
      <trkpt lat="45.7463" lon="5.70265">
        <ele>296.29998779297</ele>
        <time>2012-05-13T08:19:38Z</time>
      </trkpt>
      <trkpt lat="45.74638" lon="5.70259">
        <ele>297.70001220703</ele>
        <time>2012-05-13T08:19:45Z</time>
      </trkpt>
      <trkpt lat="45.74648" lon="5.70255">
        <ele>298.79998779297</ele>
        <time>2012-05-13T08:19:52Z</time>
      </trkpt>
      <trkpt lat="45.74657" lon="5.70249">
        <ele>299.40002441406</ele>
        <time>2012-05-13T08:19:59Z</time>
      </trkpt>
      <trkpt lat="45.74667" lon="5.70242">
        <ele>299.09997558594</ele>
        <time>2012-05-13T08:20:05Z</time>
      </trkpt>
      <trkpt lat="45.74677" lon="5.70236">
        <ele>299.59997558594</ele>
        <time>2012-05-13T08:20:10Z</time>
      </trkpt>
      <trkpt lat="45.74685" lon="5.70229">
        <ele>300.20001220703</ele>
        <time>2012-05-13T08:20:16Z</time>
      </trkpt>
      <trkpt lat="45.74694" lon="5.70224">
        <ele>298.09997558594</ele>
        <time>2012-05-13T08:20:23Z</time>
      </trkpt>
      <trkpt lat="45.74703" lon="5.70221">
        <ele>296.70001220703</ele>
        <time>2012-05-13T08:20:30Z</time>
      </trkpt>
      <trkpt lat="45.74711" lon="5.70214">
        <ele>295.5</ele>
        <time>2012-05-13T08:20:37Z</time>
      </trkpt>
      <trkpt lat="45.74719" lon="5.70205">
        <ele>294.79998779297</ele>
        <time>2012-05-13T08:20:43Z</time>
      </trkpt>
      <trkpt lat="45.74727" lon="5.70197">
        <ele>293.5</ele>
        <time>2012-05-13T08:20:49Z</time>
      </trkpt>
      <trkpt lat="45.74735" lon="5.70189">
        <ele>293.20001220703</ele>
        <time>2012-05-13T08:20:57Z</time>
      </trkpt>
      <trkpt lat="45.74742" lon="5.70178">
        <ele>293.29998779297</ele>
        <time>2012-05-13T08:21:05Z</time>
      </trkpt>
      <trkpt lat="45.7475" lon="5.7017">
        <ele>295.20001220703</ele>
        <time>2012-05-13T08:21:13Z</time>
      </trkpt>
      <trkpt lat="45.74759" lon="5.7016">
        <ele>294.09997558594</ele>
        <time>2012-05-13T08:21:17Z</time>
      </trkpt>
      <trkpt lat="45.74768" lon="5.70152">
        <ele>294.40002441406</ele>
        <time>2012-05-13T08:21:22Z</time>
      </trkpt>
      <trkpt lat="45.74778" lon="5.70149">
        <ele>293.59997558594</ele>
        <time>2012-05-13T08:21:28Z</time>
      </trkpt>
      <trkpt lat="45.74787" lon="5.70145">
        <ele>292.90002441406</ele>
        <time>2012-05-13T08:21:35Z</time>
      </trkpt>
      <trkpt lat="45.74796" lon="5.70141">
        <ele>293.29998779297</ele>
        <time>2012-05-13T08:21:42Z</time>
      </trkpt>
      <trkpt lat="45.74806" lon="5.70139">
        <ele>293</ele>
        <time>2012-05-13T08:21:48Z</time>
      </trkpt>
      <trkpt lat="45.74815" lon="5.70137">
        <ele>294</ele>
        <time>2012-05-13T08:21:55Z</time>
      </trkpt>
      <trkpt lat="45.74825" lon="5.70138">
        <ele>293.59997558594</ele>
        <time>2012-05-13T08:22:02Z</time>
      </trkpt>
      <trkpt lat="45.74835" lon="5.70142">
        <ele>293.5</ele>
        <time>2012-05-13T08:22:09Z</time>
      </trkpt>
      <trkpt lat="45.74844" lon="5.70148">
        <ele>294.20001220703</ele>
        <time>2012-05-13T08:22:15Z</time>
      </trkpt>
      <trkpt lat="45.74853" lon="5.70154">
        <ele>295.5</ele>
        <time>2012-05-13T08:22:22Z</time>
      </trkpt>
      <trkpt lat="45.74862" lon="5.70162">
        <ele>294.79998779297</ele>
        <time>2012-05-13T08:22:31Z</time>
      </trkpt>
      <trkpt lat="45.74871" lon="5.70172">
        <ele>296</ele>
        <time>2012-05-13T08:22:37Z</time>
      </trkpt>
      <trkpt lat="45.74879" lon="5.70182">
        <ele>295.29998779297</ele>
        <time>2012-05-13T08:22:42Z</time>
      </trkpt>
      <trkpt lat="45.74886" lon="5.70191">
        <ele>296.29998779297</ele>
        <time>2012-05-13T08:22:47Z</time>
      </trkpt>
      <trkpt lat="45.74893" lon="5.70201">
        <ele>297.29998779297</ele>
        <time>2012-05-13T08:22:53Z</time>
      </trkpt>
      <trkpt lat="45.749" lon="5.70212">
        <ele>297.59997558594</ele>
        <time>2012-05-13T08:22:59Z</time>
      </trkpt>
      <trkpt lat="45.74906" lon="5.70224">
        <ele>298.5</ele>
        <time>2012-05-13T08:23:05Z</time>
      </trkpt>
      <trkpt lat="45.7492" lon="5.70248">
        <ele>294.09997558594</ele>
        <time>2012-05-13T08:23:13Z</time>
      </trkpt>
      <trkpt lat="45.74927" lon="5.70261">
        <ele>292.20001220703</ele>
        <time>2012-05-13T08:23:17Z</time>
      </trkpt>
      <trkpt lat="45.74933" lon="5.70273">
        <ele>292.70001220703</ele>
        <time>2012-05-13T08:23:24Z</time>
      </trkpt>
      <trkpt lat="45.74939" lon="5.70285">
        <ele>293.90002441406</ele>
        <time>2012-05-13T08:23:32Z</time>
      </trkpt>
      <trkpt lat="45.74945" lon="5.70294">
        <ele>295.20001220703</ele>
        <time>2012-05-13T08:23:39Z</time>
      </trkpt>
      <trkpt lat="45.74953" lon="5.70303">
        <ele>295.79998779297</ele>
        <time>2012-05-13T08:23:47Z</time>
      </trkpt>
      <trkpt lat="45.74961" lon="5.70307">
        <ele>296.5</ele>
        <time>2012-05-13T08:23:55Z</time>
      </trkpt>
      <trkpt lat="45.74971" lon="5.7031">
        <ele>295.59997558594</ele>
        <time>2012-05-13T08:24:03Z</time>
      </trkpt>
      <trkpt lat="45.74981" lon="5.70313">
        <ele>295.29998779297</ele>
        <time>2012-05-13T08:24:10Z</time>
      </trkpt>
      <trkpt lat="45.74991" lon="5.70314">
        <ele>293.79998779297</ele>
        <time>2012-05-13T08:24:17Z</time>
      </trkpt>
      <trkpt lat="45.75001" lon="5.70316">
        <ele>292.09997558594</ele>
        <time>2012-05-13T08:24:24Z</time>
      </trkpt>
      <trkpt lat="45.75011" lon="5.70319">
        <ele>290.79998779297</ele>
        <time>2012-05-13T08:24:31Z</time>
      </trkpt>
      <trkpt lat="45.75022" lon="5.70319">
        <ele>291.5</ele>
        <time>2012-05-13T08:24:38Z</time>
      </trkpt>
      <trkpt lat="45.75031" lon="5.7032">
        <ele>291.90002441406</ele>
        <time>2012-05-13T08:24:44Z</time>
      </trkpt>
      <trkpt lat="45.7504" lon="5.70322">
        <ele>291.70001220703</ele>
        <time>2012-05-13T08:24:50Z</time>
      </trkpt>
      <trkpt lat="45.7505" lon="5.70325">
        <ele>291.40002441406</ele>
        <time>2012-05-13T08:24:56Z</time>
      </trkpt>
      <trkpt lat="45.7506" lon="5.70326">
        <ele>291.59997558594</ele>
        <time>2012-05-13T08:25:03Z</time>
      </trkpt>
      <trkpt lat="45.75071" lon="5.70327">
        <ele>291.5</ele>
        <time>2012-05-13T08:25:07Z</time>
      </trkpt>
      <trkpt lat="45.75093" lon="5.70328">
        <ele>290.70001220703</ele>
        <time>2012-05-13T08:25:13Z</time>
      </trkpt>
      <trkpt lat="45.75104" lon="5.70328">
        <ele>291.09997558594</ele>
        <time>2012-05-13T08:25:16Z</time>
      </trkpt>
      <trkpt lat="45.75117" lon="5.70331">
        <ele>291.20001220703</ele>
        <time>2012-05-13T08:25:19Z</time>
      </trkpt>
      <trkpt lat="45.75137" lon="5.70338">
        <ele>292</ele>
        <time>2012-05-13T08:25:25Z</time>
      </trkpt>
      <trkpt lat="45.75148" lon="5.70341">
        <ele>292.79998779297</ele>
        <time>2012-05-13T08:25:28Z</time>
      </trkpt>
      <trkpt lat="45.75159" lon="5.70345">
        <ele>293</ele>
        <time>2012-05-13T08:25:31Z</time>
      </trkpt>
      <trkpt lat="45.75177" lon="5.70351">
        <ele>293.90002441406</ele>
        <time>2012-05-13T08:25:37Z</time>
      </trkpt>
      <trkpt lat="45.75197" lon="5.7036">
        <ele>294.59997558594</ele>
        <time>2012-05-13T08:25:43Z</time>
      </trkpt>
      <trkpt lat="45.75219" lon="5.70368">
        <ele>295.70001220703</ele>
        <time>2012-05-13T08:25:49Z</time>
      </trkpt>
      <trkpt lat="45.7524" lon="5.70376">
        <ele>296.40002441406</ele>
        <time>2012-05-13T08:25:55Z</time>
      </trkpt>
      <trkpt lat="45.75258" lon="5.70388">
        <ele>297.70001220703</ele>
        <time>2012-05-13T08:26:01Z</time>
      </trkpt>
      <trkpt lat="45.75278" lon="5.704">
        <ele>297.59997558594</ele>
        <time>2012-05-13T08:26:07Z</time>
      </trkpt>
      <trkpt lat="45.753" lon="5.70417">
        <ele>295.29998779297</ele>
        <time>2012-05-13T08:26:13Z</time>
      </trkpt>
      <trkpt lat="45.75319" lon="5.70432">
        <ele>293.70001220703</ele>
        <time>2012-05-13T08:26:20Z</time>
      </trkpt>
      <trkpt lat="45.75335" lon="5.70446">
        <ele>294.20001220703</ele>
        <time>2012-05-13T08:26:34Z</time>
      </trkpt>
      <trkpt lat="45.75343" lon="5.70453">
        <ele>294.09997558594</ele>
        <time>2012-05-13T08:26:41Z</time>
      </trkpt>
      <trkpt lat="45.75349" lon="5.70463">
        <ele>292.90002441406</ele>
        <time>2012-05-13T08:26:48Z</time>
      </trkpt>
      <trkpt lat="45.75356" lon="5.70473">
        <ele>292.5</ele>
        <time>2012-05-13T08:26:57Z</time>
      </trkpt>
      <trkpt lat="45.75364" lon="5.70482">
        <ele>291.5</ele>
        <time>2012-05-13T08:27:04Z</time>
      </trkpt>
      <trkpt lat="45.75371" lon="5.70491">
        <ele>291.59997558594</ele>
        <time>2012-05-13T08:27:11Z</time>
      </trkpt>
      <trkpt lat="45.75379" lon="5.705">
        <ele>291.20001220703</ele>
        <time>2012-05-13T08:27:18Z</time>
      </trkpt>
      <trkpt lat="45.75395" lon="5.70509">
        <ele>291.79998779297</ele>
        <time>2012-05-13T08:27:37Z</time>
      </trkpt>
      <trkpt lat="45.75405" lon="5.70504">
        <ele>291.40002441406</ele>
        <time>2012-05-13T08:27:44Z</time>
      </trkpt>
      <trkpt lat="45.75414" lon="5.70497">
        <ele>291.79998779297</ele>
        <time>2012-05-13T08:27:51Z</time>
      </trkpt>
      <trkpt lat="45.75423" lon="5.70494">
        <ele>291</ele>
        <time>2012-05-13T08:27:57Z</time>
      </trkpt>
      <trkpt lat="45.75432" lon="5.70493">
        <ele>291.20001220703</ele>
        <time>2012-05-13T08:28:08Z</time>
      </trkpt>
      <trkpt lat="45.75442" lon="5.70493">
        <ele>290.90002441406</ele>
        <time>2012-05-13T08:28:15Z</time>
      </trkpt>
      <trkpt lat="45.75452" lon="5.70493">
        <ele>290.79998779297</ele>
        <time>2012-05-13T08:28:21Z</time>
      </trkpt>
      <trkpt lat="45.75463" lon="5.70493">
        <ele>290.5</ele>
        <time>2012-05-13T08:28:24Z</time>
      </trkpt>
      <trkpt lat="45.75472" lon="5.70493">
        <ele>290.40002441406</ele>
        <time>2012-05-13T08:28:26Z</time>
      </trkpt>
      <trkpt lat="45.75494" lon="5.70492">
        <ele>289.70001220703</ele>
        <time>2012-05-13T08:28:30Z</time>
      </trkpt>
      <trkpt lat="45.75515" lon="5.70491">
        <ele>289.40002441406</ele>
        <time>2012-05-13T08:28:34Z</time>
      </trkpt>
      <trkpt lat="45.75527" lon="5.7049">
        <ele>289.20001220703</ele>
        <time>2012-05-13T08:28:36Z</time>
      </trkpt>
      <trkpt lat="45.75538" lon="5.7049">
        <ele>288.70001220703</ele>
        <time>2012-05-13T08:28:38Z</time>
      </trkpt>
      <trkpt lat="45.75559" lon="5.7049">
        <ele>287.70001220703</ele>
        <time>2012-05-13T08:28:43Z</time>
      </trkpt>
      <trkpt lat="45.75577" lon="5.705">
        <ele>288</ele>
        <time>2012-05-13T08:29:05Z</time>
      </trkpt>
      <trkpt lat="45.75583" lon="5.70527">
        <ele>288.70001220703</ele>
        <time>2012-05-13T08:29:18Z</time>
      </trkpt>
      <trkpt lat="45.75587" lon="5.70554">
        <ele>289.09997558594</ele>
        <time>2012-05-13T08:29:31Z</time>
      </trkpt>
      <trkpt lat="45.75589" lon="5.70567">
        <ele>289.09997558594</ele>
        <time>2012-05-13T08:29:38Z</time>
      </trkpt>
      <trkpt lat="45.75592" lon="5.70581">
        <ele>289.5</ele>
        <time>2012-05-13T08:29:45Z</time>
      </trkpt>
      <trkpt lat="45.75596" lon="5.70594">
        <ele>290.29998779297</ele>
        <time>2012-05-13T08:29:52Z</time>
      </trkpt>
      <trkpt lat="45.75601" lon="5.70606">
        <ele>292.59997558594</ele>
        <time>2012-05-13T08:29:59Z</time>
      </trkpt>
      <trkpt lat="45.75607" lon="5.70633">
        <ele>297.09997558594</ele>
        <time>2012-05-13T08:30:15Z</time>
      </trkpt>
      <trkpt lat="45.75628" lon="5.7063">
        <ele>299.59997558594</ele>
        <time>2012-05-13T08:30:33Z</time>
      </trkpt>
      <trkpt lat="45.75647" lon="5.70633">
        <ele>296.29998779297</ele>
        <time>2012-05-13T08:30:48Z</time>
      </trkpt>
      <trkpt lat="45.75656" lon="5.70634">
        <ele>296</ele>
        <time>2012-05-13T08:30:55Z</time>
      </trkpt>
      <trkpt lat="45.75666" lon="5.70629">
        <ele>295.70001220703</ele>
        <time>2012-05-13T08:31:02Z</time>
      </trkpt>
      <trkpt lat="45.75675" lon="5.70623">
        <ele>296.09997558594</ele>
        <time>2012-05-13T08:31:09Z</time>
      </trkpt>
      <trkpt lat="45.75695" lon="5.70627">
        <ele>298.09997558594</ele>
        <time>2012-05-13T08:31:25Z</time>
      </trkpt>
      <trkpt lat="45.75711" lon="5.70641">
        <ele>296.29998779297</ele>
        <time>2012-05-13T08:32:19Z</time>
      </trkpt>
      <trkpt lat="45.75729" lon="5.70632">
        <ele>290.40002441406</ele>
        <time>2012-05-13T08:33:52Z</time>
      </trkpt>
      <trkpt lat="45.75749" lon="5.70639">
        <ele>289.59997558594</ele>
        <time>2012-05-13T08:34:04Z</time>
      </trkpt>
      <trkpt lat="45.75756" lon="5.70631">
        <ele>289.79998779297</ele>
        <time>2012-05-13T08:34:13Z</time>
      </trkpt>
      <trkpt lat="45.75756" lon="5.70663">
        <ele>279.20001220703</ele>
        <time>2012-05-13T08:37:44Z</time>
      </trkpt>
      <trkpt lat="45.75738" lon="5.70647">
        <ele>286.70001220703</ele>
        <time>2012-05-13T08:38:02Z</time>
      </trkpt>
      <trkpt lat="45.7573" lon="5.70642">
        <ele>287.5</ele>
        <time>2012-05-13T08:38:09Z</time>
      </trkpt>
      <trkpt lat="45.7572" lon="5.7064">
        <ele>287.29998779297</ele>
        <time>2012-05-13T08:38:17Z</time>
      </trkpt>
      <trkpt lat="45.75728" lon="5.70617">
        <ele>286.79998779297</ele>
        <time>2012-05-13T08:43:23Z</time>
      </trkpt>
      <trkpt lat="45.7572" lon="5.70624">
        <ele>286.70001220703</ele>
        <time>2012-05-13T08:43:37Z</time>
      </trkpt>
      <trkpt lat="45.7572" lon="5.70652">
        <ele>288.29998779297</ele>
        <time>2012-05-13T08:44:15Z</time>
      </trkpt>
      <trkpt lat="45.75736" lon="5.70667">
        <ele>290.09997558594</ele>
        <time>2012-05-13T08:44:30Z</time>
      </trkpt>
      <trkpt lat="45.75746" lon="5.70665">
        <ele>291.90002441406</ele>
        <time>2012-05-13T08:44:37Z</time>
      </trkpt>
      <trkpt lat="45.75755" lon="5.70665">
        <ele>292.40002441406</ele>
        <time>2012-05-13T08:44:43Z</time>
      </trkpt>
      <trkpt lat="45.75765" lon="5.70668">
        <ele>292.79998779297</ele>
        <time>2012-05-13T08:44:50Z</time>
      </trkpt>
      <trkpt lat="45.75774" lon="5.70667">
        <ele>292.70001220703</ele>
        <time>2012-05-13T08:44:56Z</time>
      </trkpt>
      <trkpt lat="45.75779" lon="5.70677">
        <ele>290.5</ele>
        <time>2012-05-13T08:45:02Z</time>
      </trkpt>
      <trkpt lat="45.75779" lon="5.70705">
        <ele>290.59997558594</ele>
        <time>2012-05-13T08:45:31Z</time>
      </trkpt>
      <trkpt lat="45.75789" lon="5.70708">
        <ele>293</ele>
        <time>2012-05-13T08:45:42Z</time>
      </trkpt>
      <trkpt lat="45.75799" lon="5.70707">
        <ele>294.20001220703</ele>
        <time>2012-05-13T08:45:50Z</time>
      </trkpt>
      <trkpt lat="45.75808" lon="5.70709">
        <ele>295.40002441406</ele>
        <time>2012-05-13T08:45:57Z</time>
      </trkpt>
      <trkpt lat="45.75816" lon="5.70712">
        <ele>296.09997558594</ele>
        <time>2012-05-13T08:46:04Z</time>
      </trkpt>
      <trkpt lat="45.75826" lon="5.70716">
        <ele>294.90002441406</ele>
        <time>2012-05-13T08:46:11Z</time>
      </trkpt>
      <trkpt lat="45.75835" lon="5.70713">
        <ele>294</ele>
        <time>2012-05-13T08:46:20Z</time>
      </trkpt>
      <trkpt lat="45.75837" lon="5.70699">
        <ele>294</ele>
        <time>2012-05-13T08:46:28Z</time>
      </trkpt>
      <trkpt lat="45.75838" lon="5.70685">
        <ele>295.20001220703</ele>
        <time>2012-05-13T08:46:36Z</time>
      </trkpt>
      <trkpt lat="45.7584" lon="5.70659">
        <ele>295.29998779297</ele>
        <time>2012-05-13T08:46:50Z</time>
      </trkpt>
      <trkpt lat="45.75841" lon="5.70645">
        <ele>294.09997558594</ele>
        <time>2012-05-13T08:46:58Z</time>
      </trkpt>
      <trkpt lat="45.75849" lon="5.70621">
        <ele>294.09997558594</ele>
        <time>2012-05-13T08:47:12Z</time>
      </trkpt>
      <trkpt lat="45.75859" lon="5.70618">
        <ele>294.70001220703</ele>
        <time>2012-05-13T08:47:19Z</time>
      </trkpt>
      <trkpt lat="45.75869" lon="5.70615">
        <ele>295.79998779297</ele>
        <time>2012-05-13T08:47:26Z</time>
      </trkpt>
      <trkpt lat="45.75878" lon="5.70612">
        <ele>296.90002441406</ele>
        <time>2012-05-13T08:47:33Z</time>
      </trkpt>
      <trkpt lat="45.75888" lon="5.70608">
        <ele>295.20001220703</ele>
        <time>2012-05-13T08:47:40Z</time>
      </trkpt>
      <trkpt lat="45.75895" lon="5.70599">
        <ele>294.20001220703</ele>
        <time>2012-05-13T08:47:47Z</time>
      </trkpt>
      <trkpt lat="45.75901" lon="5.70588">
        <ele>294.29998779297</ele>
        <time>2012-05-13T08:47:54Z</time>
      </trkpt>
      <trkpt lat="45.75908" lon="5.7058">
        <ele>293.29998779297</ele>
        <time>2012-05-13T08:48:01Z</time>
      </trkpt>
      <trkpt lat="45.75922" lon="5.70558">
        <ele>292.70001220703</ele>
        <time>2012-05-13T08:48:23Z</time>
      </trkpt>
      <trkpt lat="45.75929" lon="5.70547">
        <ele>292.79998779297</ele>
        <time>2012-05-13T08:48:30Z</time>
      </trkpt>
      <trkpt lat="45.75935" lon="5.70536">
        <ele>293.59997558594</ele>
        <time>2012-05-13T08:48:38Z</time>
      </trkpt>
      <trkpt lat="45.75943" lon="5.7053">
        <ele>293.59997558594</ele>
        <time>2012-05-13T08:48:45Z</time>
      </trkpt>
      <trkpt lat="45.75951" lon="5.70522">
        <ele>291.70001220703</ele>
        <time>2012-05-13T08:48:52Z</time>
      </trkpt>
      <trkpt lat="45.75958" lon="5.70512">
        <ele>291.70001220703</ele>
        <time>2012-05-13T08:48:59Z</time>
      </trkpt>
      <trkpt lat="45.75966" lon="5.70504">
        <ele>291.5</ele>
        <time>2012-05-13T08:49:06Z</time>
      </trkpt>
      <trkpt lat="45.75975" lon="5.70497">
        <ele>291</ele>
        <time>2012-05-13T08:49:13Z</time>
      </trkpt>
      <trkpt lat="45.75984" lon="5.7049">
        <ele>291.59997558594</ele>
        <time>2012-05-13T08:49:20Z</time>
      </trkpt>
      <trkpt lat="45.75991" lon="5.70482">
        <ele>292</ele>
        <time>2012-05-13T08:49:27Z</time>
      </trkpt>
      <trkpt lat="45.75996" lon="5.70471">
        <ele>292.59997558594</ele>
        <time>2012-05-13T08:49:34Z</time>
      </trkpt>
      <trkpt lat="45.76" lon="5.70459">
        <ele>291.70001220703</ele>
        <time>2012-05-13T08:49:41Z</time>
      </trkpt>
      <trkpt lat="45.76008" lon="5.7045">
        <ele>291.70001220703</ele>
        <time>2012-05-13T08:49:49Z</time>
      </trkpt>
      <trkpt lat="45.76017" lon="5.70444">
        <ele>292</ele>
        <time>2012-05-13T08:50:01Z</time>
      </trkpt>
      <trkpt lat="45.76026" lon="5.70439">
        <ele>292</ele>
        <time>2012-05-13T08:50:08Z</time>
      </trkpt>
      <trkpt lat="45.76035" lon="5.70432">
        <ele>292.5</ele>
        <time>2012-05-13T08:50:15Z</time>
      </trkpt>
      <trkpt lat="45.76043" lon="5.70427">
        <ele>293</ele>
        <time>2012-05-13T08:50:22Z</time>
      </trkpt>
      <trkpt lat="45.76052" lon="5.70421">
        <ele>293.79998779297</ele>
        <time>2012-05-13T08:50:39Z</time>
      </trkpt>
      <trkpt lat="45.76061" lon="5.70415">
        <ele>293.5</ele>
        <time>2012-05-13T08:50:47Z</time>
      </trkpt>
      <trkpt lat="45.7607" lon="5.70412">
        <ele>292.59997558594</ele>
        <time>2012-05-13T08:50:53Z</time>
      </trkpt>
      <trkpt lat="45.76079" lon="5.70407">
        <ele>292.79998779297</ele>
        <time>2012-05-13T08:50:59Z</time>
      </trkpt>
      <trkpt lat="45.76087" lon="5.70401">
        <ele>293.70001220703</ele>
        <time>2012-05-13T08:51:06Z</time>
      </trkpt>
      <trkpt lat="45.76097" lon="5.70397">
        <ele>294.40002441406</ele>
        <time>2012-05-13T08:51:14Z</time>
      </trkpt>
      <trkpt lat="45.76106" lon="5.7039">
        <ele>293.29998779297</ele>
        <time>2012-05-13T08:51:20Z</time>
      </trkpt>
      <trkpt lat="45.76114" lon="5.70386">
        <ele>293.90002441406</ele>
        <time>2012-05-13T08:51:27Z</time>
      </trkpt>
      <trkpt lat="45.76125" lon="5.70382">
        <ele>294</ele>
        <time>2012-05-13T08:51:34Z</time>
      </trkpt>
      <trkpt lat="45.76134" lon="5.7038">
        <ele>294.20001220703</ele>
        <time>2012-05-13T08:51:40Z</time>
      </trkpt>
      <trkpt lat="45.76145" lon="5.70382">
        <ele>293.09997558594</ele>
        <time>2012-05-13T08:51:51Z</time>
      </trkpt>
      <trkpt lat="45.76154" lon="5.70379">
        <ele>293.09997558594</ele>
        <time>2012-05-13T08:51:55Z</time>
      </trkpt>
      <trkpt lat="45.76165" lon="5.70377">
        <ele>291.79998779297</ele>
        <time>2012-05-13T08:52:03Z</time>
      </trkpt>
      <trkpt lat="45.76175" lon="5.70377">
        <ele>292.5</ele>
        <time>2012-05-13T08:52:10Z</time>
      </trkpt>
      <trkpt lat="45.76185" lon="5.70377">
        <ele>292.70001220703</ele>
        <time>2012-05-13T08:52:17Z</time>
      </trkpt>
      <trkpt lat="45.76195" lon="5.70378">
        <ele>292.59997558594</ele>
        <time>2012-05-13T08:52:24Z</time>
      </trkpt>
      <trkpt lat="45.76205" lon="5.70378">
        <ele>292.40002441406</ele>
        <time>2012-05-13T08:52:31Z</time>
      </trkpt>
      <trkpt lat="45.76214" lon="5.70379">
        <ele>292.20001220703</ele>
        <time>2012-05-13T08:52:37Z</time>
      </trkpt>
      <trkpt lat="45.76223" lon="5.70379">
        <ele>291.90002441406</ele>
        <time>2012-05-13T08:52:43Z</time>
      </trkpt>
      <trkpt lat="45.76232" lon="5.70384">
        <ele>291.20001220703</ele>
        <time>2012-05-13T08:52:49Z</time>
      </trkpt>
      <trkpt lat="45.76241" lon="5.70387">
        <ele>291.79998779297</ele>
        <time>2012-05-13T08:52:56Z</time>
      </trkpt>
      <trkpt lat="45.76251" lon="5.70388">
        <ele>292.29998779297</ele>
        <time>2012-05-13T08:53:03Z</time>
      </trkpt>
      <trkpt lat="45.7626" lon="5.70391">
        <ele>292.5</ele>
        <time>2012-05-13T08:53:11Z</time>
      </trkpt>
      <trkpt lat="45.76271" lon="5.70392">
        <ele>292.70001220703</ele>
        <time>2012-05-13T08:53:16Z</time>
      </trkpt>
      <trkpt lat="45.76282" lon="5.70396">
        <ele>292.59997558594</ele>
        <time>2012-05-13T08:53:20Z</time>
      </trkpt>
      <trkpt lat="45.763" lon="5.70404">
        <ele>293</ele>
        <time>2012-05-13T08:53:26Z</time>
      </trkpt>
      <trkpt lat="45.7632" lon="5.70418">
        <ele>292.59997558594</ele>
        <time>2012-05-13T08:53:32Z</time>
      </trkpt>
      <trkpt lat="45.76329" lon="5.70423">
        <ele>292.59997558594</ele>
        <time>2012-05-13T08:53:35Z</time>
      </trkpt>
      <trkpt lat="45.76348" lon="5.70437">
        <ele>291.70001220703</ele>
        <time>2012-05-13T08:53:42Z</time>
      </trkpt>
      <trkpt lat="45.76367" lon="5.70453">
        <ele>291.20001220703</ele>
        <time>2012-05-13T08:53:48Z</time>
      </trkpt>
      <trkpt lat="45.76387" lon="5.70468">
        <ele>289.90002441406</ele>
        <time>2012-05-13T08:53:54Z</time>
      </trkpt>
      <trkpt lat="45.76406" lon="5.70479">
        <ele>289.40002441406</ele>
        <time>2012-05-13T08:54:00Z</time>
      </trkpt>
      <trkpt lat="45.76426" lon="5.70493">
        <ele>289.70001220703</ele>
        <time>2012-05-13T08:54:06Z</time>
      </trkpt>
      <trkpt lat="45.76446" lon="5.70509">
        <ele>291.5</ele>
        <time>2012-05-13T08:54:12Z</time>
      </trkpt>
      <trkpt lat="45.76465" lon="5.70525">
        <ele>292.29998779297</ele>
        <time>2012-05-13T08:54:18Z</time>
      </trkpt>
      <trkpt lat="45.76486" lon="5.7054">
        <ele>292.20001220703</ele>
        <time>2012-05-13T08:54:24Z</time>
      </trkpt>
      <trkpt lat="45.76505" lon="5.70558">
        <ele>292.09997558594</ele>
        <time>2012-05-13T08:54:30Z</time>
      </trkpt>
      <trkpt lat="45.76523" lon="5.70576">
        <ele>291.29998779297</ele>
        <time>2012-05-13T08:54:36Z</time>
      </trkpt>
      <trkpt lat="45.76542" lon="5.7059">
        <ele>290.90002441406</ele>
        <time>2012-05-13T08:54:46Z</time>
      </trkpt>
      <trkpt lat="45.76558" lon="5.70604">
        <ele>289.59997558594</ele>
        <time>2012-05-13T08:55:00Z</time>
      </trkpt>
      <trkpt lat="45.76575" lon="5.7062">
        <ele>287.90002441406</ele>
        <time>2012-05-13T08:55:13Z</time>
      </trkpt>
      <trkpt lat="45.76592" lon="5.70632">
        <ele>289.79998779297</ele>
        <time>2012-05-13T08:55:27Z</time>
      </trkpt>
      <trkpt lat="45.7661" lon="5.70644">
        <ele>289.20001220703</ele>
        <time>2012-05-13T08:55:40Z</time>
      </trkpt>
      <trkpt lat="45.76627" lon="5.70658">
        <ele>288.70001220703</ele>
        <time>2012-05-13T08:55:54Z</time>
      </trkpt>
      <trkpt lat="45.76645" lon="5.7067">
        <ele>289.59997558594</ele>
        <time>2012-05-13T08:56:12Z</time>
      </trkpt>
      <trkpt lat="45.76662" lon="5.70683">
        <ele>290</ele>
        <time>2012-05-13T08:56:25Z</time>
      </trkpt>
      <trkpt lat="45.7668" lon="5.70694">
        <ele>289.40002441406</ele>
        <time>2012-05-13T08:56:39Z</time>
      </trkpt>
      <trkpt lat="45.76698" lon="5.70706">
        <ele>289.40002441406</ele>
        <time>2012-05-13T08:56:55Z</time>
      </trkpt>
      <trkpt lat="45.76713" lon="5.70721">
        <ele>288.29998779297</ele>
        <time>2012-05-13T08:57:08Z</time>
      </trkpt>
      <trkpt lat="45.76731" lon="5.70735">
        <ele>289.20001220703</ele>
        <time>2012-05-13T08:57:21Z</time>
      </trkpt>
      <trkpt lat="45.76747" lon="5.70749">
        <ele>288</ele>
        <time>2012-05-13T08:57:34Z</time>
      </trkpt>
      <trkpt lat="45.76768" lon="5.7076">
        <ele>289.5</ele>
        <time>2012-05-13T08:57:46Z</time>
      </trkpt>
      <trkpt lat="45.76786" lon="5.70771">
        <ele>289.59997558594</ele>
        <time>2012-05-13T08:57:52Z</time>
      </trkpt>
      <trkpt lat="45.76808" lon="5.70784">
        <ele>288.29998779297</ele>
        <time>2012-05-13T08:57:57Z</time>
      </trkpt>
      <trkpt lat="45.76823" lon="5.70803">
        <ele>286.70001220703</ele>
        <time>2012-05-13T08:58:01Z</time>
      </trkpt>
      <trkpt lat="45.76843" lon="5.70815">
        <ele>287.20001220703</ele>
        <time>2012-05-13T08:58:05Z</time>
      </trkpt>
      <trkpt lat="45.76859" lon="5.70825">
        <ele>286.90002441406</ele>
        <time>2012-05-13T08:58:09Z</time>
      </trkpt>
      <trkpt lat="45.76877" lon="5.70837">
        <ele>288.5</ele>
        <time>2012-05-13T08:58:18Z</time>
      </trkpt>
      <trkpt lat="45.76894" lon="5.70849">
        <ele>291.79998779297</ele>
        <time>2012-05-13T08:58:34Z</time>
      </trkpt>
      <trkpt lat="45.76901" lon="5.70858">
        <ele>292.09997558594</ele>
        <time>2012-05-13T08:58:39Z</time>
      </trkpt>
      <trkpt lat="45.76917" lon="5.7087">
        <ele>291.20001220703</ele>
        <time>2012-05-13T08:58:52Z</time>
      </trkpt>
      <trkpt lat="45.76925" lon="5.70875">
        <ele>291.09997558594</ele>
        <time>2012-05-13T08:58:58Z</time>
      </trkpt>
      <trkpt lat="45.76933" lon="5.70882">
        <ele>290.5</ele>
        <time>2012-05-13T08:59:03Z</time>
      </trkpt>
      <trkpt lat="45.76942" lon="5.70889">
        <ele>289.90002441406</ele>
        <time>2012-05-13T08:59:09Z</time>
      </trkpt>
      <trkpt lat="45.7695" lon="5.70896">
        <ele>290.59997558594</ele>
        <time>2012-05-13T08:59:17Z</time>
      </trkpt>
      <trkpt lat="45.76959" lon="5.70901">
        <ele>290.59997558594</ele>
        <time>2012-05-13T08:59:24Z</time>
      </trkpt>
      <trkpt lat="45.76968" lon="5.70907">
        <ele>291.20001220703</ele>
        <time>2012-05-13T08:59:31Z</time>
      </trkpt>
      <trkpt lat="45.76976" lon="5.70916">
        <ele>291.09997558594</ele>
        <time>2012-05-13T08:59:38Z</time>
      </trkpt>
      <trkpt lat="45.76985" lon="5.70923">
        <ele>291.5</ele>
        <time>2012-05-13T08:59:44Z</time>
      </trkpt>
      <trkpt lat="45.76993" lon="5.7093">
        <ele>292.09997558594</ele>
        <time>2012-05-13T08:59:50Z</time>
      </trkpt>
      <trkpt lat="45.77001" lon="5.70937">
        <ele>293.09997558594</ele>
        <time>2012-05-13T08:59:57Z</time>
      </trkpt>
      <trkpt lat="45.7701" lon="5.70942">
        <ele>294.90002441406</ele>
        <time>2012-05-13T09:00:06Z</time>
      </trkpt>
      <trkpt lat="45.77019" lon="5.70947">
        <ele>295.5</ele>
        <time>2012-05-13T09:00:14Z</time>
      </trkpt>
      <trkpt lat="45.77027" lon="5.70953">
        <ele>295.5</ele>
        <time>2012-05-13T09:00:20Z</time>
      </trkpt>
      <trkpt lat="45.77035" lon="5.7096">
        <ele>295.90002441406</ele>
        <time>2012-05-13T09:00:29Z</time>
      </trkpt>
      <trkpt lat="45.77044" lon="5.70963">
        <ele>295.20001220703</ele>
        <time>2012-05-13T09:00:48Z</time>
      </trkpt>
      <trkpt lat="45.77054" lon="5.70968">
        <ele>293.79998779297</ele>
        <time>2012-05-13T09:00:56Z</time>
      </trkpt>
      <trkpt lat="45.77062" lon="5.70975">
        <ele>293.5</ele>
        <time>2012-05-13T09:01:02Z</time>
      </trkpt>
      <trkpt lat="45.77069" lon="5.70982">
        <ele>294.70001220703</ele>
        <time>2012-05-13T09:01:08Z</time>
      </trkpt>
      <trkpt lat="45.77076" lon="5.70992">
        <ele>293.70001220703</ele>
        <time>2012-05-13T09:01:13Z</time>
      </trkpt>
      <trkpt lat="45.77088" lon="5.71015">
        <ele>289.5</ele>
        <time>2012-05-13T09:01:27Z</time>
      </trkpt>
      <trkpt lat="45.77095" lon="5.7104">
        <ele>290.79998779297</ele>
        <time>2012-05-13T09:01:41Z</time>
      </trkpt>
      <trkpt lat="45.7709" lon="5.71066">
        <ele>288.20001220703</ele>
        <time>2012-05-13T09:01:54Z</time>
      </trkpt>
      <trkpt lat="45.77088" lon="5.71081">
        <ele>287.09997558594</ele>
        <time>2012-05-13T09:02:02Z</time>
      </trkpt>
      <trkpt lat="45.77089" lon="5.71107">
        <ele>288</ele>
        <time>2012-05-13T09:02:18Z</time>
      </trkpt>
      <trkpt lat="45.77105" lon="5.71138">
        <ele>288.40002441406</ele>
        <time>2012-05-13T09:02:39Z</time>
      </trkpt>
      <trkpt lat="45.77121" lon="5.71149">
        <ele>293.70001220703</ele>
        <time>2012-05-13T09:02:53Z</time>
      </trkpt>
      <trkpt lat="45.77139" lon="5.71157">
        <ele>294.40002441406</ele>
        <time>2012-05-13T09:03:05Z</time>
      </trkpt>
      <trkpt lat="45.7715" lon="5.71157">
        <ele>295.5</ele>
        <time>2012-05-13T09:03:10Z</time>
      </trkpt>
      <trkpt lat="45.77169" lon="5.71162">
        <ele>298.79998779297</ele>
        <time>2012-05-13T09:03:24Z</time>
      </trkpt>
      <trkpt lat="45.77187" lon="5.71171">
        <ele>299.79998779297</ele>
        <time>2012-05-13T09:03:37Z</time>
      </trkpt>
      <trkpt lat="45.77206" lon="5.7118">
        <ele>303.79998779297</ele>
        <time>2012-05-13T09:03:53Z</time>
      </trkpt>
      <trkpt lat="45.77226" lon="5.71182">
        <ele>303.79998779297</ele>
        <time>2012-05-13T09:04:05Z</time>
      </trkpt>
      <trkpt lat="45.77246" lon="5.7119">
        <ele>303.09997558594</ele>
        <time>2012-05-13T09:04:16Z</time>
      </trkpt>
      <trkpt lat="45.77264" lon="5.71201">
        <ele>302.09997558594</ele>
        <time>2012-05-13T09:04:28Z</time>
      </trkpt>
      <trkpt lat="45.77282" lon="5.71204">
        <ele>303</ele>
        <time>2012-05-13T09:04:40Z</time>
      </trkpt>
      <trkpt lat="45.77302" lon="5.71206">
        <ele>301.29998779297</ele>
        <time>2012-05-13T09:04:53Z</time>
      </trkpt>
      <trkpt lat="45.77319" lon="5.71215">
        <ele>300.5</ele>
        <time>2012-05-13T09:05:03Z</time>
      </trkpt>
      <trkpt lat="45.77338" lon="5.7122">
        <ele>299.5</ele>
        <time>2012-05-13T09:05:15Z</time>
      </trkpt>
      <trkpt lat="45.77358" lon="5.71221">
        <ele>301</ele>
        <time>2012-05-13T09:05:27Z</time>
      </trkpt>
      <trkpt lat="45.77367" lon="5.71222">
        <ele>301.29998779297</ele>
        <time>2012-05-13T09:05:30Z</time>
      </trkpt>
      <trkpt lat="45.77385" lon="5.71227">
        <ele>304.29998779297</ele>
        <time>2012-05-13T09:05:42Z</time>
      </trkpt>
      <trkpt lat="45.77394" lon="5.71236">
        <ele>304.20001220703</ele>
        <time>2012-05-13T09:05:49Z</time>
      </trkpt>
      <trkpt lat="45.77402" lon="5.71241">
        <ele>304.59997558594</ele>
        <time>2012-05-13T09:05:55Z</time>
      </trkpt>
      <trkpt lat="45.77418" lon="5.71257">
        <ele>304.29998779297</ele>
        <time>2012-05-13T09:06:08Z</time>
      </trkpt>
      <trkpt lat="45.77425" lon="5.71265">
        <ele>303.70001220703</ele>
        <time>2012-05-13T09:06:13Z</time>
      </trkpt>
      <trkpt lat="45.77432" lon="5.71273">
        <ele>303.09997558594</ele>
        <time>2012-05-13T09:06:19Z</time>
      </trkpt>
      <trkpt lat="45.77451" lon="5.71284">
        <ele>298.70001220703</ele>
        <time>2012-05-13T09:06:30Z</time>
      </trkpt>
      <trkpt lat="45.77471" lon="5.7129">
        <ele>296.90002441406</ele>
        <time>2012-05-13T09:06:46Z</time>
      </trkpt>
      <trkpt lat="45.7749" lon="5.7129">
        <ele>295.29998779297</ele>
        <time>2012-05-13T09:06:58Z</time>
      </trkpt>
      <trkpt lat="45.77508" lon="5.71302">
        <ele>292.90002441406</ele>
        <time>2012-05-13T09:07:09Z</time>
      </trkpt>
      <trkpt lat="45.77528" lon="5.7131">
        <ele>295.59997558594</ele>
        <time>2012-05-13T09:07:19Z</time>
      </trkpt>
      <trkpt lat="45.77547" lon="5.71317">
        <ele>296.5</ele>
        <time>2012-05-13T09:07:32Z</time>
      </trkpt>
      <trkpt lat="45.77566" lon="5.71322">
        <ele>295.90002441406</ele>
        <time>2012-05-13T09:07:42Z</time>
      </trkpt>
      <trkpt lat="45.77585" lon="5.71323">
        <ele>298.29998779297</ele>
        <time>2012-05-13T09:07:54Z</time>
      </trkpt>
      <trkpt lat="45.77605" lon="5.71323">
        <ele>298.5</ele>
        <time>2012-05-13T09:08:06Z</time>
      </trkpt>
      <trkpt lat="45.77612" lon="5.71296">
        <ele>291.20001220703</ele>
        <time>2012-05-13T09:08:36Z</time>
      </trkpt>
      <trkpt lat="45.7764" lon="5.71283">
        <ele>293</ele>
        <time>2012-05-13T09:08:49Z</time>
      </trkpt>
      <trkpt lat="45.77664" lon="5.71276">
        <ele>292.90002441406</ele>
        <time>2012-05-13T09:08:55Z</time>
      </trkpt>
      <trkpt lat="45.77691" lon="5.71265">
        <ele>293.09997558594</ele>
        <time>2012-05-13T09:09:01Z</time>
      </trkpt>
      <trkpt lat="45.7772" lon="5.71249">
        <ele>292.70001220703</ele>
        <time>2012-05-13T09:09:07Z</time>
      </trkpt>
      <trkpt lat="45.77737" lon="5.71236">
        <ele>292.70001220703</ele>
        <time>2012-05-13T09:09:11Z</time>
      </trkpt>
      <trkpt lat="45.77757" lon="5.71221">
        <ele>292.20001220703</ele>
        <time>2012-05-13T09:09:15Z</time>
      </trkpt>
      <trkpt lat="45.77776" lon="5.71207">
        <ele>292.20001220703</ele>
        <time>2012-05-13T09:09:19Z</time>
      </trkpt>
      <trkpt lat="45.77784" lon="5.71168">
        <ele>295.59997558594</ele>
        <time>2012-05-13T09:09:34Z</time>
      </trkpt>
      <trkpt lat="45.77792" lon="5.71125">
        <ele>296.70001220703</ele>
        <time>2012-05-13T09:09:56Z</time>
      </trkpt>
      <trkpt lat="45.77809" lon="5.71101">
        <ele>296.90002441406</ele>
        <time>2012-05-13T09:10:01Z</time>
      </trkpt>
      <trkpt lat="45.77825" lon="5.71065">
        <ele>297.59997558594</ele>
        <time>2012-05-13T09:10:07Z</time>
      </trkpt>
      <trkpt lat="45.77845" lon="5.71022">
        <ele>297.09997558594</ele>
        <time>2012-05-13T09:10:16Z</time>
      </trkpt>
      <trkpt lat="45.77843" lon="5.70956">
        <ele>299.20001220703</ele>
        <time>2012-05-13T09:10:45Z</time>
      </trkpt>
      <trkpt lat="45.77846" lon="5.70929">
        <ele>299.90002441406</ele>
        <time>2012-05-13T09:11:03Z</time>
      </trkpt>
      <trkpt lat="45.77856" lon="5.70905">
        <ele>300.20001220703</ele>
        <time>2012-05-13T09:11:10Z</time>
      </trkpt>
      <trkpt lat="45.77862" lon="5.70878">
        <ele>302.09997558594</ele>
        <time>2012-05-13T09:11:23Z</time>
      </trkpt>
      <trkpt lat="45.77872" lon="5.70855">
        <ele>303.40002441406</ele>
        <time>2012-05-13T09:11:36Z</time>
      </trkpt>
      <trkpt lat="45.7787" lon="5.7081">
        <ele>302.70001220703</ele>
        <time>2012-05-13T09:11:51Z</time>
      </trkpt>
      <trkpt lat="45.77873" lon="5.70721">
        <ele>297.90002441406</ele>
        <time>2012-05-13T09:12:00Z</time>
      </trkpt>
      <trkpt lat="45.77861" lon="5.70681">
        <ele>294.59997558594</ele>
        <time>2012-05-13T09:12:14Z</time>
      </trkpt>
      <trkpt lat="45.77848" lon="5.70663">
        <ele>296.70001220703</ele>
        <time>2012-05-13T09:12:30Z</time>
      </trkpt>
      <trkpt lat="45.77839" lon="5.70637">
        <ele>293.79998779297</ele>
        <time>2012-05-13T09:12:44Z</time>
      </trkpt>
      <trkpt lat="45.77835" lon="5.70608">
        <ele>293.70001220703</ele>
        <time>2012-05-13T09:12:55Z</time>
      </trkpt>
      <trkpt lat="45.77829" lon="5.70583">
        <ele>296.70001220703</ele>
        <time>2012-05-13T09:13:08Z</time>
      </trkpt>
      <trkpt lat="45.7783" lon="5.70556">
        <ele>297</ele>
        <time>2012-05-13T09:13:18Z</time>
      </trkpt>
      <trkpt lat="45.77822" lon="5.70511">
        <ele>294.20001220703</ele>
        <time>2012-05-13T09:13:33Z</time>
      </trkpt>
      <trkpt lat="45.77814" lon="5.70471">
        <ele>291.20001220703</ele>
        <time>2012-05-13T09:13:37Z</time>
      </trkpt>
      <trkpt lat="45.77805" lon="5.70439">
        <ele>290</ele>
        <time>2012-05-13T09:13:41Z</time>
      </trkpt>
      <trkpt lat="45.77795" lon="5.70411">
        <ele>290</ele>
        <time>2012-05-13T09:13:46Z</time>
      </trkpt>
      <trkpt lat="45.77781" lon="5.70376">
        <ele>289.90002441406</ele>
        <time>2012-05-13T09:13:52Z</time>
      </trkpt>
      <trkpt lat="45.77771" lon="5.70348">
        <ele>290.90002441406</ele>
        <time>2012-05-13T09:13:59Z</time>
      </trkpt>
      <trkpt lat="45.7775" lon="5.70323">
        <ele>294.20001220703</ele>
        <time>2012-05-13T09:14:20Z</time>
      </trkpt>
      <trkpt lat="45.7774" lon="5.70297">
        <ele>295</ele>
        <time>2012-05-13T09:14:28Z</time>
      </trkpt>
      <trkpt lat="45.77727" lon="5.70264">
        <ele>294.59997558594</ele>
        <time>2012-05-13T09:14:34Z</time>
      </trkpt>
      <trkpt lat="45.77721" lon="5.70237">
        <ele>294.5</ele>
        <time>2012-05-13T09:14:38Z</time>
      </trkpt>
      <trkpt lat="45.77714" lon="5.70209">
        <ele>295.29998779297</ele>
        <time>2012-05-13T09:14:43Z</time>
      </trkpt>
      <trkpt lat="45.77701" lon="5.7017">
        <ele>295.5</ele>
        <time>2012-05-13T09:14:51Z</time>
      </trkpt>
      <trkpt lat="45.77689" lon="5.70129">
        <ele>295.79998779297</ele>
        <time>2012-05-13T09:15:04Z</time>
      </trkpt>
      <trkpt lat="45.7768" lon="5.70105">
        <ele>296.70001220703</ele>
        <time>2012-05-13T09:15:17Z</time>
      </trkpt>
      <trkpt lat="45.77669" lon="5.70083">
        <ele>298</ele>
        <time>2012-05-13T09:15:34Z</time>
      </trkpt>
      <trkpt lat="45.77652" lon="5.70049">
        <ele>298.40002441406</ele>
        <time>2012-05-13T09:15:51Z</time>
      </trkpt>
      <trkpt lat="45.77639" lon="5.70027">
        <ele>294.59997558594</ele>
        <time>2012-05-13T09:16:01Z</time>
      </trkpt>
      <trkpt lat="45.77621" lon="5.70014">
        <ele>294.29998779297</ele>
        <time>2012-05-13T09:16:08Z</time>
      </trkpt>
      <trkpt lat="45.77603" lon="5.70002">
        <ele>289.59997558594</ele>
        <time>2012-05-13T09:16:20Z</time>
      </trkpt>
      <trkpt lat="45.77587" lon="5.69989">
        <ele>287.70001220703</ele>
        <time>2012-05-13T09:16:31Z</time>
      </trkpt>
      <trkpt lat="45.77571" lon="5.69973">
        <ele>290.20001220703</ele>
        <time>2012-05-13T09:16:43Z</time>
      </trkpt>
      <trkpt lat="45.77564" lon="5.69948">
        <ele>289</ele>
        <time>2012-05-13T09:16:55Z</time>
      </trkpt>
      <trkpt lat="45.77566" lon="5.69903">
        <ele>287.70001220703</ele>
        <time>2012-05-13T09:17:07Z</time>
      </trkpt>
      <trkpt lat="45.77565" lon="5.69872">
        <ele>286.5</ele>
        <time>2012-05-13T09:17:17Z</time>
      </trkpt>
      <trkpt lat="45.77564" lon="5.69841">
        <ele>286.79998779297</ele>
        <time>2012-05-13T09:17:27Z</time>
      </trkpt>
      <trkpt lat="45.7755" lon="5.69823">
        <ele>288.70001220703</ele>
        <time>2012-05-13T09:17:41Z</time>
      </trkpt>
      <trkpt lat="45.77536" lon="5.69803">
        <ele>287.59997558594</ele>
        <time>2012-05-13T09:17:54Z</time>
      </trkpt>
      <trkpt lat="45.77527" lon="5.6978">
        <ele>290.29998779297</ele>
        <time>2012-05-13T09:18:06Z</time>
      </trkpt>
      <trkpt lat="45.77516" lon="5.69756">
        <ele>291.59997558594</ele>
        <time>2012-05-13T09:18:19Z</time>
      </trkpt>
      <trkpt lat="45.77508" lon="5.6975">
        <ele>293.20001220703</ele>
        <time>2012-05-13T09:18:25Z</time>
      </trkpt>
      <trkpt lat="45.77491" lon="5.69741">
        <ele>299.09997558594</ele>
        <time>2012-05-13T09:18:40Z</time>
      </trkpt>
      <trkpt lat="45.7747" lon="5.69739">
        <ele>299</ele>
        <time>2012-05-13T09:18:51Z</time>
      </trkpt>
      <trkpt lat="45.77451" lon="5.69732">
        <ele>301.90002441406</ele>
        <time>2012-05-13T09:19:05Z</time>
      </trkpt>
      <trkpt lat="45.77433" lon="5.69723">
        <ele>301.79998779297</ele>
        <time>2012-05-13T09:19:17Z</time>
      </trkpt>
      <trkpt lat="45.77423" lon="5.69717">
        <ele>300.79998779297</ele>
        <time>2012-05-13T09:19:23Z</time>
      </trkpt>
      <trkpt lat="45.77406" lon="5.69707">
        <ele>298.5</ele>
        <time>2012-05-13T09:19:34Z</time>
      </trkpt>
      <trkpt lat="45.77389" lon="5.69695">
        <ele>298.09997558594</ele>
        <time>2012-05-13T09:19:46Z</time>
      </trkpt>
      <trkpt lat="45.77373" lon="5.69678">
        <ele>299.40002441406</ele>
        <time>2012-05-13T09:19:59Z</time>
      </trkpt>
      <trkpt lat="45.77365" lon="5.6967">
        <ele>300.20001220703</ele>
        <time>2012-05-13T09:20:39Z</time>
      </trkpt>
      <trkpt lat="45.77352" lon="5.69651">
        <ele>300.70001220703</ele>
        <time>2012-05-13T09:20:51Z</time>
      </trkpt>
      <trkpt lat="45.77336" lon="5.69635">
        <ele>300.70001220703</ele>
        <time>2012-05-13T09:21:04Z</time>
      </trkpt>
      <trkpt lat="45.7731" lon="5.69613">
        <ele>301.79998779297</ele>
        <time>2012-05-13T09:21:23Z</time>
      </trkpt>
      <trkpt lat="45.77295" lon="5.69594">
        <ele>302.20001220703</ele>
        <time>2012-05-13T09:21:35Z</time>
      </trkpt>
      <trkpt lat="45.77283" lon="5.69573">
        <ele>302.29998779297</ele>
        <time>2012-05-13T09:21:49Z</time>
      </trkpt>
      <trkpt lat="45.7727" lon="5.69552">
        <ele>304.40002441406</ele>
        <time>2012-05-13T09:22:03Z</time>
      </trkpt>
      <trkpt lat="45.77263" lon="5.69528">
        <ele>304.70001220703</ele>
        <time>2012-05-13T09:22:19Z</time>
      </trkpt>
      <trkpt lat="45.77249" lon="5.69509">
        <ele>303.5</ele>
        <time>2012-05-13T09:22:32Z</time>
      </trkpt>
      <trkpt lat="45.77242" lon="5.69484">
        <ele>303.20001220703</ele>
        <time>2012-05-13T09:22:42Z</time>
      </trkpt>
      <trkpt lat="45.77253" lon="5.69461">
        <ele>306.09997558594</ele>
        <time>2012-05-13T09:22:52Z</time>
      </trkpt>
      <trkpt lat="45.77264" lon="5.6944">
        <ele>301.79998779297</ele>
        <time>2012-05-13T09:23:01Z</time>
      </trkpt>
      <trkpt lat="45.77271" lon="5.69431">
        <ele>300.40002441406</ele>
        <time>2012-05-13T09:23:08Z</time>
      </trkpt>
      <trkpt lat="45.77279" lon="5.69424">
        <ele>300.90002441406</ele>
        <time>2012-05-13T09:23:14Z</time>
      </trkpt>
      <trkpt lat="45.77288" lon="5.69418">
        <ele>300.90002441406</ele>
        <time>2012-05-13T09:23:21Z</time>
      </trkpt>
      <trkpt lat="45.77295" lon="5.69411">
        <ele>300.09997558594</ele>
        <time>2012-05-13T09:23:27Z</time>
      </trkpt>
      <trkpt lat="45.77304" lon="5.69404">
        <ele>300.40002441406</ele>
        <time>2012-05-13T09:23:34Z</time>
      </trkpt>
      <trkpt lat="45.77312" lon="5.69398">
        <ele>299.79998779297</ele>
        <time>2012-05-13T09:23:40Z</time>
      </trkpt>
      <trkpt lat="45.77321" lon="5.69394">
        <ele>298.40002441406</ele>
        <time>2012-05-13T09:23:46Z</time>
      </trkpt>
      <trkpt lat="45.77329" lon="5.6939">
        <ele>297.5</ele>
        <time>2012-05-13T09:23:52Z</time>
      </trkpt>
      <trkpt lat="45.77338" lon="5.69385">
        <ele>296.70001220703</ele>
        <time>2012-05-13T09:23:58Z</time>
      </trkpt>
      <trkpt lat="45.77347" lon="5.6938">
        <ele>296.09997558594</ele>
        <time>2012-05-13T09:24:04Z</time>
      </trkpt>
      <trkpt lat="45.77356" lon="5.69375">
        <ele>294.90002441406</ele>
        <time>2012-05-13T09:24:10Z</time>
      </trkpt>
      <trkpt lat="45.77366" lon="5.69371">
        <ele>293.09997558594</ele>
        <time>2012-05-13T09:24:16Z</time>
      </trkpt>
      <trkpt lat="45.77383" lon="5.69362">
        <ele>290.90002441406</ele>
        <time>2012-05-13T09:25:11Z</time>
      </trkpt>
      <trkpt lat="45.77392" lon="5.69355">
        <ele>292.09997558594</ele>
        <time>2012-05-13T09:25:18Z</time>
      </trkpt>
      <trkpt lat="45.774" lon="5.69349">
        <ele>292.09997558594</ele>
        <time>2012-05-13T09:25:24Z</time>
      </trkpt>
      <trkpt lat="45.7741" lon="5.69343">
        <ele>291.59997558594</ele>
        <time>2012-05-13T09:25:31Z</time>
      </trkpt>
      <trkpt lat="45.77418" lon="5.69335">
        <ele>293.20001220703</ele>
        <time>2012-05-13T09:25:38Z</time>
      </trkpt>
      <trkpt lat="45.77427" lon="5.69328">
        <ele>294.20001220703</ele>
        <time>2012-05-13T09:25:45Z</time>
      </trkpt>
      <trkpt lat="45.77435" lon="5.69322">
        <ele>294.29998779297</ele>
        <time>2012-05-13T09:25:51Z</time>
      </trkpt>
      <trkpt lat="45.77444" lon="5.69316">
        <ele>294.20001220703</ele>
        <time>2012-05-13T09:25:57Z</time>
      </trkpt>
      <trkpt lat="45.77453" lon="5.69312">
        <ele>293.40002441406</ele>
        <time>2012-05-13T09:26:03Z</time>
      </trkpt>
      <trkpt lat="45.77463" lon="5.69307">
        <ele>292.40002441406</ele>
        <time>2012-05-13T09:26:09Z</time>
      </trkpt>
      <trkpt lat="45.77471" lon="5.69303">
        <ele>291.29998779297</ele>
        <time>2012-05-13T09:26:15Z</time>
      </trkpt>
      <trkpt lat="45.7749" lon="5.69293">
        <ele>290.5</ele>
        <time>2012-05-13T09:26:25Z</time>
      </trkpt>
      <trkpt lat="45.77506" lon="5.69281">
        <ele>291</ele>
        <time>2012-05-13T09:26:31Z</time>
      </trkpt>
      <trkpt lat="45.77515" lon="5.69275">
        <ele>291.40002441406</ele>
        <time>2012-05-13T09:26:36Z</time>
      </trkpt>
      <trkpt lat="45.77532" lon="5.69262">
        <ele>291.79998779297</ele>
        <time>2012-05-13T09:26:49Z</time>
      </trkpt>
      <trkpt lat="45.77541" lon="5.69259">
        <ele>292.40002441406</ele>
        <time>2012-05-13T09:26:55Z</time>
      </trkpt>
      <trkpt lat="45.77551" lon="5.69253">
        <ele>292.59997558594</ele>
        <time>2012-05-13T09:27:02Z</time>
      </trkpt>
      <trkpt lat="45.77569" lon="5.69239">
        <ele>292.59997558594</ele>
        <time>2012-05-13T09:27:16Z</time>
      </trkpt>
      <trkpt lat="45.77584" lon="5.69222">
        <ele>290.09997558594</ele>
        <time>2012-05-13T09:27:28Z</time>
      </trkpt>
      <trkpt lat="45.77599" lon="5.692">
        <ele>287.59997558594</ele>
        <time>2012-05-13T09:27:39Z</time>
      </trkpt>
      <trkpt lat="45.77606" lon="5.69189">
        <ele>287.29998779297</ele>
        <time>2012-05-13T09:27:43Z</time>
      </trkpt>
      <trkpt lat="45.77612" lon="5.69179">
        <ele>287.40002441406</ele>
        <time>2012-05-13T09:27:49Z</time>
      </trkpt>
      <trkpt lat="45.77625" lon="5.6916">
        <ele>288.79998779297</ele>
        <time>2012-05-13T09:28:01Z</time>
      </trkpt>
      <trkpt lat="45.77631" lon="5.69148">
        <ele>291.5</ele>
        <time>2012-05-13T09:28:07Z</time>
      </trkpt>
      <trkpt lat="45.77638" lon="5.69138">
        <ele>292.20001220703</ele>
        <time>2012-05-13T09:28:14Z</time>
      </trkpt>
      <trkpt lat="45.77645" lon="5.69129">
        <ele>292.09997558594</ele>
        <time>2012-05-13T09:28:20Z</time>
      </trkpt>
      <trkpt lat="45.77653" lon="5.69121">
        <ele>291.70001220703</ele>
        <time>2012-05-13T09:28:26Z</time>
      </trkpt>
      <trkpt lat="45.7766" lon="5.69112">
        <ele>291.5</ele>
        <time>2012-05-13T09:28:32Z</time>
      </trkpt>
      <trkpt lat="45.77666" lon="5.69103">
        <ele>291.5</ele>
        <time>2012-05-13T09:28:38Z</time>
      </trkpt>
      <trkpt lat="45.77672" lon="5.69092">
        <ele>292.70001220703</ele>
        <time>2012-05-13T09:28:44Z</time>
      </trkpt>
      <trkpt lat="45.77687" lon="5.69073">
        <ele>291.90002441406</ele>
        <time>2012-05-13T09:28:58Z</time>
      </trkpt>
      <trkpt lat="45.77695" lon="5.69064">
        <ele>290.79998779297</ele>
        <time>2012-05-13T09:29:04Z</time>
      </trkpt>
      <trkpt lat="45.77702" lon="5.69054">
        <ele>290.79998779297</ele>
        <time>2012-05-13T09:29:11Z</time>
      </trkpt>
      <trkpt lat="45.77699" lon="5.6904">
        <ele>289.59997558594</ele>
        <time>2012-05-13T09:29:19Z</time>
      </trkpt>
      <trkpt lat="45.77687" lon="5.6902">
        <ele>287.5</ele>
        <time>2012-05-13T09:29:33Z</time>
      </trkpt>
      <trkpt lat="45.77674" lon="5.69">
        <ele>288.20001220703</ele>
        <time>2012-05-13T09:29:45Z</time>
      </trkpt>
      <trkpt lat="45.77652" lon="5.68997">
        <ele>288.90002441406</ele>
        <time>2012-05-13T09:30:09Z</time>
      </trkpt>
      <trkpt lat="45.77635" lon="5.69007">
        <ele>291.40002441406</ele>
        <time>2012-05-13T09:31:27Z</time>
      </trkpt>
      <trkpt lat="45.77606" lon="5.68999">
        <ele>290.59997558594</ele>
        <time>2012-05-13T09:31:42Z</time>
      </trkpt>
      <trkpt lat="45.77588" lon="5.68965">
        <ele>289.70001220703</ele>
        <time>2012-05-13T09:31:59Z</time>
      </trkpt>
      <trkpt lat="45.77577" lon="5.68944">
        <ele>290.70001220703</ele>
        <time>2012-05-13T09:32:11Z</time>
      </trkpt>
      <trkpt lat="45.77579" lon="5.68895">
        <ele>288.09997558594</ele>
        <time>2012-05-13T09:32:19Z</time>
      </trkpt>
      <trkpt lat="45.77574" lon="5.6886">
        <ele>287.29998779297</ele>
        <time>2012-05-13T09:32:23Z</time>
      </trkpt>
      <trkpt lat="45.77572" lon="5.68845">
        <ele>286.79998779297</ele>
        <time>2012-05-13T09:32:25Z</time>
      </trkpt>
      <trkpt lat="45.77568" lon="5.68831">
        <ele>286.59997558594</ele>
        <time>2012-05-13T09:32:27Z</time>
      </trkpt>
      <trkpt lat="45.77564" lon="5.68816">
        <ele>286.5</ele>
        <time>2012-05-13T09:32:29Z</time>
      </trkpt>
      <trkpt lat="45.77556" lon="5.68789">
        <ele>286.59997558594</ele>
        <time>2012-05-13T09:32:33Z</time>
      </trkpt>
      <trkpt lat="45.77551" lon="5.68772">
        <ele>286.29998779297</ele>
        <time>2012-05-13T09:32:36Z</time>
      </trkpt>
      <trkpt lat="45.77547" lon="5.68758">
        <ele>286.59997558594</ele>
        <time>2012-05-13T09:32:39Z</time>
      </trkpt>
      <trkpt lat="45.77542" lon="5.68731">
        <ele>288.90002441406</ele>
        <time>2012-05-13T09:32:51Z</time>
      </trkpt>
      <trkpt lat="45.77533" lon="5.68705">
        <ele>289.70001220703</ele>
        <time>2012-05-13T09:33:04Z</time>
      </trkpt>
      <trkpt lat="45.77526" lon="5.6868">
        <ele>289.59997558594</ele>
        <time>2012-05-13T09:33:16Z</time>
      </trkpt>
      <trkpt lat="45.77517" lon="5.68657">
        <ele>291.59997558594</ele>
        <time>2012-05-13T09:33:30Z</time>
      </trkpt>
      <trkpt lat="45.77561" lon="5.68565">
        <ele>295.20001220703</ele>
        <time>2012-05-13T09:33:46Z</time>
      </trkpt>
      <trkpt lat="45.77561" lon="5.68502">
        <ele>294.5</ele>
        <time>2012-05-13T09:33:55Z</time>
      </trkpt>
      <trkpt lat="45.77564" lon="5.68487">
        <ele>296.70001220703</ele>
        <time>2012-05-13T09:34:00Z</time>
      </trkpt>
      <trkpt lat="45.7756" lon="5.68485">
        <ele>303.59997558594</ele>
        <time>2012-05-13T09:34:29Z</time>
      </trkpt>
      <trkpt lat="45.77559" lon="5.68524">
        <ele>305.5</ele>
        <time>2012-05-13T09:34:43Z</time>
      </trkpt>
      <trkpt lat="45.77552" lon="5.6856">
        <ele>311.09997558594</ele>
        <time>2012-05-13T09:35:06Z</time>
      </trkpt>
      <trkpt lat="45.77528" lon="5.68582">
        <ele>315.20001220703</ele>
        <time>2012-05-13T09:35:27Z</time>
      </trkpt>
      <trkpt lat="45.77495" lon="5.68588">
        <ele>318.90002441406</ele>
        <time>2012-05-13T09:35:41Z</time>
      </trkpt>
      <trkpt lat="45.77463" lon="5.68589">
        <ele>324.59997558594</ele>
        <time>2012-05-13T09:36:09Z</time>
      </trkpt>
      <trkpt lat="45.77432" lon="5.68596">
        <ele>329.20001220703</ele>
        <time>2012-05-13T09:36:29Z</time>
      </trkpt>
      <trkpt lat="45.77401" lon="5.68599">
        <ele>333.20001220703</ele>
        <time>2012-05-13T09:36:42Z</time>
      </trkpt>
      <trkpt lat="45.77372" lon="5.68598">
        <ele>335.5</ele>
        <time>2012-05-13T09:36:58Z</time>
      </trkpt>
      <trkpt lat="45.77343" lon="5.68602">
        <ele>338.90002441406</ele>
        <time>2012-05-13T09:37:14Z</time>
      </trkpt>
      <trkpt lat="45.77324" lon="5.68602">
        <ele>346.09997558594</ele>
        <time>2012-05-13T09:37:31Z</time>
      </trkpt>
      <trkpt lat="45.77304" lon="5.68602">
        <ele>345.29998779297</ele>
        <time>2012-05-13T09:37:39Z</time>
      </trkpt>
      <trkpt lat="45.77285" lon="5.68608">
        <ele>349.79998779297</ele>
        <time>2012-05-13T09:37:56Z</time>
      </trkpt>
      <trkpt lat="45.77264" lon="5.6861">
        <ele>354.20001220703</ele>
        <time>2012-05-13T09:38:04Z</time>
      </trkpt>
      <trkpt lat="45.77244" lon="5.68609">
        <ele>356.90002441406</ele>
        <time>2012-05-13T09:38:14Z</time>
      </trkpt>
      <trkpt lat="45.77226" lon="5.68606">
        <ele>355.09997558594</ele>
        <time>2012-05-13T09:38:23Z</time>
      </trkpt>
      <trkpt lat="45.77205" lon="5.68607">
        <ele>355.90002441406</ele>
        <time>2012-05-13T09:38:36Z</time>
      </trkpt>
      <trkpt lat="45.77186" lon="5.68605">
        <ele>357.59997558594</ele>
        <time>2012-05-13T09:38:48Z</time>
      </trkpt>
      <trkpt lat="45.77168" lon="5.68597">
        <ele>358.29998779297</ele>
        <time>2012-05-13T09:38:59Z</time>
      </trkpt>
      <trkpt lat="45.77159" lon="5.68593">
        <ele>359.09997558594</ele>
        <time>2012-05-13T09:39:05Z</time>
      </trkpt>
      <trkpt lat="45.77141" lon="5.68581">
        <ele>358.70001220703</ele>
        <time>2012-05-13T09:39:16Z</time>
      </trkpt>
      <trkpt lat="45.77123" lon="5.68569">
        <ele>357.59997558594</ele>
        <time>2012-05-13T09:39:25Z</time>
      </trkpt>
      <trkpt lat="45.77116" lon="5.68561">
        <ele>358.59997558594</ele>
        <time>2012-05-13T09:39:30Z</time>
      </trkpt>
      <trkpt lat="45.77097" lon="5.68546">
        <ele>358.70001220703</ele>
        <time>2012-05-13T09:39:37Z</time>
      </trkpt>
      <trkpt lat="45.77074" lon="5.68535">
        <ele>357.59997558594</ele>
        <time>2012-05-13T09:39:42Z</time>
      </trkpt>
      <trkpt lat="45.77053" lon="5.68524">
        <ele>356.79998779297</ele>
        <time>2012-05-13T09:39:46Z</time>
      </trkpt>
      <trkpt lat="45.77022" lon="5.68513">
        <ele>358.40002441406</ele>
        <time>2012-05-13T09:39:53Z</time>
      </trkpt>
      <trkpt lat="45.77001" lon="5.68505">
        <ele>360</ele>
        <time>2012-05-13T09:39:57Z</time>
      </trkpt>
      <trkpt lat="45.7698" lon="5.68497">
        <ele>361.09997558594</ele>
        <time>2012-05-13T09:40:01Z</time>
      </trkpt>
      <trkpt lat="45.7696" lon="5.68489">
        <ele>362.29998779297</ele>
        <time>2012-05-13T09:40:07Z</time>
      </trkpt>
      <trkpt lat="45.7694" lon="5.68477">
        <ele>367.40002441406</ele>
        <time>2012-05-13T09:40:20Z</time>
      </trkpt>
      <trkpt lat="45.76931" lon="5.68474">
        <ele>368.5</ele>
        <time>2012-05-13T09:40:25Z</time>
      </trkpt>
      <trkpt lat="45.76921" lon="5.68472">
        <ele>369.29998779297</ele>
        <time>2012-05-13T09:40:31Z</time>
      </trkpt>
      <trkpt lat="45.769" lon="5.6847">
        <ele>371.29998779297</ele>
        <time>2012-05-13T09:40:45Z</time>
      </trkpt>
      <trkpt lat="45.76881" lon="5.68464">
        <ele>373.5</ele>
        <time>2012-05-13T09:40:57Z</time>
      </trkpt>
      <trkpt lat="45.76863" lon="5.6846">
        <ele>374.29998779297</ele>
        <time>2012-05-13T09:41:09Z</time>
      </trkpt>
      <trkpt lat="45.76843" lon="5.6845">
        <ele>376.09997558594</ele>
        <time>2012-05-13T09:41:22Z</time>
      </trkpt>
      <trkpt lat="45.76826" lon="5.68439">
        <ele>375.59997558594</ele>
        <time>2012-05-13T09:41:35Z</time>
      </trkpt>
      <trkpt lat="45.76807" lon="5.68429">
        <ele>376.5</ele>
        <time>2012-05-13T09:41:47Z</time>
      </trkpt>
      <trkpt lat="45.76799" lon="5.68424">
        <ele>376.79998779297</ele>
        <time>2012-05-13T09:41:53Z</time>
      </trkpt>
      <trkpt lat="45.7679" lon="5.68418">
        <ele>377.20001220703</ele>
        <time>2012-05-13T09:41:59Z</time>
      </trkpt>
      <trkpt lat="45.76782" lon="5.68412">
        <ele>377.59997558594</ele>
        <time>2012-05-13T09:42:05Z</time>
      </trkpt>
      <trkpt lat="45.76773" lon="5.68408">
        <ele>378.79998779297</ele>
        <time>2012-05-13T09:42:11Z</time>
      </trkpt>
      <trkpt lat="45.76764" lon="5.68405">
        <ele>380</ele>
        <time>2012-05-13T09:42:17Z</time>
      </trkpt>
      <trkpt lat="45.76756" lon="5.68402">
        <ele>379.90002441406</ele>
        <time>2012-05-13T09:42:23Z</time>
      </trkpt>
      <trkpt lat="45.76746" lon="5.68399">
        <ele>380.70001220703</ele>
        <time>2012-05-13T09:42:29Z</time>
      </trkpt>
      <trkpt lat="45.76737" lon="5.68396">
        <ele>381.70001220703</ele>
        <time>2012-05-13T09:42:35Z</time>
      </trkpt>
      <trkpt lat="45.76727" lon="5.68393">
        <ele>381.40002441406</ele>
        <time>2012-05-13T09:42:42Z</time>
      </trkpt>
      <trkpt lat="45.76708" lon="5.68386">
        <ele>382.70001220703</ele>
        <time>2012-05-13T09:42:55Z</time>
      </trkpt>
      <trkpt lat="45.76698" lon="5.68382">
        <ele>384.20001220703</ele>
        <time>2012-05-13T09:43:02Z</time>
      </trkpt>
      <trkpt lat="45.7669" lon="5.68378">
        <ele>384.5</ele>
        <time>2012-05-13T09:43:08Z</time>
      </trkpt>
      <trkpt lat="45.7668" lon="5.68375">
        <ele>386.20001220703</ele>
        <time>2012-05-13T09:43:15Z</time>
      </trkpt>
      <trkpt lat="45.76671" lon="5.68372">
        <ele>386.70001220703</ele>
        <time>2012-05-13T09:43:21Z</time>
      </trkpt>
      <trkpt lat="45.76651" lon="5.68364">
        <ele>387.29998779297</ele>
        <time>2012-05-13T09:43:35Z</time>
      </trkpt>
      <trkpt lat="45.76633" lon="5.68354">
        <ele>386.90002441406</ele>
        <time>2012-05-13T09:43:47Z</time>
      </trkpt>
      <trkpt lat="45.76613" lon="5.6836">
        <ele>389.79998779297</ele>
        <time>2012-05-13T09:44:07Z</time>
      </trkpt>
      <trkpt lat="45.76595" lon="5.68367">
        <ele>390.20001220703</ele>
        <time>2012-05-13T09:44:17Z</time>
      </trkpt>
      <trkpt lat="45.76575" lon="5.68373">
        <ele>392.90002441406</ele>
        <time>2012-05-13T09:44:29Z</time>
      </trkpt>
      <trkpt lat="45.76556" lon="5.68377">
        <ele>391.29998779297</ele>
        <time>2012-05-13T09:44:37Z</time>
      </trkpt>
      <trkpt lat="45.76536" lon="5.68371">
        <ele>388.40002441406</ele>
        <time>2012-05-13T09:44:48Z</time>
      </trkpt>
      <trkpt lat="45.7654" lon="5.68338">
        <ele>380.90002441406</ele>
        <time>2012-05-13T09:45:04Z</time>
      </trkpt>
      <trkpt lat="45.7655" lon="5.68315">
        <ele>382</ele>
        <time>2012-05-13T09:45:16Z</time>
      </trkpt>
      <trkpt lat="45.76561" lon="5.68294">
        <ele>382</ele>
        <time>2012-05-13T09:45:28Z</time>
      </trkpt>
      <trkpt lat="45.76569" lon="5.68269">
        <ele>380.40002441406</ele>
        <time>2012-05-13T09:45:42Z</time>
      </trkpt>
      <trkpt lat="45.76555" lon="5.68251">
        <ele>382.5</ele>
        <time>2012-05-13T09:45:57Z</time>
      </trkpt>
      <trkpt lat="45.76538" lon="5.68236">
        <ele>383.90002441406</ele>
        <time>2012-05-13T09:46:09Z</time>
      </trkpt>
      <trkpt lat="45.76522" lon="5.68221">
        <ele>384.29998779297</ele>
        <time>2012-05-13T09:46:22Z</time>
      </trkpt>
      <trkpt lat="45.76507" lon="5.68206">
        <ele>385</ele>
        <time>2012-05-13T09:46:34Z</time>
      </trkpt>
      <trkpt lat="45.76498" lon="5.68199">
        <ele>385.29998779297</ele>
        <time>2012-05-13T09:46:41Z</time>
      </trkpt>
      <trkpt lat="45.7649" lon="5.6819">
        <ele>386.09997558594</ele>
        <time>2012-05-13T09:46:48Z</time>
      </trkpt>
      <trkpt lat="45.76481" lon="5.68184">
        <ele>387.29998779297</ele>
        <time>2012-05-13T09:46:56Z</time>
      </trkpt>
      <trkpt lat="45.76476" lon="5.68173">
        <ele>384.79998779297</ele>
        <time>2012-05-13T09:47:18Z</time>
      </trkpt>
      <trkpt lat="45.76467" lon="5.68174">
        <ele>384.09997558594</ele>
        <time>2012-05-13T09:47:39Z</time>
      </trkpt>
      <trkpt lat="45.76464" lon="5.68187">
        <ele>384</ele>
        <time>2012-05-13T09:47:49Z</time>
      </trkpt>
      <trkpt lat="45.76459" lon="5.68198">
        <ele>385.20001220703</ele>
        <time>2012-05-13T09:47:58Z</time>
      </trkpt>
      <trkpt lat="45.76448" lon="5.68216">
        <ele>384.59997558594</ele>
        <time>2012-05-13T09:48:43Z</time>
      </trkpt>
      <trkpt lat="45.76459" lon="5.68247">
        <ele>381.5</ele>
        <time>2012-05-13T09:49:41Z</time>
      </trkpt>
      <trkpt lat="45.76469" lon="5.68268">
        <ele>380.09997558594</ele>
        <time>2012-05-13T09:50:04Z</time>
      </trkpt>
      <trkpt lat="45.76484" lon="5.68272">
        <ele>379.90002441406</ele>
        <time>2012-05-13T09:50:53Z</time>
      </trkpt>
      <trkpt lat="45.76496" lon="5.68278">
        <ele>384.90002441406</ele>
        <time>2012-05-13T12:01:30Z</time>
      </trkpt>
      <trkpt lat="45.76479" lon="5.68268">
        <ele>385.20001220703</ele>
        <time>2012-05-13T12:04:25Z</time>
      </trkpt>
      <trkpt lat="45.76464" lon="5.68253">
        <ele>383.90002441406</ele>
        <time>2012-05-13T12:04:48Z</time>
      </trkpt>
      <trkpt lat="45.76457" lon="5.68245">
        <ele>384</ele>
        <time>2012-05-13T12:04:54Z</time>
      </trkpt>
      <trkpt lat="45.76445" lon="5.68224">
        <ele>383.20001220703</ele>
        <time>2012-05-13T12:05:42Z</time>
      </trkpt>
      <trkpt lat="45.76451" lon="5.68212">
        <ele>383</ele>
        <time>2012-05-13T12:05:49Z</time>
      </trkpt>
      <trkpt lat="45.76462" lon="5.68191">
        <ele>386.40002441406</ele>
        <time>2012-05-13T12:07:20Z</time>
      </trkpt>
      <trkpt lat="45.76481" lon="5.68178">
        <ele>386.40002441406</ele>
        <time>2012-05-13T12:08:19Z</time>
      </trkpt>
      <trkpt lat="45.76497" lon="5.68193">
        <ele>385.79998779297</ele>
        <time>2012-05-13T12:08:33Z</time>
      </trkpt>
      <trkpt lat="45.76505" lon="5.68201">
        <ele>384.59997558594</ele>
        <time>2012-05-13T12:08:40Z</time>
      </trkpt>
      <trkpt lat="45.76521" lon="5.68217">
        <ele>384.09997558594</ele>
        <time>2012-05-13T12:08:54Z</time>
      </trkpt>
      <trkpt lat="45.76529" lon="5.68225">
        <ele>383.79998779297</ele>
        <time>2012-05-13T12:09:01Z</time>
      </trkpt>
      <trkpt lat="45.76537" lon="5.68232">
        <ele>384.09997558594</ele>
        <time>2012-05-13T12:09:07Z</time>
      </trkpt>
      <trkpt lat="45.76545" lon="5.68238">
        <ele>384.70001220703</ele>
        <time>2012-05-13T12:09:14Z</time>
      </trkpt>
      <trkpt lat="45.76561" lon="5.68253">
        <ele>385.59997558594</ele>
        <time>2012-05-13T12:09:28Z</time>
      </trkpt>
      <trkpt lat="45.76579" lon="5.68254">
        <ele>384.09997558594</ele>
        <time>2012-05-13T12:09:44Z</time>
      </trkpt>
      <trkpt lat="45.76592" lon="5.68233">
        <ele>384</ele>
        <time>2012-05-13T12:09:59Z</time>
      </trkpt>
      <trkpt lat="45.76603" lon="5.68211">
        <ele>383.29998779297</ele>
        <time>2012-05-13T12:10:12Z</time>
      </trkpt>
      <trkpt lat="45.76609" lon="5.68201">
        <ele>382.70001220703</ele>
        <time>2012-05-13T12:10:19Z</time>
      </trkpt>
      <trkpt lat="45.76615" lon="5.68189">
        <ele>381.70001220703</ele>
        <time>2012-05-13T12:10:25Z</time>
      </trkpt>
      <trkpt lat="45.7662" lon="5.68178">
        <ele>382.20001220703</ele>
        <time>2012-05-13T12:10:32Z</time>
      </trkpt>
      <trkpt lat="45.76633" lon="5.68155">
        <ele>381.20001220703</ele>
        <time>2012-05-13T12:10:46Z</time>
      </trkpt>
      <trkpt lat="45.76639" lon="5.68143">
        <ele>380.40002441406</ele>
        <time>2012-05-13T12:10:53Z</time>
      </trkpt>
      <trkpt lat="45.76644" lon="5.68131">
        <ele>380.5</ele>
        <time>2012-05-13T12:11:00Z</time>
      </trkpt>
      <trkpt lat="45.7665" lon="5.68121">
        <ele>379.90002441406</ele>
        <time>2012-05-13T12:11:06Z</time>
      </trkpt>
      <trkpt lat="45.76657" lon="5.6811">
        <ele>379.90002441406</ele>
        <time>2012-05-13T12:11:12Z</time>
      </trkpt>
      <trkpt lat="45.76667" lon="5.68087">
        <ele>381.20001220703</ele>
        <time>2012-05-13T12:11:26Z</time>
      </trkpt>
      <trkpt lat="45.76672" lon="5.68076">
        <ele>382</ele>
        <time>2012-05-13T12:11:32Z</time>
      </trkpt>
      <trkpt lat="45.76679" lon="5.68064">
        <ele>383.5</ele>
        <time>2012-05-13T12:11:43Z</time>
      </trkpt>
      <trkpt lat="45.76684" lon="5.68051">
        <ele>384.09997558594</ele>
        <time>2012-05-13T12:11:50Z</time>
      </trkpt>
      <trkpt lat="45.76689" lon="5.6804">
        <ele>384.29998779297</ele>
        <time>2012-05-13T12:11:55Z</time>
      </trkpt>
      <trkpt lat="45.76695" lon="5.68028">
        <ele>385.40002441406</ele>
        <time>2012-05-13T12:12:00Z</time>
      </trkpt>
      <trkpt lat="45.76701" lon="5.68017">
        <ele>385.79998779297</ele>
        <time>2012-05-13T12:12:06Z</time>
      </trkpt>
      <trkpt lat="45.76707" lon="5.68006">
        <ele>385.5</ele>
        <time>2012-05-13T12:12:14Z</time>
      </trkpt>
      <trkpt lat="45.76713" lon="5.67993">
        <ele>384</ele>
        <time>2012-05-13T12:12:21Z</time>
      </trkpt>
      <trkpt lat="45.76719" lon="5.67981">
        <ele>384.59997558594</ele>
        <time>2012-05-13T12:12:28Z</time>
      </trkpt>
      <trkpt lat="45.76724" lon="5.67969">
        <ele>383.90002441406</ele>
        <time>2012-05-13T12:12:34Z</time>
      </trkpt>
      <trkpt lat="45.76729" lon="5.67958">
        <ele>382.79998779297</ele>
        <time>2012-05-13T12:12:40Z</time>
      </trkpt>
      <trkpt lat="45.76734" lon="5.67946">
        <ele>382.20001220703</ele>
        <time>2012-05-13T12:12:46Z</time>
      </trkpt>
      <trkpt lat="45.7674" lon="5.67934">
        <ele>381.29998779297</ele>
        <time>2012-05-13T12:12:52Z</time>
      </trkpt>
      <trkpt lat="45.76745" lon="5.67923">
        <ele>380.20001220703</ele>
        <time>2012-05-13T12:12:58Z</time>
      </trkpt>
      <trkpt lat="45.7675" lon="5.67911">
        <ele>379.40002441406</ele>
        <time>2012-05-13T12:13:05Z</time>
      </trkpt>
      <trkpt lat="45.76755" lon="5.679">
        <ele>379.70001220703</ele>
        <time>2012-05-13T12:13:12Z</time>
      </trkpt>
      <trkpt lat="45.76761" lon="5.67888">
        <ele>378.79998779297</ele>
        <time>2012-05-13T12:13:19Z</time>
      </trkpt>
      <trkpt lat="45.76766" lon="5.67877">
        <ele>378.09997558594</ele>
        <time>2012-05-13T12:13:25Z</time>
      </trkpt>
      <trkpt lat="45.76771" lon="5.67865">
        <ele>377.70001220703</ele>
        <time>2012-05-13T12:13:32Z</time>
      </trkpt>
      <trkpt lat="45.76777" lon="5.67852">
        <ele>376.79998779297</ele>
        <time>2012-05-13T12:13:39Z</time>
      </trkpt>
      <trkpt lat="45.76782" lon="5.67841">
        <ele>376.90002441406</ele>
        <time>2012-05-13T12:13:45Z</time>
      </trkpt>
      <trkpt lat="45.76787" lon="5.6783">
        <ele>376.40002441406</ele>
        <time>2012-05-13T12:13:51Z</time>
      </trkpt>
      <trkpt lat="45.76792" lon="5.67817">
        <ele>375.90002441406</ele>
        <time>2012-05-13T12:13:58Z</time>
      </trkpt>
      <trkpt lat="45.76798" lon="5.67807">
        <ele>375</ele>
        <time>2012-05-13T12:14:04Z</time>
      </trkpt>
      <trkpt lat="45.76801" lon="5.67794">
        <ele>374.70001220703</ele>
        <time>2012-05-13T12:14:11Z</time>
      </trkpt>
      <trkpt lat="45.76806" lon="5.67783">
        <ele>374.59997558594</ele>
        <time>2012-05-13T12:14:17Z</time>
      </trkpt>
      <trkpt lat="45.76811" lon="5.67771">
        <ele>374.79998779297</ele>
        <time>2012-05-13T12:14:24Z</time>
      </trkpt>
      <trkpt lat="45.76816" lon="5.67759">
        <ele>375.59997558594</ele>
        <time>2012-05-13T12:14:31Z</time>
      </trkpt>
      <trkpt lat="45.76823" lon="5.67749">
        <ele>377.29998779297</ele>
        <time>2012-05-13T12:14:39Z</time>
      </trkpt>
      <trkpt lat="45.76829" lon="5.6774">
        <ele>377.20001220703</ele>
        <time>2012-05-13T12:14:46Z</time>
      </trkpt>
      <trkpt lat="45.76839" lon="5.67716">
        <ele>376.5</ele>
        <time>2012-05-13T12:14:58Z</time>
      </trkpt>
      <trkpt lat="45.76844" lon="5.67705">
        <ele>376.59997558594</ele>
        <time>2012-05-13T12:15:05Z</time>
      </trkpt>
      <trkpt lat="45.76849" lon="5.67695">
        <ele>376.59997558594</ele>
        <time>2012-05-13T12:15:12Z</time>
      </trkpt>
      <trkpt lat="45.7686" lon="5.67672">
        <ele>373.20001220703</ele>
        <time>2012-05-13T12:15:23Z</time>
      </trkpt>
      <trkpt lat="45.76867" lon="5.67661">
        <ele>372.09997558594</ele>
        <time>2012-05-13T12:15:30Z</time>
      </trkpt>
      <trkpt lat="45.76872" lon="5.67649">
        <ele>371.20001220703</ele>
        <time>2012-05-13T12:15:37Z</time>
      </trkpt>
      <trkpt lat="45.76877" lon="5.67638">
        <ele>370.5</ele>
        <time>2012-05-13T12:15:43Z</time>
      </trkpt>
      <trkpt lat="45.76873" lon="5.67625">
        <ele>369.79998779297</ele>
        <time>2012-05-13T12:15:51Z</time>
      </trkpt>
      <trkpt lat="45.76866" lon="5.67615">
        <ele>369.59997558594</ele>
        <time>2012-05-13T12:15:57Z</time>
      </trkpt>
      <trkpt lat="45.76859" lon="5.67606">
        <ele>369.29998779297</ele>
        <time>2012-05-13T12:16:03Z</time>
      </trkpt>
      <trkpt lat="45.76851" lon="5.67597">
        <ele>370.20001220703</ele>
        <time>2012-05-13T12:16:08Z</time>
      </trkpt>
      <trkpt lat="45.76844" lon="5.67587">
        <ele>370.40002441406</ele>
        <time>2012-05-13T12:16:13Z</time>
      </trkpt>
      <trkpt lat="45.76837" lon="5.67577">
        <ele>370.20001220703</ele>
        <time>2012-05-13T12:16:19Z</time>
      </trkpt>
      <trkpt lat="45.76831" lon="5.67568">
        <ele>370.40002441406</ele>
        <time>2012-05-13T12:16:25Z</time>
      </trkpt>
      <trkpt lat="45.76815" lon="5.67548">
        <ele>369.20001220703</ele>
        <time>2012-05-13T12:16:39Z</time>
      </trkpt>
      <trkpt lat="45.76809" lon="5.67539">
        <ele>368.90002441406</ele>
        <time>2012-05-13T12:16:45Z</time>
      </trkpt>
      <trkpt lat="45.76802" lon="5.6753">
        <ele>368.59997558594</ele>
        <time>2012-05-13T12:16:51Z</time>
      </trkpt>
      <trkpt lat="45.76791" lon="5.67507">
        <ele>369.40002441406</ele>
        <time>2012-05-13T12:17:04Z</time>
      </trkpt>
      <trkpt lat="45.76787" lon="5.67495">
        <ele>370.09997558594</ele>
        <time>2012-05-13T12:17:33Z</time>
      </trkpt>
      <trkpt lat="45.7678" lon="5.67484">
        <ele>371.20001220703</ele>
        <time>2012-05-13T12:17:40Z</time>
      </trkpt>
      <trkpt lat="45.76774" lon="5.67474">
        <ele>373.09997558594</ele>
        <time>2012-05-13T12:17:47Z</time>
      </trkpt>
      <trkpt lat="45.76767" lon="5.67464">
        <ele>374.70001220703</ele>
        <time>2012-05-13T12:17:55Z</time>
      </trkpt>
      <trkpt lat="45.7676" lon="5.67454">
        <ele>375.40002441406</ele>
        <time>2012-05-13T12:18:02Z</time>
      </trkpt>
      <trkpt lat="45.76745" lon="5.67436">
        <ele>376.79998779297</ele>
        <time>2012-05-13T12:18:18Z</time>
      </trkpt>
      <trkpt lat="45.7674" lon="5.67425">
        <ele>374.5</ele>
        <time>2012-05-13T12:18:24Z</time>
      </trkpt>
      <trkpt lat="45.76733" lon="5.67415">
        <ele>375.29998779297</ele>
        <time>2012-05-13T12:18:30Z</time>
      </trkpt>
      <trkpt lat="45.76728" lon="5.67404">
        <ele>375.59997558594</ele>
        <time>2012-05-13T12:18:37Z</time>
      </trkpt>
      <trkpt lat="45.76722" lon="5.67392">
        <ele>375.90002441406</ele>
        <time>2012-05-13T12:18:43Z</time>
      </trkpt>
      <trkpt lat="45.76715" lon="5.67382">
        <ele>375.29998779297</ele>
        <time>2012-05-13T12:18:50Z</time>
      </trkpt>
      <trkpt lat="45.76708" lon="5.67371">
        <ele>375.90002441406</ele>
        <time>2012-05-13T12:18:56Z</time>
      </trkpt>
      <trkpt lat="45.76701" lon="5.67363">
        <ele>376.5</ele>
        <time>2012-05-13T12:19:02Z</time>
      </trkpt>
      <trkpt lat="45.76693" lon="5.67354">
        <ele>377.20001220703</ele>
        <time>2012-05-13T12:19:09Z</time>
      </trkpt>
      <trkpt lat="45.76686" lon="5.67345">
        <ele>376.90002441406</ele>
        <time>2012-05-13T12:19:16Z</time>
      </trkpt>
      <trkpt lat="45.7667" lon="5.67325">
        <ele>378.5</ele>
        <time>2012-05-13T12:19:31Z</time>
      </trkpt>
      <trkpt lat="45.76659" lon="5.67302">
        <ele>375.90002441406</ele>
        <time>2012-05-13T12:19:43Z</time>
      </trkpt>
      <trkpt lat="45.76648" lon="5.6728">
        <ele>374.90002441406</ele>
        <time>2012-05-13T12:19:58Z</time>
      </trkpt>
      <trkpt lat="45.76636" lon="5.67256">
        <ele>372.20001220703</ele>
        <time>2012-05-13T12:20:12Z</time>
      </trkpt>
      <trkpt lat="45.76623" lon="5.67234">
        <ele>371</ele>
        <time>2012-05-13T12:20:29Z</time>
      </trkpt>
      <trkpt lat="45.76619" lon="5.67222">
        <ele>369.09997558594</ele>
        <time>2012-05-13T12:20:35Z</time>
      </trkpt>
      <trkpt lat="45.76614" lon="5.67211">
        <ele>368.29998779297</ele>
        <time>2012-05-13T12:20:41Z</time>
      </trkpt>
      <trkpt lat="45.76609" lon="5.67185">
        <ele>365.70001220703</ele>
        <time>2012-05-13T12:20:53Z</time>
      </trkpt>
      <trkpt lat="45.76608" lon="5.67171">
        <ele>363.79998779297</ele>
        <time>2012-05-13T12:20:59Z</time>
      </trkpt>
      <trkpt lat="45.76608" lon="5.67156">
        <ele>361.70001220703</ele>
        <time>2012-05-13T12:21:06Z</time>
      </trkpt>
      <trkpt lat="45.76609" lon="5.67142">
        <ele>361</ele>
        <time>2012-05-13T12:21:12Z</time>
      </trkpt>
      <trkpt lat="45.76602" lon="5.67119">
        <ele>360.59997558594</ele>
        <time>2012-05-13T12:21:25Z</time>
      </trkpt>
      <trkpt lat="45.7659" lon="5.67098">
        <ele>358.90002441406</ele>
        <time>2012-05-13T12:21:40Z</time>
      </trkpt>
      <trkpt lat="45.76579" lon="5.67075">
        <ele>356.29998779297</ele>
        <time>2012-05-13T12:21:54Z</time>
      </trkpt>
      <trkpt lat="45.76585" lon="5.67048">
        <ele>353.40002441406</ele>
        <time>2012-05-13T12:22:06Z</time>
      </trkpt>
      <trkpt lat="45.76589" lon="5.67035">
        <ele>352.09997558594</ele>
        <time>2012-05-13T12:22:12Z</time>
      </trkpt>
      <trkpt lat="45.76592" lon="5.67022">
        <ele>351.5</ele>
        <time>2012-05-13T12:22:19Z</time>
      </trkpt>
      <trkpt lat="45.76592" lon="5.67008">
        <ele>351.40002441406</ele>
        <time>2012-05-13T12:22:26Z</time>
      </trkpt>
      <trkpt lat="45.76587" lon="5.66982">
        <ele>352</ele>
        <time>2012-05-13T12:22:42Z</time>
      </trkpt>
      <trkpt lat="45.76587" lon="5.66953">
        <ele>353.90002441406</ele>
        <time>2012-05-13T12:22:55Z</time>
      </trkpt>
      <trkpt lat="45.76589" lon="5.66925">
        <ele>354.70001220703</ele>
        <time>2012-05-13T12:23:08Z</time>
      </trkpt>
      <trkpt lat="45.76595" lon="5.66899">
        <ele>354.79998779297</ele>
        <time>2012-05-13T12:23:24Z</time>
      </trkpt>
      <trkpt lat="45.766" lon="5.66872">
        <ele>354.59997558594</ele>
        <time>2012-05-13T12:23:38Z</time>
      </trkpt>
      <trkpt lat="45.76606" lon="5.66845">
        <ele>352.70001220703</ele>
        <time>2012-05-13T12:23:52Z</time>
      </trkpt>
      <trkpt lat="45.7661" lon="5.66818">
        <ele>350.79998779297</ele>
        <time>2012-05-13T12:24:07Z</time>
      </trkpt>
      <trkpt lat="45.76615" lon="5.66793">
        <ele>349.29998779297</ele>
        <time>2012-05-13T12:24:19Z</time>
      </trkpt>
      <trkpt lat="45.76617" lon="5.6678">
        <ele>348.09997558594</ele>
        <time>2012-05-13T12:24:25Z</time>
      </trkpt>
      <trkpt lat="45.76618" lon="5.66766">
        <ele>346.5</ele>
        <time>2012-05-13T12:24:32Z</time>
      </trkpt>
      <trkpt lat="45.7662" lon="5.66752">
        <ele>345.09997558594</ele>
        <time>2012-05-13T12:24:39Z</time>
      </trkpt>
      <trkpt lat="45.76623" lon="5.6674">
        <ele>343.70001220703</ele>
        <time>2012-05-13T12:24:45Z</time>
      </trkpt>
      <trkpt lat="45.76631" lon="5.66714">
        <ele>341.79998779297</ele>
        <time>2012-05-13T12:24:59Z</time>
      </trkpt>
      <trkpt lat="45.76643" lon="5.6669">
        <ele>339.79998779297</ele>
        <time>2012-05-13T12:25:13Z</time>
      </trkpt>
      <trkpt lat="45.76657" lon="5.66655">
        <ele>337.40002441406</ele>
        <time>2012-05-13T12:25:40Z</time>
      </trkpt>
      <trkpt lat="45.76665" lon="5.66628">
        <ele>336</ele>
        <time>2012-05-13T12:25:56Z</time>
      </trkpt>
      <trkpt lat="45.76668" lon="5.66601">
        <ele>332.90002441406</ele>
        <time>2012-05-13T12:26:13Z</time>
      </trkpt>
      <trkpt lat="45.76663" lon="5.66574">
        <ele>334.90002441406</ele>
        <time>2012-05-13T12:26:29Z</time>
      </trkpt>
      <trkpt lat="45.76659" lon="5.66546">
        <ele>334.70001220703</ele>
        <time>2012-05-13T12:26:38Z</time>
      </trkpt>
      <trkpt lat="45.76649" lon="5.66523">
        <ele>335.5</ele>
        <time>2012-05-13T12:26:56Z</time>
      </trkpt>
      <trkpt lat="45.76644" lon="5.66497">
        <ele>334.70001220703</ele>
        <time>2012-05-13T12:27:07Z</time>
      </trkpt>
      <trkpt lat="45.76651" lon="5.6647">
        <ele>335.70001220703</ele>
        <time>2012-05-13T12:27:20Z</time>
      </trkpt>
      <trkpt lat="45.7665" lon="5.66445">
        <ele>331.59997558594</ele>
        <time>2012-05-13T12:27:35Z</time>
      </trkpt>
      <trkpt lat="45.76634" lon="5.66432">
        <ele>333</ele>
        <time>2012-05-13T12:27:46Z</time>
      </trkpt>
      <trkpt lat="45.76615" lon="5.66426">
        <ele>332.59997558594</ele>
        <time>2012-05-13T12:28:01Z</time>
      </trkpt>
      <trkpt lat="45.76595" lon="5.66428">
        <ele>332</ele>
        <time>2012-05-13T12:28:13Z</time>
      </trkpt>
      <trkpt lat="45.76576" lon="5.66429">
        <ele>332.20001220703</ele>
        <time>2012-05-13T12:28:26Z</time>
      </trkpt>
      <trkpt lat="45.76557" lon="5.66429">
        <ele>334.09997558594</ele>
        <time>2012-05-13T12:28:42Z</time>
      </trkpt>
      <trkpt lat="45.76537" lon="5.66421">
        <ele>334.09997558594</ele>
        <time>2012-05-13T12:28:54Z</time>
      </trkpt>
      <trkpt lat="45.76518" lon="5.66414">
        <ele>335</ele>
        <time>2012-05-13T12:29:08Z</time>
      </trkpt>
      <trkpt lat="45.76498" lon="5.66407">
        <ele>332.5</ele>
        <time>2012-05-13T12:29:15Z</time>
      </trkpt>
      <trkpt lat="45.76483" lon="5.66392">
        <ele>329.79998779297</ele>
        <time>2012-05-13T12:29:24Z</time>
      </trkpt>
      <trkpt lat="45.76466" lon="5.66383">
        <ele>330.29998779297</ele>
        <time>2012-05-13T12:29:43Z</time>
      </trkpt>
      <trkpt lat="45.76447" lon="5.66386">
        <ele>325.40002441406</ele>
        <time>2012-05-13T12:29:54Z</time>
      </trkpt>
      <trkpt lat="45.76428" lon="5.66388">
        <ele>324.79998779297</ele>
        <time>2012-05-13T12:30:07Z</time>
      </trkpt>
      <trkpt lat="45.76408" lon="5.6639">
        <ele>322.59997558594</ele>
        <time>2012-05-13T12:30:19Z</time>
      </trkpt>
      <trkpt lat="45.76393" lon="5.66374">
        <ele>311.40002441406</ele>
        <time>2012-05-13T12:32:34Z</time>
      </trkpt>
      <trkpt lat="45.7641" lon="5.66361">
        <ele>313.40002441406</ele>
        <time>2012-05-13T12:32:55Z</time>
      </trkpt>
      <trkpt lat="45.76425" lon="5.66346">
        <ele>318.20001220703</ele>
        <time>2012-05-13T12:33:12Z</time>
      </trkpt>
      <trkpt lat="45.76443" lon="5.66332">
        <ele>320</ele>
        <time>2012-05-13T12:33:27Z</time>
      </trkpt>
      <trkpt lat="45.76461" lon="5.66323">
        <ele>319.90002441406</ele>
        <time>2012-05-13T12:33:41Z</time>
      </trkpt>
      <trkpt lat="45.76489" lon="5.66312">
        <ele>317.59997558594</ele>
        <time>2012-05-13T12:34:01Z</time>
      </trkpt>
      <trkpt lat="45.76508" lon="5.66307">
        <ele>318.70001220703</ele>
        <time>2012-05-13T12:34:12Z</time>
      </trkpt>
      <trkpt lat="45.76528" lon="5.663">
        <ele>318.70001220703</ele>
        <time>2012-05-13T12:34:27Z</time>
      </trkpt>
      <trkpt lat="45.76547" lon="5.66293">
        <ele>318.20001220703</ele>
        <time>2012-05-13T12:34:43Z</time>
      </trkpt>
      <trkpt lat="45.76565" lon="5.66283">
        <ele>317.79998779297</ele>
        <time>2012-05-13T12:34:58Z</time>
      </trkpt>
      <trkpt lat="45.76583" lon="5.6628">
        <ele>318</ele>
        <time>2012-05-13T12:35:09Z</time>
      </trkpt>
      <trkpt lat="45.76604" lon="5.66279">
        <ele>317.59997558594</ele>
        <time>2012-05-13T12:35:23Z</time>
      </trkpt>
      <trkpt lat="45.76596" lon="5.66273">
        <ele>312</ele>
        <time>2012-05-13T12:35:59Z</time>
      </trkpt>
      <trkpt lat="45.76566" lon="5.66274">
        <ele>310.09997558594</ele>
        <time>2012-05-13T12:36:17Z</time>
      </trkpt>
      <trkpt lat="45.76547" lon="5.66274">
        <ele>310.09997558594</ele>
        <time>2012-05-13T12:36:30Z</time>
      </trkpt>
      <trkpt lat="45.76527" lon="5.66275">
        <ele>309.79998779297</ele>
        <time>2012-05-13T12:36:42Z</time>
      </trkpt>
      <trkpt lat="45.76507" lon="5.66273">
        <ele>308.29998779297</ele>
        <time>2012-05-13T12:36:53Z</time>
      </trkpt>
      <trkpt lat="45.76486" lon="5.66273">
        <ele>306.5</ele>
        <time>2012-05-13T12:37:03Z</time>
      </trkpt>
      <trkpt lat="45.76455" lon="5.66276">
        <ele>304.70001220703</ele>
        <time>2012-05-13T12:37:20Z</time>
      </trkpt>
      <trkpt lat="45.76436" lon="5.66278">
        <ele>304.59997558594</ele>
        <time>2012-05-13T12:37:31Z</time>
      </trkpt>
      <trkpt lat="45.76406" lon="5.66285">
        <ele>301.70001220703</ele>
        <time>2012-05-13T12:37:40Z</time>
      </trkpt>
      <trkpt lat="45.76374" lon="5.66293">
        <ele>298</ele>
        <time>2012-05-13T12:37:47Z</time>
      </trkpt>
      <trkpt lat="45.76356" lon="5.66294">
        <ele>296.29998779297</ele>
        <time>2012-05-13T12:37:51Z</time>
      </trkpt>
      <trkpt lat="45.76333" lon="5.66303">
        <ele>293</ele>
        <time>2012-05-13T12:37:56Z</time>
      </trkpt>
      <trkpt lat="45.76302" lon="5.66309">
        <ele>291.20001220703</ele>
        <time>2012-05-13T12:38:02Z</time>
      </trkpt>
      <trkpt lat="45.76283" lon="5.66309">
        <ele>291.40002441406</ele>
        <time>2012-05-13T12:38:06Z</time>
      </trkpt>
      <trkpt lat="45.76264" lon="5.66304">
        <ele>291.5</ele>
        <time>2012-05-13T12:38:10Z</time>
      </trkpt>
      <trkpt lat="45.76242" lon="5.66299">
        <ele>291.20001220703</ele>
        <time>2012-05-13T12:38:15Z</time>
      </trkpt>
      <trkpt lat="45.7622" lon="5.66297">
        <ele>290.40002441406</ele>
        <time>2012-05-13T12:38:20Z</time>
      </trkpt>
      <trkpt lat="45.76197" lon="5.66308">
        <ele>290.90002441406</ele>
        <time>2012-05-13T12:38:26Z</time>
      </trkpt>
      <trkpt lat="45.76179" lon="5.66319">
        <ele>291.09997558594</ele>
        <time>2012-05-13T12:38:35Z</time>
      </trkpt>
      <trkpt lat="45.76153" lon="5.66335">
        <ele>292.5</ele>
        <time>2012-05-13T12:38:59Z</time>
      </trkpt>
      <trkpt lat="45.76134" lon="5.66326">
        <ele>294.20001220703</ele>
        <time>2012-05-13T12:39:13Z</time>
      </trkpt>
      <trkpt lat="45.76115" lon="5.66319">
        <ele>294.70001220703</ele>
        <time>2012-05-13T12:39:26Z</time>
      </trkpt>
      <trkpt lat="45.76096" lon="5.6631">
        <ele>293.59997558594</ele>
        <time>2012-05-13T12:39:36Z</time>
      </trkpt>
      <trkpt lat="45.76078" lon="5.66293">
        <ele>294</ele>
        <time>2012-05-13T12:39:47Z</time>
      </trkpt>
      <trkpt lat="45.76064" lon="5.66276">
        <ele>293.09997558594</ele>
        <time>2012-05-13T12:39:59Z</time>
      </trkpt>
      <trkpt lat="45.76048" lon="5.66261">
        <ele>293.59997558594</ele>
        <time>2012-05-13T12:40:11Z</time>
      </trkpt>
      <trkpt lat="45.76034" lon="5.66244">
        <ele>290.29998779297</ele>
        <time>2012-05-13T12:40:21Z</time>
      </trkpt>
      <trkpt lat="45.7603" lon="5.66217">
        <ele>287.79998779297</ele>
        <time>2012-05-13T12:44:32Z</time>
      </trkpt>
      <trkpt lat="45.76024" lon="5.66207">
        <ele>287.79998779297</ele>
        <time>2012-05-13T12:44:39Z</time>
      </trkpt>
      <trkpt lat="45.76018" lon="5.66196">
        <ele>288.20001220703</ele>
        <time>2012-05-13T12:44:46Z</time>
      </trkpt>
      <trkpt lat="45.76011" lon="5.66185">
        <ele>288.20001220703</ele>
        <time>2012-05-13T12:44:54Z</time>
      </trkpt>
      <trkpt lat="45.76006" lon="5.66174">
        <ele>287.90002441406</ele>
        <time>2012-05-13T12:45:00Z</time>
      </trkpt>
      <trkpt lat="45.76" lon="5.66163">
        <ele>288.5</ele>
        <time>2012-05-13T12:45:07Z</time>
      </trkpt>
      <trkpt lat="45.75997" lon="5.66149">
        <ele>288.29998779297</ele>
        <time>2012-05-13T12:45:14Z</time>
      </trkpt>
      <trkpt lat="45.75995" lon="5.6612">
        <ele>290</ele>
        <time>2012-05-13T12:45:29Z</time>
      </trkpt>
      <trkpt lat="45.75992" lon="5.66093">
        <ele>290.29998779297</ele>
        <time>2012-05-13T12:45:43Z</time>
      </trkpt>
      <trkpt lat="45.75986" lon="5.66068">
        <ele>290</ele>
        <time>2012-05-13T12:45:55Z</time>
      </trkpt>
      <trkpt lat="45.75978" lon="5.66045">
        <ele>292.59997558594</ele>
        <time>2012-05-13T12:46:11Z</time>
      </trkpt>
      <trkpt lat="45.75966" lon="5.6601">
        <ele>290.79998779297</ele>
        <time>2012-05-13T12:46:36Z</time>
      </trkpt>
      <trkpt lat="45.75938" lon="5.66009">
        <ele>291.29998779297</ele>
        <time>2012-05-13T12:46:58Z</time>
      </trkpt>
      <trkpt lat="45.75908" lon="5.66017">
        <ele>287.59997558594</ele>
        <time>2012-05-13T12:47:12Z</time>
      </trkpt>
      <trkpt lat="45.75891" lon="5.66028">
        <ele>290.09997558594</ele>
        <time>2012-05-13T12:47:26Z</time>
      </trkpt>
      <trkpt lat="45.75874" lon="5.66043">
        <ele>294.09997558594</ele>
        <time>2012-05-13T12:47:42Z</time>
      </trkpt>
      <trkpt lat="45.75866" lon="5.66051">
        <ele>294.40002441406</ele>
        <time>2012-05-13T12:47:48Z</time>
      </trkpt>
      <trkpt lat="45.75851" lon="5.66066">
        <ele>293.59997558594</ele>
        <time>2012-05-13T12:47:58Z</time>
      </trkpt>
      <trkpt lat="45.75834" lon="5.66079">
        <ele>292.70001220703</ele>
        <time>2012-05-13T12:48:09Z</time>
      </trkpt>
      <trkpt lat="45.7582" lon="5.66097">
        <ele>293.09997558594</ele>
        <time>2012-05-13T12:48:24Z</time>
      </trkpt>
      <trkpt lat="45.75805" lon="5.66114">
        <ele>290.59997558594</ele>
        <time>2012-05-13T12:48:33Z</time>
      </trkpt>
      <trkpt lat="45.75789" lon="5.66128">
        <ele>288.40002441406</ele>
        <time>2012-05-13T12:48:47Z</time>
      </trkpt>
      <trkpt lat="45.75769" lon="5.66128">
        <ele>288.59997558594</ele>
        <time>2012-05-13T12:48:58Z</time>
      </trkpt>
      <trkpt lat="45.75739" lon="5.6613">
        <ele>289.79998779297</ele>
        <time>2012-05-13T12:49:15Z</time>
      </trkpt>
      <trkpt lat="45.75721" lon="5.66134">
        <ele>291.09997558594</ele>
        <time>2012-05-13T12:49:27Z</time>
      </trkpt>
      <trkpt lat="45.75702" lon="5.66135">
        <ele>292.90002441406</ele>
        <time>2012-05-13T12:49:40Z</time>
      </trkpt>
      <trkpt lat="45.75673" lon="5.66146">
        <ele>290.09997558594</ele>
        <time>2012-05-13T12:49:55Z</time>
      </trkpt>
      <trkpt lat="45.75648" lon="5.66152">
        <ele>286.59997558594</ele>
        <time>2012-05-13T12:50:00Z</time>
      </trkpt>
      <trkpt lat="45.75626" lon="5.66157">
        <ele>284.79998779297</ele>
        <time>2012-05-13T12:50:04Z</time>
      </trkpt>
      <trkpt lat="45.75605" lon="5.6616">
        <ele>284.79998779297</ele>
        <time>2012-05-13T12:50:08Z</time>
      </trkpt>
      <trkpt lat="45.75583" lon="5.66164">
        <ele>283.79998779297</ele>
        <time>2012-05-13T12:50:12Z</time>
      </trkpt>
      <trkpt lat="45.75574" lon="5.66165">
        <ele>283.79998779297</ele>
        <time>2012-05-13T12:50:14Z</time>
      </trkpt>
      <trkpt lat="45.75554" lon="5.66167">
        <ele>283.59997558594</ele>
        <time>2012-05-13T12:50:18Z</time>
      </trkpt>
      <trkpt lat="45.75533" lon="5.66165">
        <ele>283.79998779297</ele>
        <time>2012-05-13T12:50:26Z</time>
      </trkpt>
      <trkpt lat="45.75523" lon="5.66164">
        <ele>283.79998779297</ele>
        <time>2012-05-13T12:50:33Z</time>
      </trkpt>
      <trkpt lat="45.75513" lon="5.66165">
        <ele>283.59997558594</ele>
        <time>2012-05-13T12:50:40Z</time>
      </trkpt>
      <trkpt lat="45.75503" lon="5.66165">
        <ele>283.29998779297</ele>
        <time>2012-05-13T12:50:46Z</time>
      </trkpt>
      <trkpt lat="45.75493" lon="5.66164">
        <ele>283.09997558594</ele>
        <time>2012-05-13T12:50:52Z</time>
      </trkpt>
      <trkpt lat="45.75483" lon="5.66164">
        <ele>283.90002441406</ele>
        <time>2012-05-13T12:50:59Z</time>
      </trkpt>
      <trkpt lat="45.75474" lon="5.66162">
        <ele>283.90002441406</ele>
        <time>2012-05-13T12:51:05Z</time>
      </trkpt>
      <trkpt lat="45.75465" lon="5.66161">
        <ele>283.70001220703</ele>
        <time>2012-05-13T12:51:12Z</time>
      </trkpt>
      <trkpt lat="45.75455" lon="5.66161">
        <ele>283.59997558594</ele>
        <time>2012-05-13T12:51:19Z</time>
      </trkpt>
      <trkpt lat="45.75437" lon="5.66161">
        <ele>283.29998779297</ele>
        <time>2012-05-13T12:51:31Z</time>
      </trkpt>
      <trkpt lat="45.75427" lon="5.6616">
        <ele>282.59997558594</ele>
        <time>2012-05-13T12:51:37Z</time>
      </trkpt>
      <trkpt lat="45.75417" lon="5.66159">
        <ele>283.09997558594</ele>
        <time>2012-05-13T12:51:44Z</time>
      </trkpt>
      <trkpt lat="45.75398" lon="5.66154">
        <ele>282.59997558594</ele>
        <time>2012-05-13T12:51:57Z</time>
      </trkpt>
      <trkpt lat="45.75378" lon="5.66151">
        <ele>282.09997558594</ele>
        <time>2012-05-13T12:52:10Z</time>
      </trkpt>
      <trkpt lat="45.75358" lon="5.66148">
        <ele>280.59997558594</ele>
        <time>2012-05-13T12:52:22Z</time>
      </trkpt>
      <trkpt lat="45.75339" lon="5.66146">
        <ele>280.70001220703</ele>
        <time>2012-05-13T12:52:35Z</time>
      </trkpt>
      <trkpt lat="45.7532" lon="5.66141">
        <ele>280.90002441406</ele>
        <time>2012-05-13T12:52:49Z</time>
      </trkpt>
      <trkpt lat="45.7529" lon="5.6613">
        <ele>279.70001220703</ele>
        <time>2012-05-13T12:53:10Z</time>
      </trkpt>
      <trkpt lat="45.75272" lon="5.66124">
        <ele>280.5</ele>
        <time>2012-05-13T12:53:22Z</time>
      </trkpt>
      <trkpt lat="45.75253" lon="5.66115">
        <ele>281</ele>
        <time>2012-05-13T12:53:34Z</time>
      </trkpt>
      <trkpt lat="45.75234" lon="5.66107">
        <ele>281.29998779297</ele>
        <time>2012-05-13T12:53:46Z</time>
      </trkpt>
      <trkpt lat="45.75214" lon="5.661">
        <ele>281.79998779297</ele>
        <time>2012-05-13T12:53:58Z</time>
      </trkpt>
      <trkpt lat="45.75195" lon="5.66093">
        <ele>281.40002441406</ele>
        <time>2012-05-13T12:54:11Z</time>
      </trkpt>
      <trkpt lat="45.75176" lon="5.66086">
        <ele>281.5</ele>
        <time>2012-05-13T12:54:24Z</time>
      </trkpt>
      <trkpt lat="45.75156" lon="5.66079">
        <ele>282.5</ele>
        <time>2012-05-13T12:54:36Z</time>
      </trkpt>
      <trkpt lat="45.75147" lon="5.66074">
        <ele>282.09997558594</ele>
        <time>2012-05-13T12:54:42Z</time>
      </trkpt>
      <trkpt lat="45.75138" lon="5.66071">
        <ele>282</ele>
        <time>2012-05-13T12:54:48Z</time>
      </trkpt>
      <trkpt lat="45.75115" lon="5.66061">
        <ele>281</ele>
        <time>2012-05-13T12:54:55Z</time>
      </trkpt>
      <trkpt lat="45.75095" lon="5.66052">
        <ele>280.70001220703</ele>
        <time>2012-05-13T12:55:01Z</time>
      </trkpt>
      <trkpt lat="45.75076" lon="5.66055">
        <ele>280.29998779297</ele>
        <time>2012-05-13T12:55:07Z</time>
      </trkpt>
      <trkpt lat="45.75056" lon="5.66062">
        <ele>280.70001220703</ele>
        <time>2012-05-13T12:55:13Z</time>
      </trkpt>
      <trkpt lat="45.75035" lon="5.66071">
        <ele>281.70001220703</ele>
        <time>2012-05-13T12:55:19Z</time>
      </trkpt>
      <trkpt lat="45.75015" lon="5.66084">
        <ele>282</ele>
        <time>2012-05-13T12:55:25Z</time>
      </trkpt>
      <trkpt lat="45.74994" lon="5.66097">
        <ele>282.29998779297</ele>
        <time>2012-05-13T12:55:31Z</time>
      </trkpt>
      <trkpt lat="45.74973" lon="5.6611">
        <ele>282.59997558594</ele>
        <time>2012-05-13T12:55:37Z</time>
      </trkpt>
      <trkpt lat="45.74954" lon="5.66124">
        <ele>282.70001220703</ele>
        <time>2012-05-13T12:55:43Z</time>
      </trkpt>
      <trkpt lat="45.74936" lon="5.6613">
        <ele>282.59997558594</ele>
        <time>2012-05-13T12:55:51Z</time>
      </trkpt>
      <trkpt lat="45.74918" lon="5.66136">
        <ele>285.09997558594</ele>
        <time>2012-05-13T12:56:05Z</time>
      </trkpt>
      <trkpt lat="45.74898" lon="5.66142">
        <ele>285.79998779297</ele>
        <time>2012-05-13T12:56:18Z</time>
      </trkpt>
      <trkpt lat="45.7488" lon="5.66149">
        <ele>284</ele>
        <time>2012-05-13T12:56:29Z</time>
      </trkpt>
      <trkpt lat="45.74858" lon="5.66162">
        <ele>282.40002441406</ele>
        <time>2012-05-13T12:56:35Z</time>
      </trkpt>
      <trkpt lat="45.74836" lon="5.66172">
        <ele>280.5</ele>
        <time>2012-05-13T12:56:39Z</time>
      </trkpt>
      <trkpt lat="45.74817" lon="5.66182">
        <ele>280</ele>
        <time>2012-05-13T12:56:43Z</time>
      </trkpt>
      <trkpt lat="45.74807" lon="5.66185">
        <ele>279.09997558594</ele>
        <time>2012-05-13T12:56:45Z</time>
      </trkpt>
      <trkpt lat="45.74797" lon="5.6619">
        <ele>278.79998779297</ele>
        <time>2012-05-13T12:56:47Z</time>
      </trkpt>
      <trkpt lat="45.74778" lon="5.66201">
        <ele>278.5</ele>
        <time>2012-05-13T12:56:51Z</time>
      </trkpt>
      <trkpt lat="45.74759" lon="5.66212">
        <ele>278.40002441406</ele>
        <time>2012-05-13T12:56:55Z</time>
      </trkpt>
      <trkpt lat="45.74739" lon="5.66221">
        <ele>278.79998779297</ele>
        <time>2012-05-13T12:56:59Z</time>
      </trkpt>
      <trkpt lat="45.74718" lon="5.66229">
        <ele>278.90002441406</ele>
        <time>2012-05-13T12:57:03Z</time>
      </trkpt>
      <trkpt lat="45.74697" lon="5.66237">
        <ele>278.59997558594</ele>
        <time>2012-05-13T12:57:07Z</time>
      </trkpt>
      <trkpt lat="45.74676" lon="5.66243">
        <ele>278.40002441406</ele>
        <time>2012-05-13T12:57:11Z</time>
      </trkpt>
      <trkpt lat="45.74654" lon="5.66248">
        <ele>278.59997558594</ele>
        <time>2012-05-13T12:57:15Z</time>
      </trkpt>
      <trkpt lat="45.74631" lon="5.66249">
        <ele>278.70001220703</ele>
        <time>2012-05-13T12:57:19Z</time>
      </trkpt>
      <trkpt lat="45.74609" lon="5.66249">
        <ele>278.70001220703</ele>
        <time>2012-05-13T12:57:23Z</time>
      </trkpt>
      <trkpt lat="45.74587" lon="5.66247">
        <ele>279</ele>
        <time>2012-05-13T12:57:27Z</time>
      </trkpt>
      <trkpt lat="45.74567" lon="5.66245">
        <ele>278.79998779297</ele>
        <time>2012-05-13T12:57:31Z</time>
      </trkpt>
      <trkpt lat="45.74543" lon="5.66243">
        <ele>279.79998779297</ele>
        <time>2012-05-13T12:57:37Z</time>
      </trkpt>
      <trkpt lat="45.74518" lon="5.66243">
        <ele>280.40002441406</ele>
        <time>2012-05-13T12:57:43Z</time>
      </trkpt>
      <trkpt lat="45.74498" lon="5.6625">
        <ele>281.59997558594</ele>
        <time>2012-05-13T12:57:49Z</time>
      </trkpt>
      <trkpt lat="45.74468" lon="5.66263">
        <ele>283.29998779297</ele>
        <time>2012-05-13T12:57:56Z</time>
      </trkpt>
      <trkpt lat="45.74449" lon="5.66272">
        <ele>285</ele>
        <time>2012-05-13T12:58:00Z</time>
      </trkpt>
      <trkpt lat="45.74426" lon="5.66278">
        <ele>285.59997558594</ele>
        <time>2012-05-13T12:58:04Z</time>
      </trkpt>
      <trkpt lat="45.74407" lon="5.66277">
        <ele>285.70001220703</ele>
        <time>2012-05-13T12:58:08Z</time>
      </trkpt>
      <trkpt lat="45.74384" lon="5.66276">
        <ele>285.90002441406</ele>
        <time>2012-05-13T12:58:15Z</time>
      </trkpt>
      <trkpt lat="45.74361" lon="5.66273">
        <ele>286.20001220703</ele>
        <time>2012-05-13T12:58:26Z</time>
      </trkpt>
      <trkpt lat="45.74332" lon="5.66265">
        <ele>290.40002441406</ele>
        <time>2012-05-13T12:58:46Z</time>
      </trkpt>
      <trkpt lat="45.74304" lon="5.6626">
        <ele>293.59997558594</ele>
        <time>2012-05-13T12:59:04Z</time>
      </trkpt>
      <trkpt lat="45.74276" lon="5.66248">
        <ele>298.59997558594</ele>
        <time>2012-05-13T12:59:19Z</time>
      </trkpt>
      <trkpt lat="45.7425" lon="5.66229">
        <ele>296.29998779297</ele>
        <time>2012-05-13T12:59:38Z</time>
      </trkpt>
      <trkpt lat="45.74231" lon="5.66218">
        <ele>298.90002441406</ele>
        <time>2012-05-13T12:59:47Z</time>
      </trkpt>
      <trkpt lat="45.74209" lon="5.66195">
        <ele>305.29998779297</ele>
        <time>2012-05-13T13:00:08Z</time>
      </trkpt>
      <trkpt lat="45.74183" lon="5.66176">
        <ele>306.59997558594</ele>
        <time>2012-05-13T13:00:29Z</time>
      </trkpt>
      <trkpt lat="45.74158" lon="5.66157">
        <ele>306.20001220703</ele>
        <time>2012-05-13T13:00:48Z</time>
      </trkpt>
      <trkpt lat="45.74128" lon="5.66143">
        <ele>304.79998779297</ele>
        <time>2012-05-13T13:01:05Z</time>
      </trkpt>
      <trkpt lat="45.74102" lon="5.66127">
        <ele>300.09997558594</ele>
        <time>2012-05-13T13:01:19Z</time>
      </trkpt>
      <trkpt lat="45.74076" lon="5.66107">
        <ele>293.70001220703</ele>
        <time>2012-05-13T13:01:33Z</time>
      </trkpt>
      <trkpt lat="45.74051" lon="5.66084">
        <ele>294</ele>
        <time>2012-05-13T13:01:51Z</time>
      </trkpt>
      <trkpt lat="45.74032" lon="5.66074">
        <ele>294.09997558594</ele>
        <time>2012-05-13T13:02:00Z</time>
      </trkpt>
      <trkpt lat="45.74024" lon="5.66048">
        <ele>291.5</ele>
        <time>2012-05-13T13:02:12Z</time>
      </trkpt>
      <trkpt lat="45.74025" lon="5.66021">
        <ele>292.70001220703</ele>
        <time>2012-05-13T13:02:23Z</time>
      </trkpt>
      <trkpt lat="45.74032" lon="5.65996">
        <ele>290.90002441406</ele>
        <time>2012-05-13T13:02:32Z</time>
      </trkpt>
      <trkpt lat="45.74037" lon="5.65955">
        <ele>288.20001220703</ele>
        <time>2012-05-13T13:02:47Z</time>
      </trkpt>
      <trkpt lat="45.74041" lon="5.65928">
        <ele>286.59997558594</ele>
        <time>2012-05-13T13:03:01Z</time>
      </trkpt>
      <trkpt lat="45.74046" lon="5.65902">
        <ele>287.59997558594</ele>
        <time>2012-05-13T13:03:15Z</time>
      </trkpt>
      <trkpt lat="45.74056" lon="5.65875">
        <ele>287.29998779297</ele>
        <time>2012-05-13T13:03:25Z</time>
      </trkpt>
      <trkpt lat="45.7407" lon="5.65855">
        <ele>285.40002441406</ele>
        <time>2012-05-13T13:03:34Z</time>
      </trkpt>
      <trkpt lat="45.7408" lon="5.6583">
        <ele>286.20001220703</ele>
        <time>2012-05-13T13:03:46Z</time>
      </trkpt>
      <trkpt lat="45.74087" lon="5.65804">
        <ele>284.20001220703</ele>
        <time>2012-05-13T13:03:58Z</time>
      </trkpt>
      <trkpt lat="45.74101" lon="5.65785">
        <ele>277.40002441406</ele>
        <time>2012-05-13T13:04:09Z</time>
      </trkpt>
      <trkpt lat="45.7411" lon="5.65779">
        <ele>277.59997558594</ele>
        <time>2012-05-13T13:04:13Z</time>
      </trkpt>
      <trkpt lat="45.74124" lon="5.65763">
        <ele>278.59997558594</ele>
        <time>2012-05-13T13:04:22Z</time>
      </trkpt>
      <trkpt lat="45.7414" lon="5.65748">
        <ele>278.20001220703</ele>
        <time>2012-05-13T13:04:30Z</time>
      </trkpt>
      <trkpt lat="45.74155" lon="5.65734">
        <ele>280.09997558594</ele>
        <time>2012-05-13T13:04:44Z</time>
      </trkpt>
      <trkpt lat="45.74171" lon="5.65717">
        <ele>281.59997558594</ele>
        <time>2012-05-13T13:04:57Z</time>
      </trkpt>
      <trkpt lat="45.74189" lon="5.6571">
        <ele>283.70001220703</ele>
        <time>2012-05-13T13:05:08Z</time>
      </trkpt>
      <trkpt lat="45.74198" lon="5.6571">
        <ele>286.09997558594</ele>
        <time>2012-05-13T13:05:17Z</time>
      </trkpt>
      <trkpt lat="45.74216" lon="5.65701">
        <ele>284.20001220703</ele>
        <time>2012-05-13T13:05:54Z</time>
      </trkpt>
      <trkpt lat="45.74225" lon="5.65692">
        <ele>283.40002441406</ele>
        <time>2012-05-13T13:05:58Z</time>
      </trkpt>
      <trkpt lat="45.74235" lon="5.65665">
        <ele>283.40002441406</ele>
        <time>2012-05-13T13:06:06Z</time>
      </trkpt>
      <trkpt lat="45.74236" lon="5.65638">
        <ele>283.79998779297</ele>
        <time>2012-05-13T13:06:15Z</time>
      </trkpt>
      <trkpt lat="45.74239" lon="5.65611">
        <ele>284.40002441406</ele>
        <time>2012-05-13T13:06:23Z</time>
      </trkpt>
      <trkpt lat="45.74242" lon="5.65599">
        <ele>284.20001220703</ele>
        <time>2012-05-13T13:06:27Z</time>
      </trkpt>
      <trkpt lat="45.74245" lon="5.65586">
        <ele>285.20001220703</ele>
        <time>2012-05-13T13:06:32Z</time>
      </trkpt>
      <trkpt lat="45.7425" lon="5.65573">
        <ele>285.5</ele>
        <time>2012-05-13T13:06:38Z</time>
      </trkpt>
      <trkpt lat="45.74254" lon="5.65561">
        <ele>285.79998779297</ele>
        <time>2012-05-13T13:06:44Z</time>
      </trkpt>
      <trkpt lat="45.74258" lon="5.65549">
        <ele>285.79998779297</ele>
        <time>2012-05-13T13:06:50Z</time>
      </trkpt>
      <trkpt lat="45.7426" lon="5.65535">
        <ele>286.29998779297</ele>
        <time>2012-05-13T13:06:56Z</time>
      </trkpt>
      <trkpt lat="45.74261" lon="5.65522">
        <ele>285.59997558594</ele>
        <time>2012-05-13T13:07:02Z</time>
      </trkpt>
      <trkpt lat="45.74265" lon="5.65509">
        <ele>285.59997558594</ele>
        <time>2012-05-13T13:07:10Z</time>
      </trkpt>
      <trkpt lat="45.74266" lon="5.65495">
        <ele>285.5</ele>
        <time>2012-05-13T13:07:20Z</time>
      </trkpt>
      <trkpt lat="45.74265" lon="5.6547">
        <ele>285.09997558594</ele>
        <time>2012-05-13T13:10:20Z</time>
      </trkpt>
      <trkpt lat="45.74263" lon="5.65457">
        <ele>285.70001220703</ele>
        <time>2012-05-13T13:10:27Z</time>
      </trkpt>
      <trkpt lat="45.74264" lon="5.65427">
        <ele>285.79998779297</ele>
        <time>2012-05-13T13:10:39Z</time>
      </trkpt>
      <trkpt lat="45.74263" lon="5.654">
        <ele>284.79998779297</ele>
        <time>2012-05-13T13:10:53Z</time>
      </trkpt>
      <trkpt lat="45.74266" lon="5.65373">
        <ele>284.09997558594</ele>
        <time>2012-05-13T13:11:04Z</time>
      </trkpt>
      <trkpt lat="45.74266" lon="5.65359">
        <ele>284.59997558594</ele>
        <time>2012-05-13T13:11:10Z</time>
      </trkpt>
      <trkpt lat="45.74265" lon="5.6533">
        <ele>285.09997558594</ele>
        <time>2012-05-13T13:11:24Z</time>
      </trkpt>
      <trkpt lat="45.74264" lon="5.65302">
        <ele>286.59997558594</ele>
        <time>2012-05-13T13:11:38Z</time>
      </trkpt>
      <trkpt lat="45.74263" lon="5.65274">
        <ele>288.20001220703</ele>
        <time>2012-05-13T13:11:52Z</time>
      </trkpt>
      <trkpt lat="45.74266" lon="5.65245">
        <ele>288.5</ele>
        <time>2012-05-13T13:12:04Z</time>
      </trkpt>
      <trkpt lat="45.7427" lon="5.65217">
        <ele>290.29998779297</ele>
        <time>2012-05-13T13:12:16Z</time>
      </trkpt>
      <trkpt lat="45.74272" lon="5.65191">
        <ele>291.70001220703</ele>
        <time>2012-05-13T13:12:29Z</time>
      </trkpt>
      <trkpt lat="45.74267" lon="5.65165">
        <ele>292.09997558594</ele>
        <time>2012-05-13T13:12:44Z</time>
      </trkpt>
      <trkpt lat="45.74266" lon="5.65151">
        <ele>292.5</ele>
        <time>2012-05-13T13:12:51Z</time>
      </trkpt>
      <trkpt lat="45.74266" lon="5.65137">
        <ele>291.29998779297</ele>
        <time>2012-05-13T13:12:56Z</time>
      </trkpt>
      <trkpt lat="45.74265" lon="5.65111">
        <ele>291.29998779297</ele>
        <time>2012-05-13T13:13:08Z</time>
      </trkpt>
      <trkpt lat="45.74264" lon="5.65084">
        <ele>294.20001220703</ele>
        <time>2012-05-13T13:13:19Z</time>
      </trkpt>
      <trkpt lat="45.74261" lon="5.65071">
        <ele>294.59997558594</ele>
        <time>2012-05-13T13:13:24Z</time>
      </trkpt>
      <trkpt lat="45.74249" lon="5.65052">
        <ele>297.79998779297</ele>
        <time>2012-05-13T13:13:42Z</time>
      </trkpt>
      <trkpt lat="45.74232" lon="5.65041">
        <ele>302.70001220703</ele>
        <time>2012-05-13T13:13:57Z</time>
      </trkpt>
      <trkpt lat="45.74216" lon="5.65022">
        <ele>309.09997558594</ele>
        <time>2012-05-13T13:14:11Z</time>
      </trkpt>
      <trkpt lat="45.74208" lon="5.65015">
        <ele>310.09997558594</ele>
        <time>2012-05-13T13:14:38Z</time>
      </trkpt>
      <trkpt lat="45.7424" lon="5.64987">
        <ele>310.5</ele>
        <time>2012-05-13T13:15:01Z</time>
      </trkpt>
      <trkpt lat="45.7427" lon="5.64979">
        <ele>315.70001220703</ele>
        <time>2012-05-13T13:15:24Z</time>
      </trkpt>
      <trkpt lat="45.74277" lon="5.6497">
        <ele>317.09997558594</ele>
        <time>2012-05-13T13:15:53Z</time>
      </trkpt>
      <trkpt lat="45.74253" lon="5.64946">
        <ele>325.29998779297</ele>
        <time>2012-05-13T13:16:13Z</time>
      </trkpt>
      <trkpt lat="45.74233" lon="5.64947">
        <ele>329.40002441406</ele>
        <time>2012-05-13T13:16:24Z</time>
      </trkpt>
      <trkpt lat="45.74214" lon="5.6494">
        <ele>331.40002441406</ele>
        <time>2012-05-13T13:16:35Z</time>
      </trkpt>
      <trkpt lat="45.74205" lon="5.64931">
        <ele>331.29998779297</ele>
        <time>2012-05-13T13:16:39Z</time>
      </trkpt>
      <trkpt lat="45.74177" lon="5.64926">
        <ele>330.20001220703</ele>
        <time>2012-05-13T13:17:05Z</time>
      </trkpt>
      <trkpt lat="45.74148" lon="5.64922">
        <ele>331.40002441406</ele>
        <time>2012-05-13T13:17:22Z</time>
      </trkpt>
      <trkpt lat="45.74129" lon="5.6492">
        <ele>333.90002441406</ele>
        <time>2012-05-13T13:17:32Z</time>
      </trkpt>
      <trkpt lat="45.74111" lon="5.6492">
        <ele>335.29998779297</ele>
        <time>2012-05-13T13:17:46Z</time>
      </trkpt>
      <trkpt lat="45.74092" lon="5.64917">
        <ele>337</ele>
        <time>2012-05-13T13:17:58Z</time>
      </trkpt>
      <trkpt lat="45.74063" lon="5.64913">
        <ele>337.90002441406</ele>
        <time>2012-05-13T13:18:19Z</time>
      </trkpt>
      <trkpt lat="45.74044" lon="5.64911">
        <ele>340.59997558594</ele>
        <time>2012-05-13T13:18:29Z</time>
      </trkpt>
      <trkpt lat="45.74025" lon="5.64912">
        <ele>340.79998779297</ele>
        <time>2012-05-13T13:18:40Z</time>
      </trkpt>
      <trkpt lat="45.74015" lon="5.64913">
        <ele>340.40002441406</ele>
        <time>2012-05-13T13:18:49Z</time>
      </trkpt>
      <trkpt lat="45.74006" lon="5.64912">
        <ele>340.40002441406</ele>
        <time>2012-05-13T13:18:56Z</time>
      </trkpt>
      <trkpt lat="45.73985" lon="5.6491">
        <ele>341.79998779297</ele>
        <time>2012-05-13T13:19:08Z</time>
      </trkpt>
      <trkpt lat="45.73956" lon="5.64913">
        <ele>342.09997558594</ele>
        <time>2012-05-13T13:19:27Z</time>
      </trkpt>
      <trkpt lat="45.73927" lon="5.6491">
        <ele>342.09997558594</ele>
        <time>2012-05-13T13:19:42Z</time>
      </trkpt>
      <trkpt lat="45.73909" lon="5.64916">
        <ele>345.79998779297</ele>
        <time>2012-05-13T13:19:57Z</time>
      </trkpt>
      <trkpt lat="45.7388" lon="5.64905">
        <ele>346.20001220703</ele>
        <time>2012-05-13T13:20:19Z</time>
      </trkpt>
      <trkpt lat="45.73863" lon="5.64892">
        <ele>350.70001220703</ele>
        <time>2012-05-13T13:20:34Z</time>
      </trkpt>
      <trkpt lat="45.73846" lon="5.64882">
        <ele>352.5</ele>
        <time>2012-05-13T13:20:49Z</time>
      </trkpt>
      <trkpt lat="45.73828" lon="5.6487">
        <ele>352.90002441406</ele>
        <time>2012-05-13T13:21:00Z</time>
      </trkpt>
      <trkpt lat="45.73798" lon="5.64865">
        <ele>352.40002441406</ele>
        <time>2012-05-13T13:21:18Z</time>
      </trkpt>
      <trkpt lat="45.73779" lon="5.64866">
        <ele>352.90002441406</ele>
        <time>2012-05-13T13:21:31Z</time>
      </trkpt>
      <trkpt lat="45.73757" lon="5.64866">
        <ele>356</ele>
        <time>2012-05-13T13:21:43Z</time>
      </trkpt>
      <trkpt lat="45.73738" lon="5.64864">
        <ele>360</ele>
        <time>2012-05-13T13:21:54Z</time>
      </trkpt>
      <trkpt lat="45.73719" lon="5.64858">
        <ele>364.29998779297</ele>
        <time>2012-05-13T13:22:05Z</time>
      </trkpt>
      <trkpt lat="45.73701" lon="5.64848">
        <ele>361.40002441406</ele>
        <time>2012-05-13T13:22:15Z</time>
      </trkpt>
      <trkpt lat="45.73681" lon="5.64842">
        <ele>359.09997558594</ele>
        <time>2012-05-13T13:22:26Z</time>
      </trkpt>
      <trkpt lat="45.73661" lon="5.6484">
        <ele>358.20001220703</ele>
        <time>2012-05-13T13:22:39Z</time>
      </trkpt>
      <trkpt lat="45.73642" lon="5.64836">
        <ele>359.09997558594</ele>
        <time>2012-05-13T13:22:52Z</time>
      </trkpt>
      <trkpt lat="45.73623" lon="5.64833">
        <ele>362.40002441406</ele>
        <time>2012-05-13T13:23:04Z</time>
      </trkpt>
      <trkpt lat="45.73602" lon="5.64827">
        <ele>361.5</ele>
        <time>2012-05-13T13:23:18Z</time>
      </trkpt>
      <trkpt lat="45.73583" lon="5.64824">
        <ele>354.79998779297</ele>
        <time>2012-05-13T13:23:47Z</time>
      </trkpt>
      <trkpt lat="45.73574" lon="5.64826">
        <ele>353.5</ele>
        <time>2012-05-13T13:23:53Z</time>
      </trkpt>
      <trkpt lat="45.73564" lon="5.6483">
        <ele>352.20001220703</ele>
        <time>2012-05-13T13:24:00Z</time>
      </trkpt>
      <trkpt lat="45.73555" lon="5.64834">
        <ele>352.09997558594</ele>
        <time>2012-05-13T13:24:07Z</time>
      </trkpt>
      <trkpt lat="45.73545" lon="5.64838">
        <ele>352</ele>
        <time>2012-05-13T13:24:14Z</time>
      </trkpt>
      <trkpt lat="45.73527" lon="5.64842">
        <ele>353.70001220703</ele>
        <time>2012-05-13T13:24:30Z</time>
      </trkpt>
      <trkpt lat="45.73508" lon="5.64836">
        <ele>357.5</ele>
        <time>2012-05-13T13:24:43Z</time>
      </trkpt>
      <trkpt lat="45.73488" lon="5.64827">
        <ele>356.20001220703</ele>
        <time>2012-05-13T13:24:58Z</time>
      </trkpt>
      <trkpt lat="45.73479" lon="5.64825">
        <ele>354.5</ele>
        <time>2012-05-13T13:25:07Z</time>
      </trkpt>
      <trkpt lat="45.73468" lon="5.64824">
        <ele>353.79998779297</ele>
        <time>2012-05-13T13:25:14Z</time>
      </trkpt>
      <trkpt lat="45.73459" lon="5.64827">
        <ele>354.09997558594</ele>
        <time>2012-05-13T13:25:20Z</time>
      </trkpt>
      <trkpt lat="45.73439" lon="5.6483">
        <ele>356.09997558594</ele>
        <time>2012-05-13T13:25:34Z</time>
      </trkpt>
      <trkpt lat="45.7342" lon="5.64832">
        <ele>356.09997558594</ele>
        <time>2012-05-13T13:25:47Z</time>
      </trkpt>
      <trkpt lat="45.73411" lon="5.64832">
        <ele>355.90002441406</ele>
        <time>2012-05-13T13:25:53Z</time>
      </trkpt>
      <trkpt lat="45.73402" lon="5.64831">
        <ele>355.70001220703</ele>
        <time>2012-05-13T13:25:59Z</time>
      </trkpt>
      <trkpt lat="45.73392" lon="5.64829">
        <ele>354.90002441406</ele>
        <time>2012-05-13T13:26:05Z</time>
      </trkpt>
      <trkpt lat="45.73382" lon="5.64828">
        <ele>354.09997558594</ele>
        <time>2012-05-13T13:26:13Z</time>
      </trkpt>
      <trkpt lat="45.73362" lon="5.6483">
        <ele>353.90002441406</ele>
        <time>2012-05-13T13:26:27Z</time>
      </trkpt>
      <trkpt lat="45.73353" lon="5.64835">
        <ele>353.70001220703</ele>
        <time>2012-05-13T13:26:34Z</time>
      </trkpt>
      <trkpt lat="45.73346" lon="5.64844">
        <ele>354.20001220703</ele>
        <time>2012-05-13T13:26:41Z</time>
      </trkpt>
      <trkpt lat="45.7334" lon="5.64855">
        <ele>353.70001220703</ele>
        <time>2012-05-13T13:26:48Z</time>
      </trkpt>
      <trkpt lat="45.73332" lon="5.64864">
        <ele>352.79998779297</ele>
        <time>2012-05-13T13:26:56Z</time>
      </trkpt>
      <trkpt lat="45.73315" lon="5.64875">
        <ele>353.5</ele>
        <time>2012-05-13T13:27:09Z</time>
      </trkpt>
      <trkpt lat="45.73305" lon="5.64878">
        <ele>352.40002441406</ele>
        <time>2012-05-13T13:27:16Z</time>
      </trkpt>
      <trkpt lat="45.73296" lon="5.64879">
        <ele>351.59997558594</ele>
        <time>2012-05-13T13:27:23Z</time>
      </trkpt>
      <trkpt lat="45.73286" lon="5.64883">
        <ele>349.70001220703</ele>
        <time>2012-05-13T13:27:30Z</time>
      </trkpt>
      <trkpt lat="45.73267" lon="5.6489">
        <ele>347.40002441406</ele>
        <time>2012-05-13T13:27:42Z</time>
      </trkpt>
      <trkpt lat="45.73257" lon="5.64894">
        <ele>345.90002441406</ele>
        <time>2012-05-13T13:27:49Z</time>
      </trkpt>
      <trkpt lat="45.73248" lon="5.64898">
        <ele>345.40002441406</ele>
        <time>2012-05-13T13:27:55Z</time>
      </trkpt>
      <trkpt lat="45.73239" lon="5.64904">
        <ele>345.40002441406</ele>
        <time>2012-05-13T13:28:02Z</time>
      </trkpt>
      <trkpt lat="45.7323" lon="5.6491">
        <ele>345.40002441406</ele>
        <time>2012-05-13T13:28:09Z</time>
      </trkpt>
      <trkpt lat="45.73219" lon="5.6491">
        <ele>344.20001220703</ele>
        <time>2012-05-13T13:28:17Z</time>
      </trkpt>
      <trkpt lat="45.7321" lon="5.64908">
        <ele>343.70001220703</ele>
        <time>2012-05-13T13:28:33Z</time>
      </trkpt>
      <trkpt lat="45.73201" lon="5.64909">
        <ele>344.29998779297</ele>
        <time>2012-05-13T13:28:39Z</time>
      </trkpt>
      <trkpt lat="45.73191" lon="5.6491">
        <ele>344.59997558594</ele>
        <time>2012-05-13T13:28:46Z</time>
      </trkpt>
      <trkpt lat="45.73181" lon="5.64909">
        <ele>344.40002441406</ele>
        <time>2012-05-13T13:28:53Z</time>
      </trkpt>
      <trkpt lat="45.73171" lon="5.64912">
        <ele>344.40002441406</ele>
        <time>2012-05-13T13:29:00Z</time>
      </trkpt>
      <trkpt lat="45.73162" lon="5.64917">
        <ele>345.59997558594</ele>
        <time>2012-05-13T13:29:07Z</time>
      </trkpt>
      <trkpt lat="45.73142" lon="5.64919">
        <ele>347.5</ele>
        <time>2012-05-13T13:29:21Z</time>
      </trkpt>
      <trkpt lat="45.73133" lon="5.64916">
        <ele>346.90002441406</ele>
        <time>2012-05-13T13:29:28Z</time>
      </trkpt>
      <trkpt lat="45.73123" lon="5.64913">
        <ele>346.90002441406</ele>
        <time>2012-05-13T13:29:37Z</time>
      </trkpt>
      <trkpt lat="45.73114" lon="5.64908">
        <ele>348.20001220703</ele>
        <time>2012-05-13T13:29:42Z</time>
      </trkpt>
      <trkpt lat="45.73105" lon="5.64902">
        <ele>347.79998779297</ele>
        <time>2012-05-13T13:29:49Z</time>
      </trkpt>
      <trkpt lat="45.73095" lon="5.649">
        <ele>347.29998779297</ele>
        <time>2012-05-13T13:29:56Z</time>
      </trkpt>
      <trkpt lat="45.73086" lon="5.64899">
        <ele>347.29998779297</ele>
        <time>2012-05-13T13:30:02Z</time>
      </trkpt>
      <trkpt lat="45.73076" lon="5.64901">
        <ele>348.09997558594</ele>
        <time>2012-05-13T13:30:08Z</time>
      </trkpt>
      <trkpt lat="45.73061" lon="5.64915">
        <ele>348.70001220703</ele>
        <time>2012-05-13T13:30:21Z</time>
      </trkpt>
      <trkpt lat="45.73053" lon="5.64923">
        <ele>348.5</ele>
        <time>2012-05-13T13:30:30Z</time>
      </trkpt>
      <trkpt lat="45.73048" lon="5.64936">
        <ele>347.40002441406</ele>
        <time>2012-05-13T13:30:37Z</time>
      </trkpt>
      <trkpt lat="45.73043" lon="5.64948">
        <ele>347.20001220703</ele>
        <time>2012-05-13T13:30:43Z</time>
      </trkpt>
      <trkpt lat="45.7303" lon="5.6497">
        <ele>344.90002441406</ele>
        <time>2012-05-13T13:30:58Z</time>
      </trkpt>
      <trkpt lat="45.73013" lon="5.64983">
        <ele>340.90002441406</ele>
        <time>2012-05-13T13:31:11Z</time>
      </trkpt>
      <trkpt lat="45.72994" lon="5.64986">
        <ele>339.40002441406</ele>
        <time>2012-05-13T13:31:24Z</time>
      </trkpt>
      <trkpt lat="45.72985" lon="5.64987">
        <ele>337.59997558594</ele>
        <time>2012-05-13T13:31:30Z</time>
      </trkpt>
      <trkpt lat="45.72976" lon="5.64993">
        <ele>337.40002441406</ele>
        <time>2012-05-13T13:31:38Z</time>
      </trkpt>
      <trkpt lat="45.7296" lon="5.65009">
        <ele>338.29998779297</ele>
        <time>2012-05-13T13:31:52Z</time>
      </trkpt>
      <trkpt lat="45.72935" lon="5.65031">
        <ele>336.59997558594</ele>
        <time>2012-05-13T13:32:12Z</time>
      </trkpt>
      <trkpt lat="45.72926" lon="5.65053">
        <ele>334.40002441406</ele>
        <time>2012-05-13T13:32:25Z</time>
      </trkpt>
      <trkpt lat="45.72918" lon="5.65063">
        <ele>330.5</ele>
        <time>2012-05-13T13:32:51Z</time>
      </trkpt>
      <trkpt lat="45.72904" lon="5.65082">
        <ele>331.79998779297</ele>
        <time>2012-05-13T13:33:05Z</time>
      </trkpt>
      <trkpt lat="45.72884" lon="5.65081">
        <ele>329.09997558594</ele>
        <time>2012-05-13T13:33:17Z</time>
      </trkpt>
      <trkpt lat="45.72875" lon="5.65077">
        <ele>329.29998779297</ele>
        <time>2012-05-13T13:33:23Z</time>
      </trkpt>
      <trkpt lat="45.72865" lon="5.65074">
        <ele>327.40002441406</ele>
        <time>2012-05-13T13:33:29Z</time>
      </trkpt>
      <trkpt lat="45.72856" lon="5.65072">
        <ele>326</ele>
        <time>2012-05-13T13:33:35Z</time>
      </trkpt>
      <trkpt lat="45.72847" lon="5.65076">
        <ele>327</ele>
        <time>2012-05-13T13:33:42Z</time>
      </trkpt>
      <trkpt lat="45.7284" lon="5.65085">
        <ele>326.20001220703</ele>
        <time>2012-05-13T13:34:19Z</time>
      </trkpt>
      <trkpt lat="45.7283" lon="5.65088">
        <ele>326.59997558594</ele>
        <time>2012-05-13T13:34:26Z</time>
      </trkpt>
      <trkpt lat="45.72821" lon="5.65091">
        <ele>327.29998779297</ele>
        <time>2012-05-13T13:34:32Z</time>
      </trkpt>
      <trkpt lat="45.72803" lon="5.651">
        <ele>327.20001220703</ele>
        <time>2012-05-13T13:34:45Z</time>
      </trkpt>
      <trkpt lat="45.72786" lon="5.65109">
        <ele>328.5</ele>
        <time>2012-05-13T13:35:00Z</time>
      </trkpt>
      <trkpt lat="45.72769" lon="5.65124">
        <ele>328.40002441406</ele>
        <time>2012-05-13T13:35:16Z</time>
      </trkpt>
      <trkpt lat="45.7276" lon="5.65133">
        <ele>327.79998779297</ele>
        <time>2012-05-13T13:35:22Z</time>
      </trkpt>
      <trkpt lat="45.72734" lon="5.65151">
        <ele>329.70001220703</ele>
        <time>2012-05-13T13:35:43Z</time>
      </trkpt>
      <trkpt lat="45.72707" lon="5.65168">
        <ele>330.5</ele>
        <time>2012-05-13T13:36:01Z</time>
      </trkpt>
      <trkpt lat="45.7269" lon="5.65178">
        <ele>332.90002441406</ele>
        <time>2012-05-13T13:36:13Z</time>
      </trkpt>
      <trkpt lat="45.72672" lon="5.65193">
        <ele>332.40002441406</ele>
        <time>2012-05-13T13:36:28Z</time>
      </trkpt>
      <trkpt lat="45.72656" lon="5.65211">
        <ele>333.5</ele>
        <time>2012-05-13T13:36:39Z</time>
      </trkpt>
      <trkpt lat="45.72656" lon="5.65239">
        <ele>332.59997558594</ele>
        <time>2012-05-13T13:36:48Z</time>
      </trkpt>
      <trkpt lat="45.72661" lon="5.65266">
        <ele>334.90002441406</ele>
        <time>2012-05-13T13:36:59Z</time>
      </trkpt>
      <trkpt lat="45.72656" lon="5.65293">
        <ele>337.70001220703</ele>
        <time>2012-05-13T13:37:12Z</time>
      </trkpt>
      <trkpt lat="45.72644" lon="5.65331">
        <ele>334.79998779297</ele>
        <time>2012-05-13T13:37:28Z</time>
      </trkpt>
      <trkpt lat="45.7263" lon="5.65354">
        <ele>337.40002441406</ele>
        <time>2012-05-13T13:37:41Z</time>
      </trkpt>
      <trkpt lat="45.72618" lon="5.65376">
        <ele>335.5</ele>
        <time>2012-05-13T13:37:50Z</time>
      </trkpt>
      <trkpt lat="45.72606" lon="5.654">
        <ele>332.70001220703</ele>
        <time>2012-05-13T13:38:00Z</time>
      </trkpt>
      <trkpt lat="45.72592" lon="5.65419">
        <ele>331.40002441406</ele>
        <time>2012-05-13T13:38:13Z</time>
      </trkpt>
      <trkpt lat="45.72575" lon="5.65432">
        <ele>331.20001220703</ele>
        <time>2012-05-13T13:38:27Z</time>
      </trkpt>
      <trkpt lat="45.72557" lon="5.65444">
        <ele>330.70001220703</ele>
        <time>2012-05-13T13:38:37Z</time>
      </trkpt>
      <trkpt lat="45.72548" lon="5.65448">
        <ele>330</ele>
        <time>2012-05-13T13:38:40Z</time>
      </trkpt>
      <trkpt lat="45.72538" lon="5.65453">
        <ele>330.29998779297</ele>
        <time>2012-05-13T13:38:44Z</time>
      </trkpt>
      <trkpt lat="45.72522" lon="5.65468">
        <ele>331.29998779297</ele>
        <time>2012-05-13T13:38:57Z</time>
      </trkpt>
      <trkpt lat="45.72513" lon="5.65476">
        <ele>331.5</ele>
        <time>2012-05-13T13:39:03Z</time>
      </trkpt>
      <trkpt lat="45.72497" lon="5.65491">
        <ele>331.5</ele>
        <time>2012-05-13T13:39:16Z</time>
      </trkpt>
      <trkpt lat="45.72479" lon="5.65506">
        <ele>331.29998779297</ele>
        <time>2012-05-13T13:39:28Z</time>
      </trkpt>
      <trkpt lat="45.72472" lon="5.65514">
        <ele>332.20001220703</ele>
        <time>2012-05-13T13:39:35Z</time>
      </trkpt>
      <trkpt lat="45.72454" lon="5.6553">
        <ele>334.29998779297</ele>
        <time>2012-05-13T13:39:45Z</time>
      </trkpt>
      <trkpt lat="45.72439" lon="5.65547">
        <ele>335.5</ele>
        <time>2012-05-13T13:39:57Z</time>
      </trkpt>
      <trkpt lat="45.72432" lon="5.65557">
        <ele>335.79998779297</ele>
        <time>2012-05-13T13:40:03Z</time>
      </trkpt>
      <trkpt lat="45.72424" lon="5.65565">
        <ele>335.09997558594</ele>
        <time>2012-05-13T13:40:09Z</time>
      </trkpt>
      <trkpt lat="45.72417" lon="5.65575">
        <ele>335.79998779297</ele>
        <time>2012-05-13T13:40:16Z</time>
      </trkpt>
      <trkpt lat="45.72402" lon="5.65589">
        <ele>336.90002441406</ele>
        <time>2012-05-13T13:40:27Z</time>
      </trkpt>
      <trkpt lat="45.72393" lon="5.65593">
        <ele>337.29998779297</ele>
        <time>2012-05-13T13:40:32Z</time>
      </trkpt>
      <trkpt lat="45.72374" lon="5.65601">
        <ele>337.09997558594</ele>
        <time>2012-05-13T13:40:48Z</time>
      </trkpt>
      <trkpt lat="45.72353" lon="5.65602">
        <ele>337.09997558594</ele>
        <time>2012-05-13T13:41:00Z</time>
      </trkpt>
      <trkpt lat="45.72343" lon="5.65604">
        <ele>336.70001220703</ele>
        <time>2012-05-13T13:41:06Z</time>
      </trkpt>
      <trkpt lat="45.72335" lon="5.65607">
        <ele>337.20001220703</ele>
        <time>2012-05-13T13:41:30Z</time>
      </trkpt>
      <trkpt lat="45.72315" lon="5.65606">
        <ele>337.70001220703</ele>
        <time>2012-05-13T13:41:45Z</time>
      </trkpt>
      <trkpt lat="45.72295" lon="5.65607">
        <ele>337.5</ele>
        <time>2012-05-13T13:41:58Z</time>
      </trkpt>
      <trkpt lat="45.72276" lon="5.65607">
        <ele>337.5</ele>
        <time>2012-05-13T13:42:15Z</time>
      </trkpt>
      <trkpt lat="45.72256" lon="5.65606">
        <ele>338.09997558594</ele>
        <time>2012-05-13T13:42:28Z</time>
      </trkpt>
      <trkpt lat="45.72247" lon="5.65605">
        <ele>338.5</ele>
        <time>2012-05-13T13:42:34Z</time>
      </trkpt>
      <trkpt lat="45.72228" lon="5.65605">
        <ele>338.5</ele>
        <time>2012-05-13T13:42:47Z</time>
      </trkpt>
      <trkpt lat="45.72209" lon="5.65609">
        <ele>338.20001220703</ele>
        <time>2012-05-13T13:42:57Z</time>
      </trkpt>
      <trkpt lat="45.7219" lon="5.65612">
        <ele>338.79998779297</ele>
        <time>2012-05-13T13:43:07Z</time>
      </trkpt>
      <trkpt lat="45.72171" lon="5.65615">
        <ele>338</ele>
        <time>2012-05-13T13:43:20Z</time>
      </trkpt>
      <trkpt lat="45.72151" lon="5.65614">
        <ele>337.20001220703</ele>
        <time>2012-05-13T13:43:27Z</time>
      </trkpt>
      <trkpt lat="45.72141" lon="5.65613">
        <ele>336.79998779297</ele>
        <time>2012-05-13T13:43:32Z</time>
      </trkpt>
      <trkpt lat="45.72122" lon="5.65609">
        <ele>336</ele>
        <time>2012-05-13T13:43:48Z</time>
      </trkpt>
      <trkpt lat="45.72102" lon="5.65604">
        <ele>335.79998779297</ele>
        <time>2012-05-13T13:44:01Z</time>
      </trkpt>
      <trkpt lat="45.72092" lon="5.65602">
        <ele>335.40002441406</ele>
        <time>2012-05-13T13:44:06Z</time>
      </trkpt>
      <trkpt lat="45.72072" lon="5.65597">
        <ele>335.40002441406</ele>
        <time>2012-05-13T13:44:17Z</time>
      </trkpt>
      <trkpt lat="45.72063" lon="5.65595">
        <ele>335.79998779297</ele>
        <time>2012-05-13T13:44:24Z</time>
      </trkpt>
      <trkpt lat="45.72053" lon="5.65593">
        <ele>336.29998779297</ele>
        <time>2012-05-13T13:44:31Z</time>
      </trkpt>
      <trkpt lat="45.72044" lon="5.65591">
        <ele>336.59997558594</ele>
        <time>2012-05-13T13:44:38Z</time>
      </trkpt>
      <trkpt lat="45.72034" lon="5.65588">
        <ele>337.09997558594</ele>
        <time>2012-05-13T13:44:45Z</time>
      </trkpt>
      <trkpt lat="45.72025" lon="5.65583">
        <ele>338.09997558594</ele>
        <time>2012-05-13T13:44:52Z</time>
      </trkpt>
      <trkpt lat="45.72008" lon="5.65573">
        <ele>339.09997558594</ele>
        <time>2012-05-13T13:45:04Z</time>
      </trkpt>
      <trkpt lat="45.71998" lon="5.65569">
        <ele>339.09997558594</ele>
        <time>2012-05-13T13:45:12Z</time>
      </trkpt>
      <trkpt lat="45.7198" lon="5.6556">
        <ele>339.90002441406</ele>
        <time>2012-05-13T13:45:25Z</time>
      </trkpt>
      <trkpt lat="45.7196" lon="5.65556">
        <ele>339.70001220703</ele>
        <time>2012-05-13T13:45:41Z</time>
      </trkpt>
      <trkpt lat="45.7194" lon="5.65554">
        <ele>339.5</ele>
        <time>2012-05-13T13:45:47Z</time>
      </trkpt>
      <trkpt lat="45.7192" lon="5.65549">
        <ele>339.09997558594</ele>
        <time>2012-05-13T13:45:56Z</time>
      </trkpt>
      <trkpt lat="45.71902" lon="5.65544">
        <ele>339.40002441406</ele>
        <time>2012-05-13T13:46:08Z</time>
      </trkpt>
      <trkpt lat="45.71883" lon="5.65534">
        <ele>338.90002441406</ele>
        <time>2012-05-13T13:46:21Z</time>
      </trkpt>
      <trkpt lat="45.71863" lon="5.65527">
        <ele>339.59997558594</ele>
        <time>2012-05-13T13:46:40Z</time>
      </trkpt>
      <trkpt lat="45.71844" lon="5.65519">
        <ele>339</ele>
        <time>2012-05-13T13:46:50Z</time>
      </trkpt>
      <trkpt lat="45.71826" lon="5.65513">
        <ele>339.29998779297</ele>
        <time>2012-05-13T13:47:02Z</time>
      </trkpt>
      <trkpt lat="45.71806" lon="5.6551">
        <ele>339.79998779297</ele>
        <time>2012-05-13T13:47:13Z</time>
      </trkpt>
      <trkpt lat="45.71787" lon="5.65508">
        <ele>339.70001220703</ele>
        <time>2012-05-13T13:47:23Z</time>
      </trkpt>
      <trkpt lat="45.71768" lon="5.65501">
        <ele>340.5</ele>
        <time>2012-05-13T13:47:38Z</time>
      </trkpt>
      <trkpt lat="45.71749" lon="5.65489">
        <ele>339.40002441406</ele>
        <time>2012-05-13T13:47:52Z</time>
      </trkpt>
      <trkpt lat="45.71732" lon="5.65476">
        <ele>338.79998779297</ele>
        <time>2012-05-13T13:48:04Z</time>
      </trkpt>
      <trkpt lat="45.71713" lon="5.65465">
        <ele>337.70001220703</ele>
        <time>2012-05-13T13:48:17Z</time>
      </trkpt>
      <trkpt lat="45.71696" lon="5.65456">
        <ele>337.5</ele>
        <time>2012-05-13T13:48:40Z</time>
      </trkpt>
      <trkpt lat="45.71678" lon="5.65443">
        <ele>337.79998779297</ele>
        <time>2012-05-13T13:48:55Z</time>
      </trkpt>
      <trkpt lat="45.71661" lon="5.65431">
        <ele>336.90002441406</ele>
        <time>2012-05-13T13:49:08Z</time>
      </trkpt>
      <trkpt lat="45.71645" lon="5.65416">
        <ele>336.20001220703</ele>
        <time>2012-05-13T13:49:30Z</time>
      </trkpt>
      <trkpt lat="45.71627" lon="5.65403">
        <ele>335.20001220703</ele>
        <time>2012-05-13T13:49:48Z</time>
      </trkpt>
      <trkpt lat="45.7161" lon="5.65392">
        <ele>333.59997558594</ele>
        <time>2012-05-13T13:50:00Z</time>
      </trkpt>
      <trkpt lat="45.71602" lon="5.65385">
        <ele>332.59997558594</ele>
        <time>2012-05-13T13:50:05Z</time>
      </trkpt>
      <trkpt lat="45.71594" lon="5.6538">
        <ele>332</ele>
        <time>2012-05-13T13:50:13Z</time>
      </trkpt>
      <trkpt lat="45.71585" lon="5.65375">
        <ele>331.09997558594</ele>
        <time>2012-05-13T13:50:19Z</time>
      </trkpt>
      <trkpt lat="45.71575" lon="5.65373">
        <ele>330.40002441406</ele>
        <time>2012-05-13T13:50:25Z</time>
      </trkpt>
      <trkpt lat="45.71561" lon="5.65392">
        <ele>331</ele>
        <time>2012-05-13T13:50:39Z</time>
      </trkpt>
      <trkpt lat="45.71553" lon="5.654">
        <ele>331</ele>
        <time>2012-05-13T13:50:49Z</time>
      </trkpt>
      <trkpt lat="45.71544" lon="5.65399">
        <ele>330.70001220703</ele>
        <time>2012-05-13T13:50:56Z</time>
      </trkpt>
      <trkpt lat="45.71535" lon="5.65394">
        <ele>330.59997558594</ele>
        <time>2012-05-13T13:51:03Z</time>
      </trkpt>
      <trkpt lat="45.71518" lon="5.65381">
        <ele>329</ele>
        <time>2012-05-13T13:51:17Z</time>
      </trkpt>
      <trkpt lat="45.715" lon="5.6537">
        <ele>328.59997558594</ele>
        <time>2012-05-13T13:51:29Z</time>
      </trkpt>
      <trkpt lat="45.71482" lon="5.65357">
        <ele>327.90002441406</ele>
        <time>2012-05-13T13:51:43Z</time>
      </trkpt>
      <trkpt lat="45.71464" lon="5.65345">
        <ele>326.79998779297</ele>
        <time>2012-05-13T13:51:55Z</time>
      </trkpt>
      <trkpt lat="45.71447" lon="5.65333">
        <ele>326.09997558594</ele>
        <time>2012-05-13T13:52:08Z</time>
      </trkpt>
      <trkpt lat="45.7143" lon="5.65321">
        <ele>325.5</ele>
        <time>2012-05-13T13:52:20Z</time>
      </trkpt>
      <trkpt lat="45.71412" lon="5.65307">
        <ele>326</ele>
        <time>2012-05-13T13:52:33Z</time>
      </trkpt>
      <trkpt lat="45.71395" lon="5.65294">
        <ele>324.40002441406</ele>
        <time>2012-05-13T13:52:45Z</time>
      </trkpt>
      <trkpt lat="45.71377" lon="5.65282">
        <ele>323.79998779297</ele>
        <time>2012-05-13T13:52:59Z</time>
      </trkpt>
      <trkpt lat="45.71361" lon="5.6527">
        <ele>323.09997558594</ele>
        <time>2012-05-13T13:53:11Z</time>
      </trkpt>
      <trkpt lat="45.71343" lon="5.65256">
        <ele>323.40002441406</ele>
        <time>2012-05-13T13:53:23Z</time>
      </trkpt>
      <trkpt lat="45.71323" lon="5.65251">
        <ele>323.59997558594</ele>
        <time>2012-05-13T13:53:35Z</time>
      </trkpt>
      <trkpt lat="45.71314" lon="5.65251">
        <ele>323.90002441406</ele>
        <time>2012-05-13T13:53:40Z</time>
      </trkpt>
      <trkpt lat="45.71296" lon="5.65256">
        <ele>324.59997558594</ele>
        <time>2012-05-13T13:55:41Z</time>
      </trkpt>
      <trkpt lat="45.71285" lon="5.65257">
        <ele>324.59997558594</ele>
        <time>2012-05-13T13:57:33Z</time>
      </trkpt>
      <trkpt lat="45.71266" lon="5.65261">
        <ele>324.70001220703</ele>
        <time>2012-05-13T13:57:42Z</time>
      </trkpt>
      <trkpt lat="45.71254" lon="5.65284">
        <ele>324.79998779297</ele>
        <time>2012-05-13T13:57:51Z</time>
      </trkpt>
      <trkpt lat="45.71259" lon="5.65314">
        <ele>324.59997558594</ele>
        <time>2012-05-13T13:57:55Z</time>
      </trkpt>
      <trkpt lat="45.7126" lon="5.65344">
        <ele>324.70001220703</ele>
        <time>2012-05-13T13:57:59Z</time>
      </trkpt>
      <trkpt lat="45.71257" lon="5.65378">
        <ele>323.79998779297</ele>
        <time>2012-05-13T13:58:03Z</time>
      </trkpt>
      <trkpt lat="45.71255" lon="5.65398">
        <ele>324.40002441406</ele>
        <time>2012-05-13T13:58:05Z</time>
      </trkpt>
      <trkpt lat="45.71251" lon="5.6542">
        <ele>325</ele>
        <time>2012-05-13T13:58:07Z</time>
      </trkpt>
      <trkpt lat="45.71248" lon="5.65442">
        <ele>326</ele>
        <time>2012-05-13T13:58:09Z</time>
      </trkpt>
      <trkpt lat="45.71241" lon="5.65477">
        <ele>327.70001220703</ele>
        <time>2012-05-13T13:58:13Z</time>
      </trkpt>
      <trkpt lat="45.71214" lon="5.655">
        <ele>328.09997558594</ele>
        <time>2012-05-13T13:58:19Z</time>
      </trkpt>
      <trkpt lat="45.71194" lon="5.65513">
        <ele>329.40002441406</ele>
        <time>2012-05-13T13:58:24Z</time>
      </trkpt>
      <trkpt lat="45.71174" lon="5.65504">
        <ele>329.29998779297</ele>
        <time>2012-05-13T13:58:33Z</time>
      </trkpt>
      <trkpt lat="45.71165" lon="5.655">
        <ele>328.70001220703</ele>
        <time>2012-05-13T13:58:40Z</time>
      </trkpt>
      <trkpt lat="45.71143" lon="5.65491">
        <ele>327.09997558594</ele>
        <time>2012-05-13T13:58:54Z</time>
      </trkpt>
      <trkpt lat="45.71134" lon="5.65489">
        <ele>326.5</ele>
        <time>2012-05-13T13:58:57Z</time>
      </trkpt>
      <trkpt lat="45.71114" lon="5.6548">
        <ele>325.90002441406</ele>
        <time>2012-05-13T13:59:11Z</time>
      </trkpt>
      <trkpt lat="45.71093" lon="5.65469">
        <ele>325.09997558594</ele>
        <time>2012-05-13T13:59:16Z</time>
      </trkpt>
      <trkpt lat="45.7107" lon="5.65449">
        <ele>324.29998779297</ele>
        <time>2012-05-13T13:59:22Z</time>
      </trkpt>
      <trkpt lat="45.71042" lon="5.65431">
        <ele>327</ele>
        <time>2012-05-13T13:59:40Z</time>
      </trkpt>
      <trkpt lat="45.71022" lon="5.65417">
        <ele>326.79998779297</ele>
        <time>2012-05-13T13:59:52Z</time>
      </trkpt>
      <trkpt lat="45.71003" lon="5.65406">
        <ele>326</ele>
        <time>2012-05-13T14:00:01Z</time>
      </trkpt>
      <trkpt lat="45.70981" lon="5.6538">
        <ele>323.90002441406</ele>
        <time>2012-05-13T14:00:21Z</time>
      </trkpt>
      <trkpt lat="45.70966" lon="5.65362">
        <ele>322.29998779297</ele>
        <time>2012-05-13T14:00:37Z</time>
      </trkpt>
      <trkpt lat="45.7094" lon="5.65339">
        <ele>319.59997558594</ele>
        <time>2012-05-13T14:00:57Z</time>
      </trkpt>
      <trkpt lat="45.70922" lon="5.65326">
        <ele>317.5</ele>
        <time>2012-05-13T14:01:08Z</time>
      </trkpt>
      <trkpt lat="45.70907" lon="5.65311">
        <ele>312.29998779297</ele>
        <time>2012-05-13T14:01:28Z</time>
      </trkpt>
      <trkpt lat="45.70888" lon="5.65307">
        <ele>309.79998779297</ele>
        <time>2012-05-13T14:01:48Z</time>
      </trkpt>
      <trkpt lat="45.70869" lon="5.65318">
        <ele>306.59997558594</ele>
        <time>2012-05-13T14:02:06Z</time>
      </trkpt>
      <trkpt lat="45.70844" lon="5.65337">
        <ele>302.09997558594</ele>
        <time>2012-05-13T14:02:27Z</time>
      </trkpt>
      <trkpt lat="45.70837" lon="5.65346">
        <ele>299.90002441406</ele>
        <time>2012-05-13T14:02:33Z</time>
      </trkpt>
      <trkpt lat="45.70828" lon="5.65354">
        <ele>296</ele>
        <time>2012-05-13T14:02:39Z</time>
      </trkpt>
      <trkpt lat="45.70823" lon="5.65365">
        <ele>294</ele>
        <time>2012-05-13T14:02:46Z</time>
      </trkpt>
      <trkpt lat="45.70817" lon="5.65375">
        <ele>292.40002441406</ele>
        <time>2012-05-13T14:02:52Z</time>
      </trkpt>
      <trkpt lat="45.70811" lon="5.65385">
        <ele>292.40002441406</ele>
        <time>2012-05-13T14:02:58Z</time>
      </trkpt>
      <trkpt lat="45.70795" lon="5.65402">
        <ele>291.59997558594</ele>
        <time>2012-05-13T14:03:09Z</time>
      </trkpt>
      <trkpt lat="45.7079" lon="5.65424">
        <ele>290.70001220703</ele>
        <time>2012-05-13T14:03:23Z</time>
      </trkpt>
      <trkpt lat="45.70795" lon="5.65437">
        <ele>290.79998779297</ele>
        <time>2012-05-13T14:03:29Z</time>
      </trkpt>
      <trkpt lat="45.70807" lon="5.65458">
        <ele>291.79998779297</ele>
        <time>2012-05-13T14:03:45Z</time>
      </trkpt>
      <trkpt lat="45.70801" lon="5.65484">
        <ele>288.59997558594</ele>
        <time>2012-05-13T14:03:57Z</time>
      </trkpt>
      <trkpt lat="45.70783" lon="5.65517">
        <ele>286.29998779297</ele>
        <time>2012-05-13T14:04:16Z</time>
      </trkpt>
      <trkpt lat="45.70797" lon="5.65537">
        <ele>288.20001220703</ele>
        <time>2012-05-13T14:04:42Z</time>
      </trkpt>
      <trkpt lat="45.70808" lon="5.65558">
        <ele>288.59997558594</ele>
        <time>2012-05-13T14:04:57Z</time>
      </trkpt>
      <trkpt lat="45.70812" lon="5.65586">
        <ele>287.70001220703</ele>
        <time>2012-05-13T14:05:09Z</time>
      </trkpt>
      <trkpt lat="45.70815" lon="5.65614">
        <ele>284.79998779297</ele>
        <time>2012-05-13T14:05:19Z</time>
      </trkpt>
      <trkpt lat="45.70822" lon="5.65641">
        <ele>286.5</ele>
        <time>2012-05-13T14:05:32Z</time>
      </trkpt>
      <trkpt lat="45.70831" lon="5.65666">
        <ele>286.5</ele>
        <time>2012-05-13T14:05:53Z</time>
      </trkpt>
      <trkpt lat="45.70832" lon="5.65694">
        <ele>282.29998779297</ele>
        <time>2012-05-13T14:06:04Z</time>
      </trkpt>
      <trkpt lat="45.70824" lon="5.65719">
        <ele>280.5</ele>
        <time>2012-05-13T14:06:15Z</time>
      </trkpt>
      <trkpt lat="45.70815" lon="5.65746">
        <ele>280.09997558594</ele>
        <time>2012-05-13T14:06:27Z</time>
      </trkpt>
      <trkpt lat="45.70806" lon="5.65768">
        <ele>281.29998779297</ele>
        <time>2012-05-13T14:06:39Z</time>
      </trkpt>
      <trkpt lat="45.70799" lon="5.65794">
        <ele>280.40002441406</ele>
        <time>2012-05-13T14:06:49Z</time>
      </trkpt>
      <trkpt lat="45.70786" lon="5.65817">
        <ele>280.5</ele>
        <time>2012-05-13T14:07:01Z</time>
      </trkpt>
      <trkpt lat="45.70774" lon="5.65838">
        <ele>278.5</ele>
        <time>2012-05-13T14:07:11Z</time>
      </trkpt>
      <trkpt lat="45.70768" lon="5.65866">
        <ele>278.5</ele>
        <time>2012-05-13T14:07:21Z</time>
      </trkpt>
      <trkpt lat="45.70766" lon="5.65895">
        <ele>275.79998779297</ele>
        <time>2012-05-13T14:07:33Z</time>
      </trkpt>
      <trkpt lat="45.70766" lon="5.6591">
        <ele>275.5</ele>
        <time>2012-05-13T14:07:39Z</time>
      </trkpt>
      <trkpt lat="45.70765" lon="5.65924">
        <ele>274.40002441406</ele>
        <time>2012-05-13T14:07:45Z</time>
      </trkpt>
      <trkpt lat="45.70765" lon="5.65938">
        <ele>274</ele>
        <time>2012-05-13T14:07:51Z</time>
      </trkpt>
      <trkpt lat="45.70765" lon="5.65952">
        <ele>274.29998779297</ele>
        <time>2012-05-13T14:07:57Z</time>
      </trkpt>
      <trkpt lat="45.70765" lon="5.65967">
        <ele>274.29998779297</ele>
        <time>2012-05-13T14:08:03Z</time>
      </trkpt>
      <trkpt lat="45.70764" lon="5.65982">
        <ele>274.5</ele>
        <time>2012-05-13T14:08:09Z</time>
      </trkpt>
      <trkpt lat="45.70764" lon="5.65997">
        <ele>274.79998779297</ele>
        <time>2012-05-13T14:08:15Z</time>
      </trkpt>
      <trkpt lat="45.70764" lon="5.66011">
        <ele>275</ele>
        <time>2012-05-13T14:08:20Z</time>
      </trkpt>
      <trkpt lat="45.70765" lon="5.66026">
        <ele>274.90002441406</ele>
        <time>2012-05-13T14:08:26Z</time>
      </trkpt>
      <trkpt lat="45.70765" lon="5.6604">
        <ele>275.70001220703</ele>
        <time>2012-05-13T14:08:46Z</time>
      </trkpt>
      <trkpt lat="45.70766" lon="5.66053">
        <ele>275.59997558594</ele>
        <time>2012-05-13T14:08:53Z</time>
      </trkpt>
      <trkpt lat="45.70765" lon="5.6608">
        <ele>275.20001220703</ele>
        <time>2012-05-13T14:09:06Z</time>
      </trkpt>
      <trkpt lat="45.70766" lon="5.66093">
        <ele>275.79998779297</ele>
        <time>2012-05-13T14:09:12Z</time>
      </trkpt>
      <trkpt lat="45.70766" lon="5.66119">
        <ele>276.5</ele>
        <time>2012-05-13T14:09:24Z</time>
      </trkpt>
      <trkpt lat="45.70763" lon="5.66147">
        <ele>275.70001220703</ele>
        <time>2012-05-13T14:09:35Z</time>
      </trkpt>
      <trkpt lat="45.70761" lon="5.66161">
        <ele>276</ele>
        <time>2012-05-13T14:09:41Z</time>
      </trkpt>
      <trkpt lat="45.70758" lon="5.66189">
        <ele>276.90002441406</ele>
        <time>2012-05-13T14:09:54Z</time>
      </trkpt>
      <trkpt lat="45.70756" lon="5.66202">
        <ele>276.90002441406</ele>
        <time>2012-05-13T14:10:01Z</time>
      </trkpt>
      <trkpt lat="45.70752" lon="5.66228">
        <ele>277.59997558594</ele>
        <time>2012-05-13T14:10:13Z</time>
      </trkpt>
      <trkpt lat="45.70748" lon="5.66256">
        <ele>279.09997558594</ele>
        <time>2012-05-13T14:10:26Z</time>
      </trkpt>
      <trkpt lat="45.70747" lon="5.66283">
        <ele>280.5</ele>
        <time>2012-05-13T14:10:38Z</time>
      </trkpt>
      <trkpt lat="45.70748" lon="5.66313">
        <ele>282.20001220703</ele>
        <time>2012-05-13T14:10:50Z</time>
      </trkpt>
      <trkpt lat="45.70749" lon="5.66327">
        <ele>282.90002441406</ele>
        <time>2012-05-13T14:10:56Z</time>
      </trkpt>
      <trkpt lat="45.70751" lon="5.66354">
        <ele>283.59997558594</ele>
        <time>2012-05-13T14:11:08Z</time>
      </trkpt>
      <trkpt lat="45.70752" lon="5.66382">
        <ele>284.59997558594</ele>
        <time>2012-05-13T14:11:19Z</time>
      </trkpt>
      <trkpt lat="45.70748" lon="5.66409">
        <ele>286.5</ele>
        <time>2012-05-13T14:11:29Z</time>
      </trkpt>
      <trkpt lat="45.70744" lon="5.66422">
        <ele>287.20001220703</ele>
        <time>2012-05-13T14:11:35Z</time>
      </trkpt>
      <trkpt lat="45.70731" lon="5.66441">
        <ele>287.79998779297</ele>
        <time>2012-05-13T14:11:47Z</time>
      </trkpt>
      <trkpt lat="45.70719" lon="5.66464">
        <ele>289.20001220703</ele>
        <time>2012-05-13T14:12:00Z</time>
      </trkpt>
      <trkpt lat="45.70715" lon="5.66491">
        <ele>291.29998779297</ele>
        <time>2012-05-13T14:12:14Z</time>
      </trkpt>
      <trkpt lat="45.70711" lon="5.66517">
        <ele>292.90002441406</ele>
        <time>2012-05-13T14:12:26Z</time>
      </trkpt>
      <trkpt lat="45.7071" lon="5.6653">
        <ele>293.5</ele>
        <time>2012-05-13T14:12:32Z</time>
      </trkpt>
      <trkpt lat="45.70707" lon="5.66557">
        <ele>293.5</ele>
        <time>2012-05-13T14:12:44Z</time>
      </trkpt>
      <trkpt lat="45.70706" lon="5.6657">
        <ele>293.29998779297</ele>
        <time>2012-05-13T14:12:50Z</time>
      </trkpt>
      <trkpt lat="45.70706" lon="5.66584">
        <ele>294</ele>
        <time>2012-05-13T14:12:56Z</time>
      </trkpt>
      <trkpt lat="45.70705" lon="5.66599">
        <ele>294.40002441406</ele>
        <time>2012-05-13T14:13:02Z</time>
      </trkpt>
      <trkpt lat="45.70705" lon="5.66612">
        <ele>294.79998779297</ele>
        <time>2012-05-13T14:13:08Z</time>
      </trkpt>
      <trkpt lat="45.70704" lon="5.66625">
        <ele>294.59997558594</ele>
        <time>2012-05-13T14:13:14Z</time>
      </trkpt>
      <trkpt lat="45.70703" lon="5.66639">
        <ele>294.59997558594</ele>
        <time>2012-05-13T14:13:20Z</time>
      </trkpt>
      <trkpt lat="45.70703" lon="5.66652">
        <ele>294.79998779297</ele>
        <time>2012-05-13T14:13:26Z</time>
      </trkpt>
      <trkpt lat="45.70703" lon="5.66665">
        <ele>295.20001220703</ele>
        <time>2012-05-13T14:13:32Z</time>
      </trkpt>
      <trkpt lat="45.70702" lon="5.66681">
        <ele>295.5</ele>
        <time>2012-05-13T14:13:37Z</time>
      </trkpt>
      <trkpt lat="45.707" lon="5.66698">
        <ele>295.29998779297</ele>
        <time>2012-05-13T14:13:41Z</time>
      </trkpt>
      <trkpt lat="45.70699" lon="5.66713">
        <ele>295.29998779297</ele>
        <time>2012-05-13T14:13:45Z</time>
      </trkpt>
      <trkpt lat="45.70698" lon="5.66727">
        <ele>295</ele>
        <time>2012-05-13T14:13:49Z</time>
      </trkpt>
      <trkpt lat="45.70696" lon="5.66741">
        <ele>294.40002441406</ele>
        <time>2012-05-13T14:13:54Z</time>
      </trkpt>
      <trkpt lat="45.70695" lon="5.66754">
        <ele>294.29998779297</ele>
        <time>2012-05-13T14:14:00Z</time>
      </trkpt>
      <trkpt lat="45.70693" lon="5.66768">
        <ele>293.79998779297</ele>
        <time>2012-05-13T14:14:06Z</time>
      </trkpt>
      <trkpt lat="45.70693" lon="5.66781">
        <ele>293.79998779297</ele>
        <time>2012-05-13T14:14:12Z</time>
      </trkpt>
      <trkpt lat="45.70693" lon="5.66795">
        <ele>293.70001220703</ele>
        <time>2012-05-13T14:14:18Z</time>
      </trkpt>
      <trkpt lat="45.70692" lon="5.66808">
        <ele>293.79998779297</ele>
        <time>2012-05-13T14:14:24Z</time>
      </trkpt>
      <trkpt lat="45.70692" lon="5.66821">
        <ele>293.90002441406</ele>
        <time>2012-05-13T14:14:30Z</time>
      </trkpt>
      <trkpt lat="45.70692" lon="5.66836">
        <ele>294.29998779297</ele>
        <time>2012-05-13T14:14:37Z</time>
      </trkpt>
      <trkpt lat="45.70693" lon="5.66849">
        <ele>294.40002441406</ele>
        <time>2012-05-13T14:14:43Z</time>
      </trkpt>
      <trkpt lat="45.70694" lon="5.66875">
        <ele>294.40002441406</ele>
        <time>2012-05-13T14:14:55Z</time>
      </trkpt>
      <trkpt lat="45.70695" lon="5.6689">
        <ele>294.29998779297</ele>
        <time>2012-05-13T14:15:02Z</time>
      </trkpt>
      <trkpt lat="45.70694" lon="5.66917">
        <ele>292.59997558594</ele>
        <time>2012-05-13T14:15:15Z</time>
      </trkpt>
      <trkpt lat="45.7069" lon="5.66944">
        <ele>292</ele>
        <time>2012-05-13T14:15:29Z</time>
      </trkpt>
      <trkpt lat="45.70684" lon="5.66984">
        <ele>291.29998779297</ele>
        <time>2012-05-13T14:15:49Z</time>
      </trkpt>
      <trkpt lat="45.7067" lon="5.67002">
        <ele>284.5</ele>
        <time>2012-05-13T14:18:33Z</time>
      </trkpt>
      <trkpt lat="45.70664" lon="5.67028">
        <ele>284.59997558594</ele>
        <time>2012-05-13T14:18:53Z</time>
      </trkpt>
      <trkpt lat="45.70654" lon="5.67053">
        <ele>282.90002441406</ele>
        <time>2012-05-13T14:19:06Z</time>
      </trkpt>
      <trkpt lat="45.70647" lon="5.67078">
        <ele>281.40002441406</ele>
        <time>2012-05-13T14:19:18Z</time>
      </trkpt>
      <trkpt lat="45.70642" lon="5.67105">
        <ele>276.29998779297</ele>
        <time>2012-05-13T14:19:28Z</time>
      </trkpt>
      <trkpt lat="45.7063" lon="5.67129">
        <ele>273.90002441406</ele>
        <time>2012-05-13T14:19:40Z</time>
      </trkpt>
      <trkpt lat="45.70619" lon="5.67153">
        <ele>272.5</ele>
        <time>2012-05-13T14:19:52Z</time>
      </trkpt>
      <trkpt lat="45.70613" lon="5.67166">
        <ele>271.79998779297</ele>
        <time>2012-05-13T14:19:58Z</time>
      </trkpt>
      <trkpt lat="45.70606" lon="5.67178">
        <ele>271.5</ele>
        <time>2012-05-13T14:20:04Z</time>
      </trkpt>
      <trkpt lat="45.70599" lon="5.67189">
        <ele>271.09997558594</ele>
        <time>2012-05-13T14:20:10Z</time>
      </trkpt>
      <trkpt lat="45.70593" lon="5.67201">
        <ele>270.59997558594</ele>
        <time>2012-05-13T14:20:16Z</time>
      </trkpt>
      <trkpt lat="45.70589" lon="5.67214">
        <ele>270.29998779297</ele>
        <time>2012-05-13T14:20:22Z</time>
      </trkpt>
      <trkpt lat="45.70588" lon="5.67245">
        <ele>269.70001220703</ele>
        <time>2012-05-13T14:20:33Z</time>
      </trkpt>
      <trkpt lat="45.70585" lon="5.67259">
        <ele>269.5</ele>
        <time>2012-05-13T14:20:39Z</time>
      </trkpt>
      <trkpt lat="45.70584" lon="5.67273">
        <ele>269.79998779297</ele>
        <time>2012-05-13T14:20:44Z</time>
      </trkpt>
      <trkpt lat="45.70584" lon="5.67288">
        <ele>269.20001220703</ele>
        <time>2012-05-13T14:20:51Z</time>
      </trkpt>
      <trkpt lat="45.70582" lon="5.67301">
        <ele>268.70001220703</ele>
        <time>2012-05-13T14:20:57Z</time>
      </trkpt>
      <trkpt lat="45.70581" lon="5.67314">
        <ele>268.29998779297</ele>
        <time>2012-05-13T14:21:03Z</time>
      </trkpt>
      <trkpt lat="45.70584" lon="5.67342">
        <ele>268.59997558594</ele>
        <time>2012-05-13T14:21:16Z</time>
      </trkpt>
      <trkpt lat="45.70594" lon="5.67368">
        <ele>269</ele>
        <time>2012-05-13T14:21:26Z</time>
      </trkpt>
      <trkpt lat="45.70601" lon="5.67397">
        <ele>269.70001220703</ele>
        <time>2012-05-13T14:21:38Z</time>
      </trkpt>
      <trkpt lat="45.70602" lon="5.67409">
        <ele>270.29998779297</ele>
        <time>2012-05-13T14:21:44Z</time>
      </trkpt>
      <trkpt lat="45.70606" lon="5.67422">
        <ele>270.90002441406</ele>
        <time>2012-05-13T14:21:50Z</time>
      </trkpt>
      <trkpt lat="45.70609" lon="5.67436">
        <ele>271.20001220703</ele>
        <time>2012-05-13T14:21:57Z</time>
      </trkpt>
      <trkpt lat="45.70613" lon="5.67447">
        <ele>271.79998779297</ele>
        <time>2012-05-13T14:22:03Z</time>
      </trkpt>
      <trkpt lat="45.70617" lon="5.6746">
        <ele>272.40002441406</ele>
        <time>2012-05-13T14:22:09Z</time>
      </trkpt>
      <trkpt lat="45.70624" lon="5.67486">
        <ele>272.20001220703</ele>
        <time>2012-05-13T14:22:21Z</time>
      </trkpt>
      <trkpt lat="45.70628" lon="5.67515">
        <ele>271.79998779297</ele>
        <time>2012-05-13T14:22:31Z</time>
      </trkpt>
      <trkpt lat="45.7063" lon="5.67529">
        <ele>271.40002441406</ele>
        <time>2012-05-13T14:22:37Z</time>
      </trkpt>
      <trkpt lat="45.70631" lon="5.67558">
        <ele>269.5</ele>
        <time>2012-05-13T14:22:49Z</time>
      </trkpt>
      <trkpt lat="45.70631" lon="5.67585">
        <ele>270.20001220703</ele>
        <time>2012-05-13T14:22:58Z</time>
      </trkpt>
      <trkpt lat="45.70632" lon="5.67598">
        <ele>270.79998779297</ele>
        <time>2012-05-13T14:23:04Z</time>
      </trkpt>
      <trkpt lat="45.70632" lon="5.67613">
        <ele>271.29998779297</ele>
        <time>2012-05-13T14:23:11Z</time>
      </trkpt>
      <trkpt lat="45.70631" lon="5.67628">
        <ele>271.40002441406</ele>
        <time>2012-05-13T14:23:18Z</time>
      </trkpt>
      <trkpt lat="45.70631" lon="5.67641">
        <ele>271.20001220703</ele>
        <time>2012-05-13T14:23:25Z</time>
      </trkpt>
      <trkpt lat="45.70635" lon="5.67654">
        <ele>271</ele>
        <time>2012-05-13T14:23:32Z</time>
      </trkpt>
      <trkpt lat="45.70645" lon="5.67653">
        <ele>271.59997558594</ele>
        <time>2012-05-13T14:23:38Z</time>
      </trkpt>
      <trkpt lat="45.70656" lon="5.67653">
        <ele>271.70001220703</ele>
        <time>2012-05-13T14:23:44Z</time>
      </trkpt>
      <trkpt lat="45.70667" lon="5.67652">
        <ele>272</ele>
        <time>2012-05-13T14:23:50Z</time>
      </trkpt>
      <trkpt lat="45.70689" lon="5.67652">
        <ele>272.09997558594</ele>
        <time>2012-05-13T14:23:56Z</time>
      </trkpt>
      <trkpt lat="45.70712" lon="5.67651">
        <ele>272.40002441406</ele>
        <time>2012-05-13T14:24:02Z</time>
      </trkpt>
      <trkpt lat="45.70723" lon="5.6765">
        <ele>272.40002441406</ele>
        <time>2012-05-13T14:24:05Z</time>
      </trkpt>
      <trkpt lat="45.70734" lon="5.6765">
        <ele>272.20001220703</ele>
        <time>2012-05-13T14:24:08Z</time>
      </trkpt>
      <trkpt lat="45.70759" lon="5.67651">
        <ele>273</ele>
        <time>2012-05-13T14:24:14Z</time>
      </trkpt>
      <trkpt lat="45.7078" lon="5.67647">
        <ele>274.09997558594</ele>
        <time>2012-05-13T14:24:21Z</time>
      </trkpt>
      <trkpt lat="45.70801" lon="5.67641">
        <ele>276.09997558594</ele>
        <time>2012-05-13T14:24:28Z</time>
      </trkpt>
      <trkpt lat="45.70824" lon="5.67636">
        <ele>278.40002441406</ele>
        <time>2012-05-13T14:24:36Z</time>
      </trkpt>
      <trkpt lat="45.70845" lon="5.67638">
        <ele>277.79998779297</ele>
        <time>2012-05-13T14:24:43Z</time>
      </trkpt>
      <trkpt lat="45.70869" lon="5.67633">
        <ele>278.29998779297</ele>
        <time>2012-05-13T14:24:49Z</time>
      </trkpt>
      <trkpt lat="45.70888" lon="5.67626">
        <ele>279.09997558594</ele>
        <time>2012-05-13T14:24:57Z</time>
      </trkpt>
      <trkpt lat="45.70907" lon="5.67634">
        <ele>280</ele>
        <time>2012-05-13T14:25:11Z</time>
      </trkpt>
      <trkpt lat="45.70927" lon="5.67637">
        <ele>282.70001220703</ele>
        <time>2012-05-13T14:25:26Z</time>
      </trkpt>
      <trkpt lat="45.70946" lon="5.67636">
        <ele>284</ele>
        <time>2012-05-13T14:25:43Z</time>
      </trkpt>
      <trkpt lat="45.70966" lon="5.67639">
        <ele>286.29998779297</ele>
        <time>2012-05-13T14:25:54Z</time>
      </trkpt>
      <trkpt lat="45.70986" lon="5.67642">
        <ele>285.09997558594</ele>
        <time>2012-05-13T14:26:05Z</time>
      </trkpt>
      <trkpt lat="45.71005" lon="5.67641">
        <ele>285.90002441406</ele>
        <time>2012-05-13T14:26:18Z</time>
      </trkpt>
      <trkpt lat="45.71025" lon="5.6764">
        <ele>288.29998779297</ele>
        <time>2012-05-13T14:26:31Z</time>
      </trkpt>
      <trkpt lat="45.71044" lon="5.6764">
        <ele>289.40002441406</ele>
        <time>2012-05-13T14:26:45Z</time>
      </trkpt>
      <trkpt lat="45.71063" lon="5.67644">
        <ele>291.70001220703</ele>
        <time>2012-05-13T14:26:59Z</time>
      </trkpt>
      <trkpt lat="45.71082" lon="5.67648">
        <ele>294.79998779297</ele>
        <time>2012-05-13T14:27:15Z</time>
      </trkpt>
      <trkpt lat="45.71099" lon="5.67633">
        <ele>297.5</ele>
        <time>2012-05-13T14:27:36Z</time>
      </trkpt>
      <trkpt lat="45.71107" lon="5.67598">
        <ele>295.29998779297</ele>
        <time>2012-05-13T14:27:41Z</time>
      </trkpt>
      <trkpt lat="45.71109" lon="5.67579">
        <ele>295.59997558594</ele>
        <time>2012-05-13T14:27:45Z</time>
      </trkpt>
      <trkpt lat="45.71114" lon="5.67549">
        <ele>295.90002441406</ele>
        <time>2012-05-13T14:27:49Z</time>
      </trkpt>
      <trkpt lat="45.71118" lon="5.67519">
        <ele>296.20001220703</ele>
        <time>2012-05-13T14:27:53Z</time>
      </trkpt>
      <trkpt lat="45.7112" lon="5.67492">
        <ele>295</ele>
        <time>2012-05-13T14:27:57Z</time>
      </trkpt>
      <trkpt lat="45.71125" lon="5.67458">
        <ele>295.09997558594</ele>
        <time>2012-05-13T14:28:03Z</time>
      </trkpt>
      <trkpt lat="45.71138" lon="5.67438">
        <ele>295.70001220703</ele>
        <time>2012-05-13T14:28:11Z</time>
      </trkpt>
      <trkpt lat="45.71158" lon="5.67432">
        <ele>297.5</ele>
        <time>2012-05-13T14:28:16Z</time>
      </trkpt>
      <trkpt lat="45.71179" lon="5.67425">
        <ele>298.79998779297</ele>
        <time>2012-05-13T14:28:20Z</time>
      </trkpt>
      <trkpt lat="45.71202" lon="5.67412">
        <ele>300.29998779297</ele>
        <time>2012-05-13T14:28:24Z</time>
      </trkpt>
      <trkpt lat="45.71225" lon="5.67396">
        <ele>302.29998779297</ele>
        <time>2012-05-13T14:28:28Z</time>
      </trkpt>
      <trkpt lat="45.71248" lon="5.67385">
        <ele>303.59997558594</ele>
        <time>2012-05-13T14:28:32Z</time>
      </trkpt>
      <trkpt lat="45.71273" lon="5.6736">
        <ele>305.20001220703</ele>
        <time>2012-05-13T14:28:43Z</time>
      </trkpt>
      <trkpt lat="45.7129" lon="5.67372">
        <ele>307.40002441406</ele>
        <time>2012-05-13T14:28:56Z</time>
      </trkpt>
      <trkpt lat="45.71304" lon="5.6739">
        <ele>311.09997558594</ele>
        <time>2012-05-13T14:29:13Z</time>
      </trkpt>
      <trkpt lat="45.71317" lon="5.67413">
        <ele>314.90002441406</ele>
        <time>2012-05-13T14:29:34Z</time>
      </trkpt>
      <trkpt lat="45.71339" lon="5.67432">
        <ele>317.70001220703</ele>
        <time>2012-05-13T14:29:39Z</time>
      </trkpt>
      <trkpt lat="45.71365" lon="5.67457">
        <ele>320.5</ele>
        <time>2012-05-13T14:29:43Z</time>
      </trkpt>
      <trkpt lat="45.71394" lon="5.67486">
        <ele>324.59997558594</ele>
        <time>2012-05-13T14:30:02Z</time>
      </trkpt>
      <trkpt lat="45.71423" lon="5.6749">
        <ele>336.09997558594</ele>
        <time>2012-05-13T14:30:32Z</time>
      </trkpt>
      <trkpt lat="45.71457" lon="5.67502">
        <ele>338.70001220703</ele>
        <time>2012-05-13T14:30:40Z</time>
      </trkpt>
      <trkpt lat="45.71483" lon="5.67515">
        <ele>340.79998779297</ele>
        <time>2012-05-13T14:30:44Z</time>
      </trkpt>
      <trkpt lat="45.71516" lon="5.67527">
        <ele>341.09997558594</ele>
        <time>2012-05-13T14:30:50Z</time>
      </trkpt>
      <trkpt lat="45.71551" lon="5.67538">
        <ele>341</ele>
        <time>2012-05-13T14:30:56Z</time>
      </trkpt>
      <trkpt lat="45.71577" lon="5.67527">
        <ele>344.5</ele>
        <time>2012-05-13T14:31:19Z</time>
      </trkpt>
      <trkpt lat="45.71592" lon="5.6751">
        <ele>348.79998779297</ele>
        <time>2012-05-13T14:31:33Z</time>
      </trkpt>
      <trkpt lat="45.71603" lon="5.67487">
        <ele>350.40002441406</ele>
        <time>2012-05-13T14:31:44Z</time>
      </trkpt>
      <trkpt lat="45.71626" lon="5.67478">
        <ele>358.29998779297</ele>
        <time>2012-05-13T14:32:55Z</time>
      </trkpt>
      <trkpt lat="45.71647" lon="5.67477">
        <ele>362.40002441406</ele>
        <time>2012-05-13T14:33:09Z</time>
      </trkpt>
      <trkpt lat="45.71683" lon="5.67467">
        <ele>363.40002441406</ele>
        <time>2012-05-13T14:33:15Z</time>
      </trkpt>
      <trkpt lat="45.71706" lon="5.67459">
        <ele>365.90002441406</ele>
        <time>2012-05-13T14:33:20Z</time>
      </trkpt>
      <trkpt lat="45.7174" lon="5.6746">
        <ele>368.79998779297</ele>
        <time>2012-05-13T14:33:26Z</time>
      </trkpt>
      <trkpt lat="45.71762" lon="5.6744">
        <ele>376.5</ele>
        <time>2012-05-13T14:33:57Z</time>
      </trkpt>
      <trkpt lat="45.71778" lon="5.67425">
        <ele>379.40002441406</ele>
        <time>2012-05-13T14:34:16Z</time>
      </trkpt>
      <trkpt lat="45.71806" lon="5.67412">
        <ele>376.79998779297</ele>
        <time>2012-05-13T14:34:34Z</time>
      </trkpt>
      <trkpt lat="45.7183" lon="5.6741">
        <ele>378.29998779297</ele>
        <time>2012-05-13T14:34:41Z</time>
      </trkpt>
      <trkpt lat="45.71853" lon="5.67426">
        <ele>379.5</ele>
        <time>2012-05-13T14:34:46Z</time>
      </trkpt>
      <trkpt lat="45.71883" lon="5.67442">
        <ele>380.29998779297</ele>
        <time>2012-05-13T14:34:52Z</time>
      </trkpt>
      <trkpt lat="45.71907" lon="5.67458">
        <ele>380.70001220703</ele>
        <time>2012-05-13T14:34:55Z</time>
      </trkpt>
      <trkpt lat="45.71929" lon="5.6748">
        <ele>379.70001220703</ele>
        <time>2012-05-13T14:35:00Z</time>
      </trkpt>
      <trkpt lat="45.71948" lon="5.675">
        <ele>378.70001220703</ele>
        <time>2012-05-13T14:35:04Z</time>
      </trkpt>
      <trkpt lat="45.71963" lon="5.6752">
        <ele>378.59997558594</ele>
        <time>2012-05-13T14:35:09Z</time>
      </trkpt>
      <trkpt lat="45.71979" lon="5.67537">
        <ele>379.90002441406</ele>
        <time>2012-05-13T14:35:13Z</time>
      </trkpt>
      <trkpt lat="45.71996" lon="5.67566">
        <ele>380.90002441406</ele>
        <time>2012-05-13T14:35:17Z</time>
      </trkpt>
      <trkpt lat="45.7201" lon="5.67595">
        <ele>383</ele>
        <time>2012-05-13T14:35:20Z</time>
      </trkpt>
      <trkpt lat="45.7203" lon="5.67644">
        <ele>384.09997558594</ele>
        <time>2012-05-13T14:35:34Z</time>
      </trkpt>
      <trkpt lat="45.72046" lon="5.67682">
        <ele>385.20001220703</ele>
        <time>2012-05-13T14:36:16Z</time>
      </trkpt>
      <trkpt lat="45.72067" lon="5.67711">
        <ele>391.90002441406</ele>
        <time>2012-05-13T14:36:42Z</time>
      </trkpt>
      <trkpt lat="45.72078" lon="5.67734">
        <ele>398.09997558594</ele>
        <time>2012-05-13T14:36:56Z</time>
      </trkpt>
      <trkpt lat="45.72086" lon="5.6776">
        <ele>397.20001220703</ele>
        <time>2012-05-13T14:37:06Z</time>
      </trkpt>
      <trkpt lat="45.7209" lon="5.67786">
        <ele>397.09997558594</ele>
        <time>2012-05-13T14:37:22Z</time>
      </trkpt>
      <trkpt lat="45.72116" lon="5.67814">
        <ele>396.79998779297</ele>
        <time>2012-05-13T14:37:33Z</time>
      </trkpt>
      <trkpt lat="45.72138" lon="5.67839">
        <ele>398.09997558594</ele>
        <time>2012-05-13T14:37:53Z</time>
      </trkpt>
      <trkpt lat="45.72154" lon="5.67874">
        <ele>395.20001220703</ele>
        <time>2012-05-13T14:38:12Z</time>
      </trkpt>
      <trkpt lat="45.72172" lon="5.67908">
        <ele>393.90002441406</ele>
        <time>2012-05-13T14:38:30Z</time>
      </trkpt>
      <trkpt lat="45.72189" lon="5.67941">
        <ele>387.70001220703</ele>
        <time>2012-05-13T14:38:47Z</time>
      </trkpt>
      <trkpt lat="45.72201" lon="5.67963">
        <ele>383</ele>
        <time>2012-05-13T14:39:00Z</time>
      </trkpt>
      <trkpt lat="45.72212" lon="5.67986">
        <ele>378.29998779297</ele>
        <time>2012-05-13T14:39:10Z</time>
      </trkpt>
      <trkpt lat="45.72223" lon="5.68007">
        <ele>379.20001220703</ele>
        <time>2012-05-13T14:39:21Z</time>
      </trkpt>
      <trkpt lat="45.72235" lon="5.68031">
        <ele>376.79998779297</ele>
        <time>2012-05-13T14:39:39Z</time>
      </trkpt>
      <trkpt lat="45.7225" lon="5.68049">
        <ele>377</ele>
        <time>2012-05-13T14:39:52Z</time>
      </trkpt>
      <trkpt lat="45.72244" lon="5.68074">
        <ele>367.79998779297</ele>
        <time>2012-05-13T14:41:05Z</time>
      </trkpt>
      <trkpt lat="45.72225" lon="5.68065">
        <ele>367.40002441406</ele>
        <time>2012-05-13T14:41:17Z</time>
      </trkpt>
      <trkpt lat="45.72216" lon="5.68061">
        <ele>368.29998779297</ele>
        <time>2012-05-13T14:41:20Z</time>
      </trkpt>
      <trkpt lat="45.72206" lon="5.6806">
        <ele>369.40002441406</ele>
        <time>2012-05-13T14:41:26Z</time>
      </trkpt>
      <trkpt lat="45.72197" lon="5.68056">
        <ele>368.79998779297</ele>
        <time>2012-05-13T14:41:32Z</time>
      </trkpt>
      <trkpt lat="45.72179" lon="5.68051">
        <ele>368.5</ele>
        <time>2012-05-13T14:41:41Z</time>
      </trkpt>
      <trkpt lat="45.7217" lon="5.68047">
        <ele>368.20001220703</ele>
        <time>2012-05-13T14:41:47Z</time>
      </trkpt>
      <trkpt lat="45.72159" lon="5.68045">
        <ele>369.40002441406</ele>
        <time>2012-05-13T14:41:52Z</time>
      </trkpt>
      <trkpt lat="45.7215" lon="5.6804">
        <ele>370.09997558594</ele>
        <time>2012-05-13T14:41:56Z</time>
      </trkpt>
      <trkpt lat="45.7214" lon="5.68036">
        <ele>371.40002441406</ele>
        <time>2012-05-13T14:42:01Z</time>
      </trkpt>
      <trkpt lat="45.72131" lon="5.68033">
        <ele>372.20001220703</ele>
        <time>2012-05-13T14:42:06Z</time>
      </trkpt>
      <trkpt lat="45.72122" lon="5.6803">
        <ele>373.09997558594</ele>
        <time>2012-05-13T14:42:11Z</time>
      </trkpt>
      <trkpt lat="45.72112" lon="5.68027">
        <ele>372.90002441406</ele>
        <time>2012-05-13T14:42:16Z</time>
      </trkpt>
      <trkpt lat="45.72095" lon="5.68034">
        <ele>369.20001220703</ele>
        <time>2012-05-13T14:42:29Z</time>
      </trkpt>
      <trkpt lat="45.72088" lon="5.68044">
        <ele>369.29998779297</ele>
        <time>2012-05-13T14:42:33Z</time>
      </trkpt>
      <trkpt lat="45.72081" lon="5.68053">
        <ele>369.09997558594</ele>
        <time>2012-05-13T14:42:39Z</time>
      </trkpt>
      <trkpt lat="45.72075" lon="5.68063">
        <ele>369.40002441406</ele>
        <time>2012-05-13T14:42:45Z</time>
      </trkpt>
      <trkpt lat="45.72068" lon="5.68073">
        <ele>370.20001220703</ele>
        <time>2012-05-13T14:42:51Z</time>
      </trkpt>
      <trkpt lat="45.72062" lon="5.68083">
        <ele>370.59997558594</ele>
        <time>2012-05-13T14:42:57Z</time>
      </trkpt>
      <trkpt lat="45.72058" lon="5.68097">
        <ele>371.09997558594</ele>
        <time>2012-05-13T14:43:04Z</time>
      </trkpt>
      <trkpt lat="45.72059" lon="5.68112">
        <ele>371.29998779297</ele>
        <time>2012-05-13T14:43:11Z</time>
      </trkpt>
      <trkpt lat="45.72061" lon="5.68126">
        <ele>371.59997558594</ele>
        <time>2012-05-13T14:43:18Z</time>
      </trkpt>
      <trkpt lat="45.72065" lon="5.68138">
        <ele>372.90002441406</ele>
        <time>2012-05-13T14:43:26Z</time>
      </trkpt>
      <trkpt lat="45.72071" lon="5.68164">
        <ele>370.79998779297</ele>
        <time>2012-05-13T14:43:39Z</time>
      </trkpt>
      <trkpt lat="45.72074" lon="5.68178">
        <ele>367.40002441406</ele>
        <time>2012-05-13T14:43:44Z</time>
      </trkpt>
      <trkpt lat="45.72077" lon="5.68191">
        <ele>364.5</ele>
        <time>2012-05-13T14:43:50Z</time>
      </trkpt>
      <trkpt lat="45.72078" lon="5.68205">
        <ele>361.70001220703</ele>
        <time>2012-05-13T14:43:57Z</time>
      </trkpt>
      <trkpt lat="45.72078" lon="5.6822">
        <ele>361.29998779297</ele>
        <time>2012-05-13T14:44:04Z</time>
      </trkpt>
      <trkpt lat="45.7208" lon="5.68253">
        <ele>359.90002441406</ele>
        <time>2012-05-13T14:44:15Z</time>
      </trkpt>
      <trkpt lat="45.72084" lon="5.68265">
        <ele>361.09997558594</ele>
        <time>2012-05-13T14:44:21Z</time>
      </trkpt>
      <trkpt lat="45.72085" lon="5.6828">
        <ele>360.79998779297</ele>
        <time>2012-05-13T14:44:27Z</time>
      </trkpt>
      <trkpt lat="45.72085" lon="5.68295">
        <ele>359.40002441406</ele>
        <time>2012-05-13T14:44:33Z</time>
      </trkpt>
      <trkpt lat="45.72086" lon="5.6831">
        <ele>357.59997558594</ele>
        <time>2012-05-13T14:44:39Z</time>
      </trkpt>
      <trkpt lat="45.72084" lon="5.68323">
        <ele>355.79998779297</ele>
        <time>2012-05-13T14:44:44Z</time>
      </trkpt>
      <trkpt lat="45.72081" lon="5.68336">
        <ele>352.5</ele>
        <time>2012-05-13T14:44:49Z</time>
      </trkpt>
      <trkpt lat="45.72078" lon="5.6835">
        <ele>350.59997558594</ele>
        <time>2012-05-13T14:44:55Z</time>
      </trkpt>
      <trkpt lat="45.72075" lon="5.68364">
        <ele>349.59997558594</ele>
        <time>2012-05-13T14:45:01Z</time>
      </trkpt>
      <trkpt lat="45.72073" lon="5.68376">
        <ele>348.40002441406</ele>
        <time>2012-05-13T14:45:07Z</time>
      </trkpt>
      <trkpt lat="45.72073" lon="5.6839">
        <ele>346.79998779297</ele>
        <time>2012-05-13T14:45:13Z</time>
      </trkpt>
      <trkpt lat="45.72075" lon="5.68404">
        <ele>346.29998779297</ele>
        <time>2012-05-13T14:45:19Z</time>
      </trkpt>
      <trkpt lat="45.72077" lon="5.68417">
        <ele>346.90002441406</ele>
        <time>2012-05-13T14:45:25Z</time>
      </trkpt>
      <trkpt lat="45.72078" lon="5.6843">
        <ele>346.5</ele>
        <time>2012-05-13T14:45:30Z</time>
      </trkpt>
      <trkpt lat="45.7208" lon="5.68444">
        <ele>345.29998779297</ele>
        <time>2012-05-13T14:45:36Z</time>
      </trkpt>
      <trkpt lat="45.72088" lon="5.6847">
        <ele>345</ele>
        <time>2012-05-13T14:45:49Z</time>
      </trkpt>
      <trkpt lat="45.72092" lon="5.68481">
        <ele>345.20001220703</ele>
        <time>2012-05-13T14:45:56Z</time>
      </trkpt>
      <trkpt lat="45.72104" lon="5.68505">
        <ele>344.79998779297</ele>
        <time>2012-05-13T14:46:09Z</time>
      </trkpt>
      <trkpt lat="45.7211" lon="5.68516">
        <ele>345.20001220703</ele>
        <time>2012-05-13T14:46:15Z</time>
      </trkpt>
      <trkpt lat="45.72115" lon="5.68528">
        <ele>344.5</ele>
        <time>2012-05-13T14:46:21Z</time>
      </trkpt>
      <trkpt lat="45.7212" lon="5.68544">
        <ele>342.09997558594</ele>
        <time>2012-05-13T14:46:26Z</time>
      </trkpt>
      <trkpt lat="45.72124" lon="5.68557">
        <ele>339.90002441406</ele>
        <time>2012-05-13T14:46:30Z</time>
      </trkpt>
      <trkpt lat="45.72128" lon="5.68572">
        <ele>337.40002441406</ele>
        <time>2012-05-13T14:46:34Z</time>
      </trkpt>
      <trkpt lat="45.72133" lon="5.68586">
        <ele>336.29998779297</ele>
        <time>2012-05-13T14:46:39Z</time>
      </trkpt>
      <trkpt lat="45.72139" lon="5.68597">
        <ele>336</ele>
        <time>2012-05-13T14:46:44Z</time>
      </trkpt>
      <trkpt lat="45.72145" lon="5.68609">
        <ele>335.59997558594</ele>
        <time>2012-05-13T14:46:51Z</time>
      </trkpt>
      <trkpt lat="45.72151" lon="5.6862">
        <ele>335.09997558594</ele>
        <time>2012-05-13T14:46:58Z</time>
      </trkpt>
      <trkpt lat="45.72157" lon="5.68632">
        <ele>335.40002441406</ele>
        <time>2012-05-13T14:47:05Z</time>
      </trkpt>
      <trkpt lat="45.72164" lon="5.68642">
        <ele>336.59997558594</ele>
        <time>2012-05-13T14:47:12Z</time>
      </trkpt>
      <trkpt lat="45.72171" lon="5.68652">
        <ele>337.09997558594</ele>
        <time>2012-05-13T14:47:18Z</time>
      </trkpt>
      <trkpt lat="45.72189" lon="5.68659">
        <ele>335</ele>
        <time>2012-05-13T14:47:33Z</time>
      </trkpt>
      <trkpt lat="45.72206" lon="5.68648">
        <ele>330.90002441406</ele>
        <time>2012-05-13T14:47:44Z</time>
      </trkpt>
      <trkpt lat="45.72215" lon="5.68642">
        <ele>329.79998779297</ele>
        <time>2012-05-13T14:47:49Z</time>
      </trkpt>
      <trkpt lat="45.72224" lon="5.68636">
        <ele>328.59997558594</ele>
        <time>2012-05-13T14:47:53Z</time>
      </trkpt>
      <trkpt lat="45.72233" lon="5.68631">
        <ele>327.59997558594</ele>
        <time>2012-05-13T14:47:57Z</time>
      </trkpt>
      <trkpt lat="45.72243" lon="5.68629">
        <ele>326.29998779297</ele>
        <time>2012-05-13T14:48:01Z</time>
      </trkpt>
      <trkpt lat="45.72253" lon="5.68626">
        <ele>325.29998779297</ele>
        <time>2012-05-13T14:48:05Z</time>
      </trkpt>
      <trkpt lat="45.72263" lon="5.68624">
        <ele>324.90002441406</ele>
        <time>2012-05-13T14:48:09Z</time>
      </trkpt>
      <trkpt lat="45.72282" lon="5.68623">
        <ele>325.20001220703</ele>
        <time>2012-05-13T14:48:17Z</time>
      </trkpt>
      <trkpt lat="45.72293" lon="5.68624">
        <ele>325.90002441406</ele>
        <time>2012-05-13T14:48:22Z</time>
      </trkpt>
      <trkpt lat="45.72302" lon="5.68624">
        <ele>325.5</ele>
        <time>2012-05-13T14:48:26Z</time>
      </trkpt>
      <trkpt lat="45.72311" lon="5.68623">
        <ele>325.79998779297</ele>
        <time>2012-05-13T14:48:33Z</time>
      </trkpt>
      <trkpt lat="45.72322" lon="5.68623">
        <ele>326.90002441406</ele>
        <time>2012-05-13T14:48:39Z</time>
      </trkpt>
      <trkpt lat="45.72332" lon="5.68623">
        <ele>327.79998779297</ele>
        <time>2012-05-13T14:48:45Z</time>
      </trkpt>
      <trkpt lat="45.72342" lon="5.68624">
        <ele>327.20001220703</ele>
        <time>2012-05-13T14:48:51Z</time>
      </trkpt>
      <trkpt lat="45.72348" lon="5.68634">
        <ele>328.29998779297</ele>
        <time>2012-05-13T14:48:53Z</time>
      </trkpt>
      <trkpt lat="45.72352" lon="5.68646">
        <ele>328.90002441406</ele>
        <time>2012-05-13T14:48:56Z</time>
      </trkpt>
      <trkpt lat="45.72353" lon="5.68661">
        <ele>329.59997558594</ele>
        <time>2012-05-13T14:49:00Z</time>
      </trkpt>
      <trkpt lat="45.72355" lon="5.68675">
        <ele>328.09997558594</ele>
        <time>2012-05-13T14:49:04Z</time>
      </trkpt>
      <trkpt lat="45.72358" lon="5.68689">
        <ele>327.29998779297</ele>
        <time>2012-05-13T14:49:09Z</time>
      </trkpt>
      <trkpt lat="45.72361" lon="5.68701">
        <ele>328.79998779297</ele>
        <time>2012-05-13T14:49:16Z</time>
      </trkpt>
      <trkpt lat="45.72361" lon="5.68714">
        <ele>328.09997558594</ele>
        <time>2012-05-13T14:49:22Z</time>
      </trkpt>
      <trkpt lat="45.72359" lon="5.68728">
        <ele>327.29998779297</ele>
        <time>2012-05-13T14:49:28Z</time>
      </trkpt>
      <trkpt lat="45.72357" lon="5.68742">
        <ele>327</ele>
        <time>2012-05-13T14:49:34Z</time>
      </trkpt>
      <trkpt lat="45.72355" lon="5.68755">
        <ele>327.09997558594</ele>
        <time>2012-05-13T14:49:40Z</time>
      </trkpt>
      <trkpt lat="45.72352" lon="5.68767">
        <ele>327.70001220703</ele>
        <time>2012-05-13T14:49:46Z</time>
      </trkpt>
      <trkpt lat="45.72346" lon="5.68781">
        <ele>326.5</ele>
        <time>2012-05-13T14:49:52Z</time>
      </trkpt>
      <trkpt lat="45.72345" lon="5.68811">
        <ele>324.79998779297</ele>
        <time>2012-05-13T14:50:01Z</time>
      </trkpt>
      <trkpt lat="45.72347" lon="5.68838">
        <ele>323.29998779297</ele>
        <time>2012-05-13T14:50:09Z</time>
      </trkpt>
      <trkpt lat="45.72347" lon="5.68852">
        <ele>322.09997558594</ele>
        <time>2012-05-13T14:50:13Z</time>
      </trkpt>
      <trkpt lat="45.7235" lon="5.68865">
        <ele>322.29998779297</ele>
        <time>2012-05-13T14:50:19Z</time>
      </trkpt>
      <trkpt lat="45.72351" lon="5.6888">
        <ele>322.59997558594</ele>
        <time>2012-05-13T14:50:26Z</time>
      </trkpt>
      <trkpt lat="45.72353" lon="5.68894">
        <ele>324.40002441406</ele>
        <time>2012-05-13T14:50:33Z</time>
      </trkpt>
      <trkpt lat="45.72355" lon="5.68908">
        <ele>323.79998779297</ele>
        <time>2012-05-13T14:50:39Z</time>
      </trkpt>
      <trkpt lat="45.72359" lon="5.68936">
        <ele>322.40002441406</ele>
        <time>2012-05-13T14:50:47Z</time>
      </trkpt>
      <trkpt lat="45.72362" lon="5.68966">
        <ele>319.79998779297</ele>
        <time>2012-05-13T14:50:55Z</time>
      </trkpt>
      <trkpt lat="45.72363" lon="5.68981">
        <ele>318.70001220703</ele>
        <time>2012-05-13T14:50:59Z</time>
      </trkpt>
      <trkpt lat="45.72364" lon="5.6901">
        <ele>318.90002441406</ele>
        <time>2012-05-13T14:51:08Z</time>
      </trkpt>
      <trkpt lat="45.72366" lon="5.69024">
        <ele>319</ele>
        <time>2012-05-13T14:51:14Z</time>
      </trkpt>
      <trkpt lat="45.72368" lon="5.69037">
        <ele>318.70001220703</ele>
        <time>2012-05-13T14:51:20Z</time>
      </trkpt>
      <trkpt lat="45.72372" lon="5.69065">
        <ele>314.40002441406</ele>
        <time>2012-05-13T14:51:31Z</time>
      </trkpt>
      <trkpt lat="45.72372" lon="5.69079">
        <ele>313.70001220703</ele>
        <time>2012-05-13T14:51:37Z</time>
      </trkpt>
      <trkpt lat="45.72374" lon="5.69092">
        <ele>312.90002441406</ele>
        <time>2012-05-13T14:51:41Z</time>
      </trkpt>
      <trkpt lat="45.72376" lon="5.69106">
        <ele>311.70001220703</ele>
        <time>2012-05-13T14:51:45Z</time>
      </trkpt>
      <trkpt lat="45.72378" lon="5.6912">
        <ele>311.90002441406</ele>
        <time>2012-05-13T14:51:51Z</time>
      </trkpt>
      <trkpt lat="45.7238" lon="5.69133">
        <ele>311.90002441406</ele>
        <time>2012-05-13T14:51:57Z</time>
      </trkpt>
      <trkpt lat="45.72382" lon="5.69148">
        <ele>312.90002441406</ele>
        <time>2012-05-13T14:52:04Z</time>
      </trkpt>
      <trkpt lat="45.72384" lon="5.69161">
        <ele>313.20001220703</ele>
        <time>2012-05-13T14:52:10Z</time>
      </trkpt>
      <trkpt lat="45.72387" lon="5.69174">
        <ele>313.20001220703</ele>
        <time>2012-05-13T14:52:16Z</time>
      </trkpt>
      <trkpt lat="45.72394" lon="5.69199">
        <ele>312.90002441406</ele>
        <time>2012-05-13T14:52:27Z</time>
      </trkpt>
      <trkpt lat="45.72397" lon="5.69213">
        <ele>313.09997558594</ele>
        <time>2012-05-13T14:52:33Z</time>
      </trkpt>
      <trkpt lat="45.72399" lon="5.69227">
        <ele>312.59997558594</ele>
        <time>2012-05-13T14:52:38Z</time>
      </trkpt>
      <trkpt lat="45.72399" lon="5.69241">
        <ele>311.09997558594</ele>
        <time>2012-05-13T14:52:42Z</time>
      </trkpt>
      <trkpt lat="45.72399" lon="5.69257">
        <ele>311.5</ele>
        <time>2012-05-13T14:52:47Z</time>
      </trkpt>
      <trkpt lat="45.72397" lon="5.69271">
        <ele>311.90002441406</ele>
        <time>2012-05-13T14:52:51Z</time>
      </trkpt>
      <trkpt lat="45.72393" lon="5.69284">
        <ele>311.5</ele>
        <time>2012-05-13T14:52:55Z</time>
      </trkpt>
      <trkpt lat="45.72391" lon="5.69297">
        <ele>310.5</ele>
        <time>2012-05-13T14:52:59Z</time>
      </trkpt>
      <trkpt lat="45.72389" lon="5.69311">
        <ele>309.20001220703</ele>
        <time>2012-05-13T14:53:04Z</time>
      </trkpt>
      <trkpt lat="45.72386" lon="5.69326">
        <ele>308.59997558594</ele>
        <time>2012-05-13T14:53:09Z</time>
      </trkpt>
      <trkpt lat="45.72384" lon="5.69339">
        <ele>309</ele>
        <time>2012-05-13T14:53:17Z</time>
      </trkpt>
      <trkpt lat="45.72393" lon="5.69341">
        <ele>309.5</ele>
        <time>2012-05-13T14:53:30Z</time>
      </trkpt>
      <trkpt lat="45.72403" lon="5.69337">
        <ele>308.70001220703</ele>
        <time>2012-05-13T14:53:39Z</time>
      </trkpt>
      <trkpt lat="45.72412" lon="5.69332">
        <ele>307.70001220703</ele>
        <time>2012-05-13T14:53:44Z</time>
      </trkpt>
      <trkpt lat="45.72422" lon="5.69327">
        <ele>306.70001220703</ele>
        <time>2012-05-13T14:53:50Z</time>
      </trkpt>
      <trkpt lat="45.72432" lon="5.69323">
        <ele>305.59997558594</ele>
        <time>2012-05-13T14:53:56Z</time>
      </trkpt>
      <trkpt lat="45.72442" lon="5.69318">
        <ele>303.40002441406</ele>
        <time>2012-05-13T14:54:00Z</time>
      </trkpt>
      <trkpt lat="45.72451" lon="5.69313">
        <ele>302.40002441406</ele>
        <time>2012-05-13T14:54:04Z</time>
      </trkpt>
      <trkpt lat="45.72461" lon="5.69308">
        <ele>303.59997558594</ele>
        <time>2012-05-13T14:54:10Z</time>
      </trkpt>
      <trkpt lat="45.7247" lon="5.69303">
        <ele>302</ele>
        <time>2012-05-13T14:54:17Z</time>
      </trkpt>
      <trkpt lat="45.7248" lon="5.693">
        <ele>301.79998779297</ele>
        <time>2012-05-13T14:54:23Z</time>
      </trkpt>
      <trkpt lat="45.7249" lon="5.693">
        <ele>302.79998779297</ele>
        <time>2012-05-13T14:54:28Z</time>
      </trkpt>
      <trkpt lat="45.725" lon="5.69298">
        <ele>302.90002441406</ele>
        <time>2012-05-13T14:54:33Z</time>
      </trkpt>
      <trkpt lat="45.7251" lon="5.69296">
        <ele>302.79998779297</ele>
        <time>2012-05-13T14:54:39Z</time>
      </trkpt>
      <trkpt lat="45.7252" lon="5.69292">
        <ele>302.59997558594</ele>
        <time>2012-05-13T14:54:45Z</time>
      </trkpt>
      <trkpt lat="45.7253" lon="5.69289">
        <ele>301.90002441406</ele>
        <time>2012-05-13T14:54:51Z</time>
      </trkpt>
      <trkpt lat="45.7254" lon="5.69285">
        <ele>301.79998779297</ele>
        <time>2012-05-13T14:54:55Z</time>
      </trkpt>
      <trkpt lat="45.72551" lon="5.69286">
        <ele>303.40002441406</ele>
        <time>2012-05-13T14:54:59Z</time>
      </trkpt>
      <trkpt lat="45.7256" lon="5.69294">
        <ele>304</ele>
        <time>2012-05-13T14:55:04Z</time>
      </trkpt>
      <trkpt lat="45.72568" lon="5.69302">
        <ele>305.09997558594</ele>
        <time>2012-05-13T14:55:09Z</time>
      </trkpt>
      <trkpt lat="45.72575" lon="5.69312">
        <ele>306.09997558594</ele>
        <time>2012-05-13T14:55:15Z</time>
      </trkpt>
      <trkpt lat="45.7258" lon="5.69324">
        <ele>305.40002441406</ele>
        <time>2012-05-13T14:55:19Z</time>
      </trkpt>
      <trkpt lat="45.72587" lon="5.69336">
        <ele>304.20001220703</ele>
        <time>2012-05-13T14:55:23Z</time>
      </trkpt>
      <trkpt lat="45.72593" lon="5.69347">
        <ele>304.09997558594</ele>
        <time>2012-05-13T14:55:29Z</time>
      </trkpt>
      <trkpt lat="45.72598" lon="5.69359">
        <ele>304.59997558594</ele>
        <time>2012-05-13T14:55:36Z</time>
      </trkpt>
      <trkpt lat="45.72604" lon="5.69369">
        <ele>304.70001220703</ele>
        <time>2012-05-13T14:55:42Z</time>
      </trkpt>
      <trkpt lat="45.72611" lon="5.69379">
        <ele>305.40002441406</ele>
        <time>2012-05-13T14:55:51Z</time>
      </trkpt>
      <trkpt lat="45.72618" lon="5.69388">
        <ele>306.09997558594</ele>
        <time>2012-05-13T14:55:58Z</time>
      </trkpt>
      <trkpt lat="45.72628" lon="5.69395">
        <ele>305.5</ele>
        <time>2012-05-13T14:56:04Z</time>
      </trkpt>
      <trkpt lat="45.72643" lon="5.69411">
        <ele>303.20001220703</ele>
        <time>2012-05-13T14:56:14Z</time>
      </trkpt>
      <trkpt lat="45.72649" lon="5.69424">
        <ele>299.5</ele>
        <time>2012-05-13T14:56:16Z</time>
      </trkpt>
      <trkpt lat="45.72656" lon="5.69438">
        <ele>296.5</ele>
        <time>2012-05-13T14:56:19Z</time>
      </trkpt>
      <trkpt lat="45.72663" lon="5.69449">
        <ele>294.5</ele>
        <time>2012-05-13T14:56:23Z</time>
      </trkpt>
      <trkpt lat="45.72669" lon="5.69459">
        <ele>293.40002441406</ele>
        <time>2012-05-13T14:56:27Z</time>
      </trkpt>
      <trkpt lat="45.72675" lon="5.6947">
        <ele>293.09997558594</ele>
        <time>2012-05-13T14:56:34Z</time>
      </trkpt>
      <trkpt lat="45.72685" lon="5.69496">
        <ele>292.5</ele>
        <time>2012-05-13T14:56:45Z</time>
      </trkpt>
      <trkpt lat="45.72692" lon="5.69526">
        <ele>288.5</ele>
        <time>2012-05-13T14:56:56Z</time>
      </trkpt>
      <trkpt lat="45.72692" lon="5.6954">
        <ele>286.90002441406</ele>
        <time>2012-05-13T14:57:00Z</time>
      </trkpt>
      <trkpt lat="45.72686" lon="5.69551">
        <ele>285.59997558594</ele>
        <time>2012-05-13T14:57:04Z</time>
      </trkpt>
      <trkpt lat="45.72669" lon="5.69574">
        <ele>284.09997558594</ele>
        <time>2012-05-13T14:57:12Z</time>
      </trkpt>
      <trkpt lat="45.72661" lon="5.69583">
        <ele>283.40002441406</ele>
        <time>2012-05-13T14:57:17Z</time>
      </trkpt>
      <trkpt lat="45.72651" lon="5.6959">
        <ele>282.29998779297</ele>
        <time>2012-05-13T14:57:23Z</time>
      </trkpt>
      <trkpt lat="45.72642" lon="5.69597">
        <ele>281.5</ele>
        <time>2012-05-13T14:57:27Z</time>
      </trkpt>
      <trkpt lat="45.72632" lon="5.69603">
        <ele>280.59997558594</ele>
        <time>2012-05-13T14:57:29Z</time>
      </trkpt>
      <trkpt lat="45.72623" lon="5.69608">
        <ele>280.40002441406</ele>
        <time>2012-05-13T14:57:31Z</time>
      </trkpt>
      <trkpt lat="45.72613" lon="5.69612">
        <ele>280.29998779297</ele>
        <time>2012-05-13T14:57:33Z</time>
      </trkpt>
      <trkpt lat="45.72604" lon="5.69616">
        <ele>280.29998779297</ele>
        <time>2012-05-13T14:57:35Z</time>
      </trkpt>
      <trkpt lat="45.72595" lon="5.6962">
        <ele>280.40002441406</ele>
        <time>2012-05-13T14:57:37Z</time>
      </trkpt>
      <trkpt lat="45.72581" lon="5.69626">
        <ele>280.59997558594</ele>
        <time>2012-05-13T14:57:40Z</time>
      </trkpt>
      <trkpt lat="45.72571" lon="5.6963">
        <ele>280.79998779297</ele>
        <time>2012-05-13T14:57:42Z</time>
      </trkpt>
      <trkpt lat="45.72562" lon="5.69633">
        <ele>280.40002441406</ele>
        <time>2012-05-13T14:57:44Z</time>
      </trkpt>
      <trkpt lat="45.72552" lon="5.69635">
        <ele>280.40002441406</ele>
        <time>2012-05-13T14:57:46Z</time>
      </trkpt>
      <trkpt lat="45.72543" lon="5.69638">
        <ele>280.70001220703</ele>
        <time>2012-05-13T14:57:48Z</time>
      </trkpt>
      <trkpt lat="45.72534" lon="5.69641">
        <ele>280.90002441406</ele>
        <time>2012-05-13T14:57:50Z</time>
      </trkpt>
      <trkpt lat="45.72522" lon="5.69646">
        <ele>281.29998779297</ele>
        <time>2012-05-13T14:57:53Z</time>
      </trkpt>
      <trkpt lat="45.7251" lon="5.6965">
        <ele>281.20001220703</ele>
        <time>2012-05-13T14:57:56Z</time>
      </trkpt>
      <trkpt lat="45.725" lon="5.69654">
        <ele>281.20001220703</ele>
        <time>2012-05-13T14:57:58Z</time>
      </trkpt>
      <trkpt lat="45.72481" lon="5.69664">
        <ele>280.79998779297</ele>
        <time>2012-05-13T14:58:02Z</time>
      </trkpt>
      <trkpt lat="45.72462" lon="5.69675">
        <ele>280.59997558594</ele>
        <time>2012-05-13T14:58:06Z</time>
      </trkpt>
      <trkpt lat="45.72445" lon="5.69685">
        <ele>280.79998779297</ele>
        <time>2012-05-13T14:58:10Z</time>
      </trkpt>
      <trkpt lat="45.72425" lon="5.69696">
        <ele>280.70001220703</ele>
        <time>2012-05-13T14:58:14Z</time>
      </trkpt>
      <trkpt lat="45.72415" lon="5.69701">
        <ele>281</ele>
        <time>2012-05-13T14:58:16Z</time>
      </trkpt>
      <trkpt lat="45.72405" lon="5.69706">
        <ele>280.79998779297</ele>
        <time>2012-05-13T14:58:18Z</time>
      </trkpt>
      <trkpt lat="45.72383" lon="5.69717">
        <ele>281</ele>
        <time>2012-05-13T14:58:23Z</time>
      </trkpt>
      <trkpt lat="45.72363" lon="5.69727">
        <ele>281.20001220703</ele>
        <time>2012-05-13T14:58:30Z</time>
      </trkpt>
      <trkpt lat="45.72353" lon="5.6973">
        <ele>280</ele>
        <time>2012-05-13T14:58:38Z</time>
      </trkpt>
      <trkpt lat="45.72346" lon="5.69748">
        <ele>282.20001220703</ele>
        <time>2012-05-13T14:58:57Z</time>
      </trkpt>
      <trkpt lat="45.72353" lon="5.69758">
        <ele>282</ele>
        <time>2012-05-13T14:59:08Z</time>
      </trkpt>
      <trkpt lat="45.72361" lon="5.69752">
        <ele>281.20001220703</ele>
        <time>2012-05-13T14:59:14Z</time>
      </trkpt>
      <trkpt lat="45.72369" lon="5.69744">
        <ele>279.79998779297</ele>
        <time>2012-05-13T14:59:21Z</time>
      </trkpt>
      <trkpt lat="45.72378" lon="5.69739">
        <ele>279.20001220703</ele>
        <time>2012-05-13T14:59:28Z</time>
      </trkpt>
      <trkpt lat="45.72386" lon="5.69735">
        <ele>279.70001220703</ele>
        <time>2012-05-13T14:59:34Z</time>
      </trkpt>
      <trkpt lat="45.72397" lon="5.69732">
        <ele>281.5</ele>
        <time>2012-05-13T14:59:41Z</time>
      </trkpt>
      <trkpt lat="45.72406" lon="5.69728">
        <ele>281.79998779297</ele>
        <time>2012-05-13T14:59:50Z</time>
      </trkpt>
      <trkpt lat="45.72415" lon="5.69723">
        <ele>281.90002441406</ele>
        <time>2012-05-13T14:59:54Z</time>
      </trkpt>
      <trkpt lat="45.72425" lon="5.6972">
        <ele>280.90002441406</ele>
        <time>2012-05-13T14:59:58Z</time>
      </trkpt>
      <trkpt lat="45.72436" lon="5.69716">
        <ele>280.09997558594</ele>
        <time>2012-05-13T15:00:02Z</time>
      </trkpt>
      <trkpt lat="45.72447" lon="5.6971">
        <ele>279.90002441406</ele>
        <time>2012-05-13T15:00:06Z</time>
      </trkpt>
      <trkpt lat="45.72456" lon="5.69707">
        <ele>280.5</ele>
        <time>2012-05-13T15:00:09Z</time>
      </trkpt>
      <trkpt lat="45.72465" lon="5.69702">
        <ele>280.5</ele>
        <time>2012-05-13T15:00:12Z</time>
      </trkpt>
      <trkpt lat="45.72474" lon="5.69698">
        <ele>280.59997558594</ele>
        <time>2012-05-13T15:00:16Z</time>
      </trkpt>
      <trkpt lat="45.72484" lon="5.69694">
        <ele>280.20001220703</ele>
        <time>2012-05-13T15:00:22Z</time>
      </trkpt>
      <trkpt lat="45.72502" lon="5.69681">
        <ele>280</ele>
        <time>2012-05-13T15:00:32Z</time>
      </trkpt>
      <trkpt lat="45.7251" lon="5.69675">
        <ele>278.90002441406</ele>
        <time>2012-05-13T15:00:36Z</time>
      </trkpt>
      <trkpt lat="45.72518" lon="5.69665">
        <ele>277.70001220703</ele>
        <time>2012-05-13T15:00:42Z</time>
      </trkpt>
      <trkpt lat="45.72527" lon="5.69659">
        <ele>277.59997558594</ele>
        <time>2012-05-13T15:00:47Z</time>
      </trkpt>
      <trkpt lat="45.72536" lon="5.69655">
        <ele>276.90002441406</ele>
        <time>2012-05-13T15:00:52Z</time>
      </trkpt>
      <trkpt lat="45.72554" lon="5.69651">
        <ele>277.29998779297</ele>
        <time>2012-05-13T15:01:00Z</time>
      </trkpt>
      <trkpt lat="45.72564" lon="5.69651">
        <ele>278.20001220703</ele>
        <time>2012-05-13T15:01:05Z</time>
      </trkpt>
      <trkpt lat="45.72585" lon="5.69652">
        <ele>278.5</ele>
        <time>2012-05-13T15:01:16Z</time>
      </trkpt>
      <trkpt lat="45.72594" lon="5.69654">
        <ele>279.09997558594</ele>
        <time>2012-05-13T15:01:20Z</time>
      </trkpt>
      <trkpt lat="45.72604" lon="5.69654">
        <ele>281</ele>
        <time>2012-05-13T15:01:26Z</time>
      </trkpt>
      <trkpt lat="45.72613" lon="5.69656">
        <ele>284.59997558594</ele>
        <time>2012-05-13T15:01:35Z</time>
      </trkpt>
      <trkpt lat="45.72622" lon="5.69661">
        <ele>285.29998779297</ele>
        <time>2012-05-13T15:02:51Z</time>
      </trkpt>
      <trkpt lat="45.7264" lon="5.69667">
        <ele>288.09997558594</ele>
        <time>2012-05-13T15:03:06Z</time>
      </trkpt>
      <trkpt lat="45.7266" lon="5.69673">
        <ele>284.5</ele>
        <time>2012-05-13T15:03:15Z</time>
      </trkpt>
      <trkpt lat="45.72677" lon="5.69685">
        <ele>284.5</ele>
        <time>2012-05-13T15:03:24Z</time>
      </trkpt>
      <trkpt lat="45.72696" lon="5.69692">
        <ele>284.70001220703</ele>
        <time>2012-05-13T15:03:36Z</time>
      </trkpt>
      <trkpt lat="45.72719" lon="5.69698">
        <ele>284.70001220703</ele>
        <time>2012-05-13T15:03:46Z</time>
      </trkpt>
      <trkpt lat="45.72738" lon="5.69696">
        <ele>283.79998779297</ele>
        <time>2012-05-13T15:03:56Z</time>
      </trkpt>
      <trkpt lat="45.72757" lon="5.697">
        <ele>284.79998779297</ele>
        <time>2012-05-13T15:04:11Z</time>
      </trkpt>
      <trkpt lat="45.72767" lon="5.697">
        <ele>284.20001220703</ele>
        <time>2012-05-13T15:04:18Z</time>
      </trkpt>
      <trkpt lat="45.72776" lon="5.69701">
        <ele>284.59997558594</ele>
        <time>2012-05-13T15:04:24Z</time>
      </trkpt>
      <trkpt lat="45.72785" lon="5.69701">
        <ele>284.5</ele>
        <time>2012-05-13T15:04:30Z</time>
      </trkpt>
      <trkpt lat="45.72805" lon="5.69706">
        <ele>285.09997558594</ele>
        <time>2012-05-13T15:04:44Z</time>
      </trkpt>
      <trkpt lat="45.72815" lon="5.69706">
        <ele>285.70001220703</ele>
        <time>2012-05-13T15:04:51Z</time>
      </trkpt>
      <trkpt lat="45.72833" lon="5.69711">
        <ele>284.70001220703</ele>
        <time>2012-05-13T15:05:04Z</time>
      </trkpt>
      <trkpt lat="45.72853" lon="5.69718">
        <ele>285</ele>
        <time>2012-05-13T15:05:20Z</time>
      </trkpt>
      <trkpt lat="45.72873" lon="5.69721">
        <ele>284.79998779297</ele>
        <time>2012-05-13T15:05:34Z</time>
      </trkpt>
      <trkpt lat="45.72892" lon="5.69726">
        <ele>284.20001220703</ele>
        <time>2012-05-13T15:05:47Z</time>
      </trkpt>
      <trkpt lat="45.72902" lon="5.6973">
        <ele>284.20001220703</ele>
        <time>2012-05-13T15:05:54Z</time>
      </trkpt>
      <trkpt lat="45.72912" lon="5.69732">
        <ele>284.20001220703</ele>
        <time>2012-05-13T15:06:00Z</time>
      </trkpt>
      <trkpt lat="45.72921" lon="5.69736">
        <ele>284</ele>
        <time>2012-05-13T15:06:06Z</time>
      </trkpt>
      <trkpt lat="45.7293" lon="5.69741">
        <ele>282.59997558594</ele>
        <time>2012-05-13T15:06:18Z</time>
      </trkpt>
      <trkpt lat="45.7294" lon="5.69743">
        <ele>283.09997558594</ele>
        <time>2012-05-13T15:06:23Z</time>
      </trkpt>
      <trkpt lat="45.72949" lon="5.69748">
        <ele>282.79998779297</ele>
        <time>2012-05-13T15:06:28Z</time>
      </trkpt>
      <trkpt lat="45.72966" lon="5.69757">
        <ele>282.40002441406</ele>
        <time>2012-05-13T15:06:38Z</time>
      </trkpt>
      <trkpt lat="45.72976" lon="5.69762">
        <ele>282.59997558594</ele>
        <time>2012-05-13T15:06:45Z</time>
      </trkpt>
      <trkpt lat="45.72985" lon="5.69767">
        <ele>282.79998779297</ele>
        <time>2012-05-13T15:06:51Z</time>
      </trkpt>
      <trkpt lat="45.72993" lon="5.69772">
        <ele>282.79998779297</ele>
        <time>2012-05-13T15:06:57Z</time>
      </trkpt>
      <trkpt lat="45.73002" lon="5.69777">
        <ele>282.79998779297</ele>
        <time>2012-05-13T15:07:03Z</time>
      </trkpt>
      <trkpt lat="45.73011" lon="5.69783">
        <ele>282.79998779297</ele>
        <time>2012-05-13T15:07:09Z</time>
      </trkpt>
      <trkpt lat="45.7302" lon="5.69788">
        <ele>283.20001220703</ele>
        <time>2012-05-13T15:07:15Z</time>
      </trkpt>
      <trkpt lat="45.73038" lon="5.69797">
        <ele>283.20001220703</ele>
        <time>2012-05-13T15:07:25Z</time>
      </trkpt>
      <trkpt lat="45.73048" lon="5.69802">
        <ele>282.79998779297</ele>
        <time>2012-05-13T15:07:31Z</time>
      </trkpt>
      <trkpt lat="45.73057" lon="5.69808">
        <ele>283.09997558594</ele>
        <time>2012-05-13T15:07:37Z</time>
      </trkpt>
      <trkpt lat="45.73073" lon="5.69822">
        <ele>282.40002441406</ele>
        <time>2012-05-13T15:07:51Z</time>
      </trkpt>
      <trkpt lat="45.73081" lon="5.69828">
        <ele>282.29998779297</ele>
        <time>2012-05-13T15:07:56Z</time>
      </trkpt>
      <trkpt lat="45.7309" lon="5.69835">
        <ele>282.20001220703</ele>
        <time>2012-05-13T15:08:02Z</time>
      </trkpt>
      <trkpt lat="45.73099" lon="5.69842">
        <ele>281.90002441406</ele>
        <time>2012-05-13T15:08:08Z</time>
      </trkpt>
      <trkpt lat="45.73107" lon="5.69848">
        <ele>281.79998779297</ele>
        <time>2012-05-13T15:08:13Z</time>
      </trkpt>
      <trkpt lat="45.73124" lon="5.6986">
        <ele>283.29998779297</ele>
        <time>2012-05-13T15:08:26Z</time>
      </trkpt>
      <trkpt lat="45.73143" lon="5.69868">
        <ele>283.79998779297</ele>
        <time>2012-05-13T15:08:40Z</time>
      </trkpt>
      <trkpt lat="45.73153" lon="5.69869">
        <ele>283.5</ele>
        <time>2012-05-13T15:08:47Z</time>
      </trkpt>
      <trkpt lat="45.73162" lon="5.69873">
        <ele>283.90002441406</ele>
        <time>2012-05-13T15:08:53Z</time>
      </trkpt>
      <trkpt lat="45.73171" lon="5.69876">
        <ele>284.20001220703</ele>
        <time>2012-05-13T15:08:59Z</time>
      </trkpt>
      <trkpt lat="45.73191" lon="5.69884">
        <ele>285</ele>
        <time>2012-05-13T15:09:09Z</time>
      </trkpt>
      <trkpt lat="45.73211" lon="5.69894">
        <ele>286.09997558594</ele>
        <time>2012-05-13T15:09:21Z</time>
      </trkpt>
      <trkpt lat="45.73227" lon="5.6991">
        <ele>287.20001220703</ele>
        <time>2012-05-13T15:09:28Z</time>
      </trkpt>
      <trkpt lat="45.73247" lon="5.69924">
        <ele>287.29998779297</ele>
        <time>2012-05-13T15:09:32Z</time>
      </trkpt>
      <trkpt lat="45.73256" lon="5.69931">
        <ele>287</ele>
        <time>2012-05-13T15:09:34Z</time>
      </trkpt>
      <trkpt lat="45.73266" lon="5.69939">
        <ele>286.29998779297</ele>
        <time>2012-05-13T15:09:36Z</time>
      </trkpt>
      <trkpt lat="45.73275" lon="5.69947">
        <ele>285.70001220703</ele>
        <time>2012-05-13T15:09:38Z</time>
      </trkpt>
      <trkpt lat="45.73284" lon="5.69954">
        <ele>284.40002441406</ele>
        <time>2012-05-13T15:09:40Z</time>
      </trkpt>
      <trkpt lat="45.73294" lon="5.69962">
        <ele>283.59997558594</ele>
        <time>2012-05-13T15:09:42Z</time>
      </trkpt>
      <trkpt lat="45.73303" lon="5.6997">
        <ele>283.29998779297</ele>
        <time>2012-05-13T15:09:44Z</time>
      </trkpt>
      <trkpt lat="45.73313" lon="5.69977">
        <ele>282.79998779297</ele>
        <time>2012-05-13T15:09:46Z</time>
      </trkpt>
      <trkpt lat="45.73323" lon="5.69985">
        <ele>283</ele>
        <time>2012-05-13T15:09:48Z</time>
      </trkpt>
      <trkpt lat="45.73333" lon="5.69992">
        <ele>282.59997558594</ele>
        <time>2012-05-13T15:09:50Z</time>
      </trkpt>
      <trkpt lat="45.73342" lon="5.69999">
        <ele>282.20001220703</ele>
        <time>2012-05-13T15:09:52Z</time>
      </trkpt>
      <trkpt lat="45.73352" lon="5.70006">
        <ele>281.70001220703</ele>
        <time>2012-05-13T15:09:54Z</time>
      </trkpt>
      <trkpt lat="45.73362" lon="5.70014">
        <ele>281.29998779297</ele>
        <time>2012-05-13T15:09:56Z</time>
      </trkpt>
      <trkpt lat="45.73372" lon="5.70022">
        <ele>280.70001220703</ele>
        <time>2012-05-13T15:09:58Z</time>
      </trkpt>
      <trkpt lat="45.73382" lon="5.70029">
        <ele>280.20001220703</ele>
        <time>2012-05-13T15:10:00Z</time>
      </trkpt>
      <trkpt lat="45.73392" lon="5.70035">
        <ele>280.70001220703</ele>
        <time>2012-05-13T15:10:02Z</time>
      </trkpt>
      <trkpt lat="45.73401" lon="5.70042">
        <ele>280.29998779297</ele>
        <time>2012-05-13T15:10:04Z</time>
      </trkpt>
      <trkpt lat="45.73416" lon="5.70058">
        <ele>279.59997558594</ele>
        <time>2012-05-13T15:10:08Z</time>
      </trkpt>
      <trkpt lat="45.73424" lon="5.70065">
        <ele>279.5</ele>
        <time>2012-05-13T15:10:10Z</time>
      </trkpt>
      <trkpt lat="45.73434" lon="5.70072">
        <ele>280.20001220703</ele>
        <time>2012-05-13T15:10:13Z</time>
      </trkpt>
      <trkpt lat="45.73452" lon="5.70086">
        <ele>281.59997558594</ele>
        <time>2012-05-13T15:10:25Z</time>
      </trkpt>
      <trkpt lat="45.73469" lon="5.701">
        <ele>282.40002441406</ele>
        <time>2012-05-13T15:10:38Z</time>
      </trkpt>
      <trkpt lat="45.73478" lon="5.70107">
        <ele>282.40002441406</ele>
        <time>2012-05-13T15:10:44Z</time>
      </trkpt>
      <trkpt lat="45.73494" lon="5.70125">
        <ele>282.79998779297</ele>
        <time>2012-05-13T15:10:56Z</time>
      </trkpt>
      <trkpt lat="45.73501" lon="5.70133">
        <ele>283.09997558594</ele>
        <time>2012-05-13T15:11:01Z</time>
      </trkpt>
      <trkpt lat="45.73509" lon="5.70141">
        <ele>283.59997558594</ele>
        <time>2012-05-13T15:11:06Z</time>
      </trkpt>
      <trkpt lat="45.73517" lon="5.70147">
        <ele>283.40002441406</ele>
        <time>2012-05-13T15:11:12Z</time>
      </trkpt>
      <trkpt lat="45.73525" lon="5.70154">
        <ele>283.90002441406</ele>
        <time>2012-05-13T15:11:18Z</time>
      </trkpt>
      <trkpt lat="45.73532" lon="5.70163">
        <ele>284.09997558594</ele>
        <time>2012-05-13T15:11:24Z</time>
      </trkpt>
      <trkpt lat="45.7354" lon="5.7017">
        <ele>284.70001220703</ele>
        <time>2012-05-13T15:11:30Z</time>
      </trkpt>
      <trkpt lat="45.73548" lon="5.70178">
        <ele>285.59997558594</ele>
        <time>2012-05-13T15:11:38Z</time>
      </trkpt>
      <trkpt lat="45.73556" lon="5.70185">
        <ele>286.5</ele>
        <time>2012-05-13T15:11:45Z</time>
      </trkpt>
      <trkpt lat="45.73575" lon="5.70196">
        <ele>289.40002441406</ele>
        <time>2012-05-13T15:12:01Z</time>
      </trkpt>
      <trkpt lat="45.73583" lon="5.70202">
        <ele>288.90002441406</ele>
        <time>2012-05-13T15:12:06Z</time>
      </trkpt>
      <trkpt lat="45.73599" lon="5.70215">
        <ele>288.59997558594</ele>
        <time>2012-05-13T15:12:18Z</time>
      </trkpt>
      <trkpt lat="45.73617" lon="5.70235">
        <ele>289.40002441406</ele>
        <time>2012-05-13T15:12:25Z</time>
      </trkpt>
      <trkpt lat="45.73642" lon="5.70251">
        <ele>289.20001220703</ele>
        <time>2012-05-13T15:12:29Z</time>
      </trkpt>
      <trkpt lat="45.73663" lon="5.70263">
        <ele>288.5</ele>
        <time>2012-05-13T15:12:33Z</time>
      </trkpt>
      <trkpt lat="45.73682" lon="5.70274">
        <ele>287.90002441406</ele>
        <time>2012-05-13T15:12:37Z</time>
      </trkpt>
      <trkpt lat="45.73701" lon="5.70286">
        <ele>286.90002441406</ele>
        <time>2012-05-13T15:12:41Z</time>
      </trkpt>
      <trkpt lat="45.73721" lon="5.703">
        <ele>285.79998779297</ele>
        <time>2012-05-13T15:12:45Z</time>
      </trkpt>
      <trkpt lat="45.7374" lon="5.70312">
        <ele>284.70001220703</ele>
        <time>2012-05-13T15:12:49Z</time>
      </trkpt>
      <trkpt lat="45.73759" lon="5.7032">
        <ele>284.59997558594</ele>
        <time>2012-05-13T15:12:53Z</time>
      </trkpt>
      <trkpt lat="45.73785" lon="5.7034">
        <ele>283.09997558594</ele>
        <time>2012-05-13T15:13:00Z</time>
      </trkpt>
      <trkpt lat="45.73771" lon="5.70376">
        <ele>285.09997558594</ele>
        <time>2012-05-13T15:13:18Z</time>
      </trkpt>
      <trkpt lat="45.73766" lon="5.70402">
        <ele>285.5</ele>
        <time>2012-05-13T15:13:27Z</time>
      </trkpt>
      <trkpt lat="45.73773" lon="5.70391">
        <ele>289.20001220703</ele>
        <time>2012-05-13T15:13:43Z</time>
      </trkpt>
      <trkpt lat="45.73777" lon="5.7038">
        <ele>289.90002441406</ele>
        <time>2012-05-13T15:13:49Z</time>
      </trkpt>
      <trkpt lat="45.73784" lon="5.7037">
        <ele>290</ele>
        <time>2012-05-13T15:13:55Z</time>
      </trkpt>
      <trkpt lat="45.73789" lon="5.70359">
        <ele>290.59997558594</ele>
        <time>2012-05-13T15:14:01Z</time>
      </trkpt>
      <trkpt lat="45.73795" lon="5.70347">
        <ele>291.29998779297</ele>
        <time>2012-05-13T15:14:08Z</time>
      </trkpt>
      <trkpt lat="45.738" lon="5.70336">
        <ele>291.79998779297</ele>
        <time>2012-05-13T15:14:14Z</time>
      </trkpt>
      <trkpt lat="45.73814" lon="5.7032">
        <ele>293.79998779297</ele>
        <time>2012-05-13T15:14:31Z</time>
      </trkpt>
      <trkpt lat="45.73816" lon="5.70346">
        <ele>294.59997558594</ele>
        <time>2012-05-13T15:14:44Z</time>
      </trkpt>
      <trkpt lat="45.73805" lon="5.70373">
        <ele>297.90002441406</ele>
        <time>2012-05-13T15:15:07Z</time>
      </trkpt>
      <trkpt lat="45.73793" lon="5.70393">
        <ele>297.70001220703</ele>
        <time>2012-05-13T15:15:14Z</time>
      </trkpt>
      <trkpt lat="45.73787" lon="5.70404">
        <ele>297.79998779297</ele>
        <time>2012-05-13T15:15:19Z</time>
      </trkpt>
      <trkpt lat="45.73782" lon="5.70416">
        <ele>296.79998779297</ele>
        <time>2012-05-13T15:15:24Z</time>
      </trkpt>
      <trkpt lat="45.73777" lon="5.70428">
        <ele>296.5</ele>
        <time>2012-05-13T15:15:29Z</time>
      </trkpt>
      <trkpt lat="45.73771" lon="5.70441">
        <ele>295.90002441406</ele>
        <time>2012-05-13T15:15:35Z</time>
      </trkpt>
      <trkpt lat="45.73767" lon="5.70452">
        <ele>295.5</ele>
        <time>2012-05-13T15:15:41Z</time>
      </trkpt>
      <trkpt lat="45.73762" lon="5.70464">
        <ele>295.70001220703</ele>
        <time>2012-05-13T15:15:47Z</time>
      </trkpt>
      <trkpt lat="45.73758" lon="5.70476">
        <ele>295.59997558594</ele>
        <time>2012-05-13T15:15:53Z</time>
      </trkpt>
      <trkpt lat="45.73754" lon="5.70488">
        <ele>295.09997558594</ele>
        <time>2012-05-13T15:15:59Z</time>
      </trkpt>
      <trkpt lat="45.73744" lon="5.70513">
        <ele>295.5</ele>
        <time>2012-05-13T15:16:12Z</time>
      </trkpt>
      <trkpt lat="45.73735" lon="5.70539">
        <ele>294.29998779297</ele>
        <time>2012-05-13T15:16:24Z</time>
      </trkpt>
      <trkpt lat="45.73726" lon="5.70564">
        <ele>294.29998779297</ele>
        <time>2012-05-13T15:16:35Z</time>
      </trkpt>
      <trkpt lat="45.73718" lon="5.70589">
        <ele>293.09997558594</ele>
        <time>2012-05-13T15:16:46Z</time>
      </trkpt>
      <trkpt lat="45.73709" lon="5.70614">
        <ele>291.70001220703</ele>
        <time>2012-05-13T15:16:57Z</time>
      </trkpt>
      <trkpt lat="45.73699" lon="5.70641">
        <ele>290.70001220703</ele>
        <time>2012-05-13T15:17:09Z</time>
      </trkpt>
      <trkpt lat="45.73687" lon="5.70666">
        <ele>290.09997558594</ele>
        <time>2012-05-13T15:17:16Z</time>
      </trkpt>
      <trkpt lat="45.7367" lon="5.70687">
        <ele>290.70001220703</ele>
        <time>2012-05-13T15:17:22Z</time>
      </trkpt>
      <trkpt lat="45.73661" lon="5.70693">
        <ele>290.70001220703</ele>
        <time>2012-05-13T15:17:25Z</time>
      </trkpt>
      <trkpt lat="45.73653" lon="5.70701">
        <ele>291.79998779297</ele>
        <time>2012-05-13T15:17:31Z</time>
      </trkpt>
      <trkpt lat="45.73646" lon="5.7071">
        <ele>296.29998779297</ele>
        <time>2012-05-13T15:17:40Z</time>
      </trkpt>
      <trkpt lat="45.73629" lon="5.70722">
        <ele>306.70001220703</ele>
        <time>2012-05-13T15:17:57Z</time>
      </trkpt>
      <trkpt lat="45.73609" lon="5.70723">
        <ele>310.90002441406</ele>
        <time>2012-05-13T15:18:10Z</time>
      </trkpt>
      <trkpt lat="45.73591" lon="5.7072">
        <ele>314.09997558594</ele>
        <time>2012-05-13T15:18:21Z</time>
      </trkpt>
      <trkpt lat="45.73571" lon="5.70714">
        <ele>316.90002441406</ele>
        <time>2012-05-13T15:18:30Z</time>
      </trkpt>
      <trkpt lat="45.73552" lon="5.70714">
        <ele>317.09997558594</ele>
        <time>2012-05-13T15:18:40Z</time>
      </trkpt>
      <trkpt lat="45.73533" lon="5.70706">
        <ele>317.20001220703</ele>
        <time>2012-05-13T15:18:49Z</time>
      </trkpt>
      <trkpt lat="45.73521" lon="5.70687">
        <ele>320.5</ele>
        <time>2012-05-13T15:18:58Z</time>
      </trkpt>
      <trkpt lat="45.73513" lon="5.70662">
        <ele>320.70001220703</ele>
        <time>2012-05-13T15:19:07Z</time>
      </trkpt>
      <trkpt lat="45.73508" lon="5.70649">
        <ele>319.59997558594</ele>
        <time>2012-05-13T15:19:12Z</time>
      </trkpt>
      <trkpt lat="45.73501" lon="5.70638">
        <ele>319.5</ele>
        <time>2012-05-13T15:19:18Z</time>
      </trkpt>
      <trkpt lat="45.73495" lon="5.70626">
        <ele>319.20001220703</ele>
        <time>2012-05-13T15:19:22Z</time>
      </trkpt>
      <trkpt lat="45.7348" lon="5.7061">
        <ele>312.59997558594</ele>
        <time>2012-05-13T15:19:30Z</time>
      </trkpt>
      <trkpt lat="45.73471" lon="5.70612">
        <ele>311.5</ele>
        <time>2012-05-13T15:19:35Z</time>
      </trkpt>
      <trkpt lat="45.73463" lon="5.70617">
        <ele>311</ele>
        <time>2012-05-13T15:19:40Z</time>
      </trkpt>
      <trkpt lat="45.73456" lon="5.70626">
        <ele>310.29998779297</ele>
        <time>2012-05-13T15:19:44Z</time>
      </trkpt>
      <trkpt lat="45.7345" lon="5.70638">
        <ele>310.09997558594</ele>
        <time>2012-05-13T15:19:50Z</time>
      </trkpt>
      <trkpt lat="45.73443" lon="5.70646">
        <ele>310.40002441406</ele>
        <time>2012-05-13T15:19:57Z</time>
      </trkpt>
      <trkpt lat="45.73432" lon="5.70646">
        <ele>310.70001220703</ele>
        <time>2012-05-13T15:20:04Z</time>
      </trkpt>
      <trkpt lat="45.73424" lon="5.70645">
        <ele>310.59997558594</ele>
        <time>2012-05-13T15:20:10Z</time>
      </trkpt>
      <trkpt lat="45.73414" lon="5.70643">
        <ele>310</ele>
        <time>2012-05-13T15:20:17Z</time>
      </trkpt>
      <trkpt lat="45.73404" lon="5.70641">
        <ele>311.40002441406</ele>
        <time>2012-05-13T15:20:24Z</time>
      </trkpt>
      <trkpt lat="45.73395" lon="5.70641">
        <ele>310.59997558594</ele>
        <time>2012-05-13T15:20:30Z</time>
      </trkpt>
      <trkpt lat="45.73385" lon="5.70641">
        <ele>310.40002441406</ele>
        <time>2012-05-13T15:20:36Z</time>
      </trkpt>
      <trkpt lat="45.73365" lon="5.70645">
        <ele>311</ele>
        <time>2012-05-13T15:20:49Z</time>
      </trkpt>
      <trkpt lat="45.73356" lon="5.70647">
        <ele>310</ele>
        <time>2012-05-13T15:20:54Z</time>
      </trkpt>
      <trkpt lat="45.73337" lon="5.70656">
        <ele>308.59997558594</ele>
        <time>2012-05-13T15:21:04Z</time>
      </trkpt>
      <trkpt lat="45.73328" lon="5.70659">
        <ele>308</ele>
        <time>2012-05-13T15:21:09Z</time>
      </trkpt>
      <trkpt lat="45.73318" lon="5.70663">
        <ele>307.5</ele>
        <time>2012-05-13T15:21:15Z</time>
      </trkpt>
      <trkpt lat="45.733" lon="5.7067">
        <ele>306.29998779297</ele>
        <time>2012-05-13T15:21:25Z</time>
      </trkpt>
      <trkpt lat="45.73289" lon="5.70672">
        <ele>305.79998779297</ele>
        <time>2012-05-13T15:21:31Z</time>
      </trkpt>
      <trkpt lat="45.73279" lon="5.7067">
        <ele>305.09997558594</ele>
        <time>2012-05-13T15:21:37Z</time>
      </trkpt>
      <trkpt lat="45.73269" lon="5.70665">
        <ele>304.59997558594</ele>
        <time>2012-05-13T15:21:43Z</time>
      </trkpt>
      <trkpt lat="45.73261" lon="5.70658">
        <ele>303.59997558594</ele>
        <time>2012-05-13T15:21:49Z</time>
      </trkpt>
      <trkpt lat="45.73246" lon="5.70639">
        <ele>298.5</ele>
        <time>2012-05-13T15:23:56Z</time>
      </trkpt>
      <trkpt lat="45.73238" lon="5.7063">
        <ele>297.79998779297</ele>
        <time>2012-05-13T15:24:04Z</time>
      </trkpt>
      <trkpt lat="45.73232" lon="5.70621">
        <ele>297.40002441406</ele>
        <time>2012-05-13T15:24:11Z</time>
      </trkpt>
      <trkpt lat="45.73217" lon="5.70606">
        <ele>295.40002441406</ele>
        <time>2012-05-13T15:24:25Z</time>
      </trkpt>
      <trkpt lat="45.73209" lon="5.70598">
        <ele>295</ele>
        <time>2012-05-13T15:24:33Z</time>
      </trkpt>
      <trkpt lat="45.73201" lon="5.70589">
        <ele>294.59997558594</ele>
        <time>2012-05-13T15:24:40Z</time>
      </trkpt>
      <trkpt lat="45.73192" lon="5.70585">
        <ele>294</ele>
        <time>2012-05-13T15:24:50Z</time>
      </trkpt>
      <trkpt lat="45.73176" lon="5.7057">
        <ele>292.90002441406</ele>
        <time>2012-05-13T15:25:04Z</time>
      </trkpt>
      <trkpt lat="45.73161" lon="5.70553">
        <ele>292.20001220703</ele>
        <time>2012-05-13T15:25:17Z</time>
      </trkpt>
      <trkpt lat="45.73147" lon="5.70534">
        <ele>291.29998779297</ele>
        <time>2012-05-13T15:25:28Z</time>
      </trkpt>
      <trkpt lat="45.73134" lon="5.70514">
        <ele>290.70001220703</ele>
        <time>2012-05-13T15:25:38Z</time>
      </trkpt>
      <trkpt lat="45.73118" lon="5.70496">
        <ele>289.5</ele>
        <time>2012-05-13T15:25:50Z</time>
      </trkpt>
      <trkpt lat="45.73112" lon="5.70485">
        <ele>289.59997558594</ele>
        <time>2012-05-13T15:25:58Z</time>
      </trkpt>
      <trkpt lat="45.73106" lon="5.70473">
        <ele>288.20001220703</ele>
        <time>2012-05-13T15:26:05Z</time>
      </trkpt>
      <trkpt lat="45.73099" lon="5.70465">
        <ele>287.29998779297</ele>
        <time>2012-05-13T15:26:11Z</time>
      </trkpt>
      <trkpt lat="45.73091" lon="5.70456">
        <ele>287</ele>
        <time>2012-05-13T15:26:17Z</time>
      </trkpt>
      <trkpt lat="45.73084" lon="5.70446">
        <ele>286.09997558594</ele>
        <time>2012-05-13T15:26:24Z</time>
      </trkpt>
      <trkpt lat="45.73071" lon="5.7045">
        <ele>283.40002441406</ele>
        <time>2012-05-13T15:26:41Z</time>
      </trkpt>
    </trkseg>
  </trk>
</gpx>